<?xml version="1.0" encoding="UTF-8" standalone="no" ?>
<gpx xmlns="http://www.topografix.com/GPX/1/1" xmlns:xsi="http://www.w3.org/2001/XMLSchema-instance" xsi:schemaLocation="http://www.topografix.com/GPX/1/1 http://www.topografix.com/GPX/1/1/gpx.xsd" version="1.1" creator="VisuGPX - https://www.visugpx.com">
  <metadata>
    <name>83-Me-Fox Amphoux</name>
    <desc><![CDATA[83-Me-Fox Amphoux : la chapelle St Ulfar
2022-11-02]]></desc>
  </metadata>
  <trk>
    <name><![CDATA[2022-11-02-Me-Fox amphoux]]></name>
    <extensions>
      <line xmlns="http://www.topografix.com/GPX/gpx_style/0/2">
        <width>4</width>
      </line>
    </extensions>
    <trkseg>
      <trkpt lat="43.58055" lon="6.10566">
        <ele>472.2</ele>
        <time>2022-11-02T13:03:30.000Z</time>
      </trkpt>
      <trkpt lat="43.58055" lon="6.10566">
        <ele>472.1</ele>
        <time>2022-11-02T13:03:31.000Z</time>
      </trkpt>
      <trkpt lat="43.58056" lon="6.10566">
        <ele>472</ele>
        <time>2022-11-02T13:03:35.000Z</time>
      </trkpt>
      <trkpt lat="43.58056" lon="6.10566">
        <ele>472</ele>
        <time>2022-11-02T13:03:36.000Z</time>
      </trkpt>
      <trkpt lat="43.58056" lon="6.10566">
        <ele>471.9</ele>
        <time>2022-11-02T13:03:38.000Z</time>
      </trkpt>
      <trkpt lat="43.58056" lon="6.10566">
        <ele>471.7</ele>
        <time>2022-11-02T13:03:40.000Z</time>
      </trkpt>
      <trkpt lat="43.58057" lon="6.10565">
        <ele>471.6</ele>
        <time>2022-11-02T13:03:41.000Z</time>
      </trkpt>
      <trkpt lat="43.58056" lon="6.10565">
        <ele>471.7</ele>
        <time>2022-11-02T13:03:44.000Z</time>
      </trkpt>
      <trkpt lat="43.58056" lon="6.10565">
        <ele>471.6</ele>
        <time>2022-11-02T13:03:47.000Z</time>
      </trkpt>
      <trkpt lat="43.58056" lon="6.10565">
        <ele>471.5</ele>
        <time>2022-11-02T13:03:50.000Z</time>
      </trkpt>
      <trkpt lat="43.58055" lon="6.10564">
        <ele>471.6</ele>
        <time>2022-11-02T13:03:56.000Z</time>
      </trkpt>
      <trkpt lat="43.58055" lon="6.10564">
        <ele>471.6</ele>
        <time>2022-11-02T13:03:58.000Z</time>
      </trkpt>
      <trkpt lat="43.58055" lon="6.10564">
        <ele>471.6</ele>
        <time>2022-11-02T13:03:58.000Z</time>
      </trkpt>
      <trkpt lat="43.58055" lon="6.10564">
        <ele>471.9</ele>
        <time>2022-11-02T13:04:18.000Z</time>
      </trkpt>
      <trkpt lat="43.58054" lon="6.10564">
        <ele>471.8</ele>
        <time>2022-11-02T13:04:20.000Z</time>
      </trkpt>
      <trkpt lat="43.58054" lon="6.10564">
        <ele>471.8</ele>
        <time>2022-11-02T13:04:22.000Z</time>
      </trkpt>
      <trkpt lat="43.58054" lon="6.10564">
        <ele>472</ele>
        <time>2022-11-02T13:04:26.000Z</time>
      </trkpt>
      <trkpt lat="43.58053" lon="6.10564">
        <ele>471.8</ele>
        <time>2022-11-02T13:04:27.000Z</time>
      </trkpt>
      <trkpt lat="43.58052" lon="6.10564">
        <ele>471.8</ele>
        <time>2022-11-02T13:04:30.000Z</time>
      </trkpt>
      <trkpt lat="43.58053" lon="6.10564">
        <ele>471.9</ele>
        <time>2022-11-02T13:04:31.000Z</time>
      </trkpt>
      <trkpt lat="43.58054" lon="6.10566">
        <ele>472.1</ele>
        <time>2022-11-02T13:04:39.000Z</time>
      </trkpt>
      <trkpt lat="43.58054" lon="6.10567">
        <ele>471.8</ele>
        <time>2022-11-02T13:05:04.000Z</time>
      </trkpt>
      <trkpt lat="43.58054" lon="6.10568">
        <ele>471.9</ele>
        <time>2022-11-02T13:05:07.000Z</time>
      </trkpt>
      <trkpt lat="43.58054" lon="6.10568">
        <ele>471.9</ele>
        <time>2022-11-02T13:05:26.000Z</time>
      </trkpt>
      <trkpt lat="43.58054" lon="6.10569">
        <ele>471.6</ele>
        <time>2022-11-02T13:05:28.000Z</time>
      </trkpt>
      <trkpt lat="43.58054" lon="6.10569">
        <ele>471.7</ele>
        <time>2022-11-02T13:05:29.000Z</time>
      </trkpt>
      <trkpt lat="43.58054" lon="6.10569">
        <ele>471.8</ele>
        <time>2022-11-02T13:05:30.000Z</time>
      </trkpt>
      <trkpt lat="43.58054" lon="6.10568">
        <ele>472.1</ele>
        <time>2022-11-02T13:05:56.000Z</time>
      </trkpt>
      <trkpt lat="43.58062" lon="6.10562">
        <ele>472.7</ele>
        <time>2022-11-02T13:06:07.000Z</time>
      </trkpt>
      <trkpt lat="43.58071" lon="6.10557">
        <ele>472.8</ele>
        <time>2022-11-02T13:06:18.000Z</time>
      </trkpt>
      <trkpt lat="43.58079" lon="6.1055">
        <ele>473.1</ele>
        <time>2022-11-02T13:06:26.000Z</time>
      </trkpt>
      <trkpt lat="43.58087" lon="6.10542">
        <ele>473.6</ele>
        <time>2022-11-02T13:06:36.000Z</time>
      </trkpt>
      <trkpt lat="43.58095" lon="6.10537">
        <ele>473.8</ele>
        <time>2022-11-02T13:06:45.000Z</time>
      </trkpt>
      <trkpt lat="43.58105" lon="6.10537">
        <ele>474.2</ele>
        <time>2022-11-02T13:06:57.000Z</time>
      </trkpt>
      <trkpt lat="43.58114" lon="6.10533">
        <ele>474.5</ele>
        <time>2022-11-02T13:07:05.000Z</time>
      </trkpt>
      <trkpt lat="43.58123" lon="6.10533">
        <ele>475</ele>
        <time>2022-11-02T13:07:14.000Z</time>
      </trkpt>
      <trkpt lat="43.58133" lon="6.10529">
        <ele>475.1</ele>
        <time>2022-11-02T13:07:22.000Z</time>
      </trkpt>
      <trkpt lat="43.58142" lon="6.10525">
        <ele>475.3</ele>
        <time>2022-11-02T13:07:31.000Z</time>
      </trkpt>
      <trkpt lat="43.58151" lon="6.10522">
        <ele>476.1</ele>
        <time>2022-11-02T13:07:39.000Z</time>
      </trkpt>
      <trkpt lat="43.58161" lon="6.1052">
        <ele>476.4</ele>
        <time>2022-11-02T13:07:48.000Z</time>
      </trkpt>
      <trkpt lat="43.5817" lon="6.10517">
        <ele>477.2</ele>
        <time>2022-11-02T13:07:56.000Z</time>
      </trkpt>
      <trkpt lat="43.5818" lon="6.10514">
        <ele>477.6</ele>
        <time>2022-11-02T13:08:05.000Z</time>
      </trkpt>
      <trkpt lat="43.58189" lon="6.10509">
        <ele>477.8</ele>
        <time>2022-11-02T13:08:13.000Z</time>
      </trkpt>
      <trkpt lat="43.58199" lon="6.10506">
        <ele>478.7</ele>
        <time>2022-11-02T13:08:22.000Z</time>
      </trkpt>
      <trkpt lat="43.58205" lon="6.10501">
        <ele>478.7</ele>
        <time>2022-11-02T13:08:32.000Z</time>
      </trkpt>
      <trkpt lat="43.58204" lon="6.10501">
        <ele>478.6</ele>
        <time>2022-11-02T13:08:33.000Z</time>
      </trkpt>
      <trkpt lat="43.58204" lon="6.10501">
        <ele>478.7</ele>
        <time>2022-11-02T13:08:34.000Z</time>
      </trkpt>
      <trkpt lat="43.58205" lon="6.10502">
        <ele>478.9</ele>
        <time>2022-11-02T13:08:41.000Z</time>
      </trkpt>
      <trkpt lat="43.58215" lon="6.10502">
        <ele>479</ele>
        <time>2022-11-02T13:08:52.000Z</time>
      </trkpt>
      <trkpt lat="43.58224" lon="6.10504">
        <ele>479.7</ele>
        <time>2022-11-02T13:09:00.000Z</time>
      </trkpt>
      <trkpt lat="43.58233" lon="6.10504">
        <ele>479.6</ele>
        <time>2022-11-02T13:09:08.000Z</time>
      </trkpt>
      <trkpt lat="43.58243" lon="6.10502">
        <ele>479.9</ele>
        <time>2022-11-02T13:09:17.000Z</time>
      </trkpt>
      <trkpt lat="43.58252" lon="6.10499">
        <ele>480.2</ele>
        <time>2022-11-02T13:09:24.000Z</time>
      </trkpt>
      <trkpt lat="43.58261" lon="6.10496">
        <ele>480.4</ele>
        <time>2022-11-02T13:09:33.000Z</time>
      </trkpt>
      <trkpt lat="43.58269" lon="6.10491">
        <ele>480.7</ele>
        <time>2022-11-02T13:09:40.000Z</time>
      </trkpt>
      <trkpt lat="43.58278" lon="6.10485">
        <ele>481.2</ele>
        <time>2022-11-02T13:09:48.000Z</time>
      </trkpt>
      <trkpt lat="43.58286" lon="6.10478">
        <ele>481.8</ele>
        <time>2022-11-02T13:09:56.000Z</time>
      </trkpt>
      <trkpt lat="43.58294" lon="6.10472">
        <ele>482.5</ele>
        <time>2022-11-02T13:10:04.000Z</time>
      </trkpt>
      <trkpt lat="43.58303" lon="6.10466">
        <ele>483.3</ele>
        <time>2022-11-02T13:10:12.000Z</time>
      </trkpt>
      <trkpt lat="43.58312" lon="6.10459">
        <ele>484</ele>
        <time>2022-11-02T13:10:22.000Z</time>
      </trkpt>
      <trkpt lat="43.58321" lon="6.10456">
        <ele>485.1</ele>
        <time>2022-11-02T13:10:32.000Z</time>
      </trkpt>
      <trkpt lat="43.5833" lon="6.10455">
        <ele>485.3</ele>
        <time>2022-11-02T13:10:41.000Z</time>
      </trkpt>
      <trkpt lat="43.58338" lon="6.10448">
        <ele>485.8</ele>
        <time>2022-11-02T13:10:50.000Z</time>
      </trkpt>
      <trkpt lat="43.58347" lon="6.10442">
        <ele>486.7</ele>
        <time>2022-11-02T13:11:01.000Z</time>
      </trkpt>
      <trkpt lat="43.58355" lon="6.10438">
        <ele>488</ele>
        <time>2022-11-02T13:11:12.000Z</time>
      </trkpt>
      <trkpt lat="43.58364" lon="6.10432">
        <ele>488.8</ele>
        <time>2022-11-02T13:11:22.000Z</time>
      </trkpt>
      <trkpt lat="43.58372" lon="6.10425">
        <ele>489.9</ele>
        <time>2022-11-02T13:11:32.000Z</time>
      </trkpt>
      <trkpt lat="43.5838" lon="6.10418">
        <ele>490.3</ele>
        <time>2022-11-02T13:11:41.000Z</time>
      </trkpt>
      <trkpt lat="43.58388" lon="6.10411">
        <ele>491.1</ele>
        <time>2022-11-02T13:11:50.000Z</time>
      </trkpt>
      <trkpt lat="43.58396" lon="6.10404">
        <ele>492</ele>
        <time>2022-11-02T13:12:00.000Z</time>
      </trkpt>
      <trkpt lat="43.58404" lon="6.10398">
        <ele>493.5</ele>
        <time>2022-11-02T13:12:10.000Z</time>
      </trkpt>
      <trkpt lat="43.58411" lon="6.1039">
        <ele>494.8</ele>
        <time>2022-11-02T13:12:21.000Z</time>
      </trkpt>
      <trkpt lat="43.58419" lon="6.10384">
        <ele>496.1</ele>
        <time>2022-11-02T13:12:33.000Z</time>
      </trkpt>
      <trkpt lat="43.58426" lon="6.10377">
        <ele>497.7</ele>
        <time>2022-11-02T13:12:44.000Z</time>
      </trkpt>
      <trkpt lat="43.58434" lon="6.10368">
        <ele>498.8</ele>
        <time>2022-11-02T13:12:55.000Z</time>
      </trkpt>
      <trkpt lat="43.58443" lon="6.10362">
        <ele>499.4</ele>
        <time>2022-11-02T13:13:05.000Z</time>
      </trkpt>
      <trkpt lat="43.58451" lon="6.10357">
        <ele>500.3</ele>
        <time>2022-11-02T13:13:16.000Z</time>
      </trkpt>
      <trkpt lat="43.58458" lon="6.10351">
        <ele>500.7</ele>
        <time>2022-11-02T13:13:26.000Z</time>
      </trkpt>
      <trkpt lat="43.58458" lon="6.10351">
        <ele>500.8</ele>
        <time>2022-11-02T13:13:41.000Z</time>
      </trkpt>
      <trkpt lat="43.58458" lon="6.10351">
        <ele>500.9</ele>
        <time>2022-11-02T13:13:42.000Z</time>
      </trkpt>
      <trkpt lat="43.58458" lon="6.10351">
        <ele>500.7</ele>
        <time>2022-11-02T13:13:48.000Z</time>
      </trkpt>
      <trkpt lat="43.58458" lon="6.10351">
        <ele>500.7</ele>
        <time>2022-11-02T13:13:49.000Z</time>
      </trkpt>
      <trkpt lat="43.58458" lon="6.1035">
        <ele>501</ele>
        <time>2022-11-02T13:14:29.000Z</time>
      </trkpt>
      <trkpt lat="43.58458" lon="6.1035">
        <ele>500.9</ele>
        <time>2022-11-02T13:14:32.000Z</time>
      </trkpt>
      <trkpt lat="43.58458" lon="6.1035">
        <ele>500.8</ele>
        <time>2022-11-02T13:14:34.000Z</time>
      </trkpt>
      <trkpt lat="43.58458" lon="6.1035">
        <ele>500.7</ele>
        <time>2022-11-02T13:14:35.000Z</time>
      </trkpt>
      <trkpt lat="43.58458" lon="6.1035">
        <ele>500.9</ele>
        <time>2022-11-02T13:14:41.000Z</time>
      </trkpt>
      <trkpt lat="43.58458" lon="6.1035">
        <ele>500.9</ele>
        <time>2022-11-02T13:14:42.000Z</time>
      </trkpt>
      <trkpt lat="43.58458" lon="6.1035">
        <ele>500.7</ele>
        <time>2022-11-02T13:14:49.000Z</time>
      </trkpt>
      <trkpt lat="43.58467" lon="6.10347">
        <ele>501.6</ele>
        <time>2022-11-02T13:15:03.000Z</time>
      </trkpt>
      <trkpt lat="43.58476" lon="6.10346">
        <ele>502.2</ele>
        <time>2022-11-02T13:15:12.000Z</time>
      </trkpt>
      <trkpt lat="43.58486" lon="6.10346">
        <ele>502.9</ele>
        <time>2022-11-02T13:15:22.000Z</time>
      </trkpt>
      <trkpt lat="43.58495" lon="6.10348">
        <ele>503.7</ele>
        <time>2022-11-02T13:15:32.000Z</time>
      </trkpt>
      <trkpt lat="43.58503" lon="6.10355">
        <ele>505.1</ele>
        <time>2022-11-02T13:15:43.000Z</time>
      </trkpt>
      <trkpt lat="43.58512" lon="6.10354">
        <ele>506.1</ele>
        <time>2022-11-02T13:15:53.000Z</time>
      </trkpt>
      <trkpt lat="43.58516" lon="6.10349">
        <ele>506.9</ele>
        <time>2022-11-02T13:16:02.000Z</time>
      </trkpt>
      <trkpt lat="43.58516" lon="6.10349">
        <ele>507.1</ele>
        <time>2022-11-02T13:16:13.000Z</time>
      </trkpt>
      <trkpt lat="43.58517" lon="6.10348">
        <ele>506.9</ele>
        <time>2022-11-02T13:16:19.000Z</time>
      </trkpt>
      <trkpt lat="43.58517" lon="6.10348">
        <ele>507</ele>
        <time>2022-11-02T13:16:20.000Z</time>
      </trkpt>
      <trkpt lat="43.58517" lon="6.10348">
        <ele>506.8</ele>
        <time>2022-11-02T13:16:27.000Z</time>
      </trkpt>
      <trkpt lat="43.58517" lon="6.10346">
        <ele>507</ele>
        <time>2022-11-02T13:16:44.000Z</time>
      </trkpt>
      <trkpt lat="43.58522" lon="6.10334">
        <ele>507.5</ele>
        <time>2022-11-02T13:17:22.000Z</time>
      </trkpt>
      <trkpt lat="43.58522" lon="6.10334">
        <ele>507.5</ele>
        <time>2022-11-02T13:17:24.000Z</time>
      </trkpt>
      <trkpt lat="43.58523" lon="6.10333">
        <ele>507.5</ele>
        <time>2022-11-02T13:17:35.000Z</time>
      </trkpt>
      <trkpt lat="43.58523" lon="6.10333">
        <ele>507.2</ele>
        <time>2022-11-02T13:17:37.000Z</time>
      </trkpt>
      <trkpt lat="43.58522" lon="6.10333">
        <ele>507.2</ele>
        <time>2022-11-02T13:17:38.000Z</time>
      </trkpt>
      <trkpt lat="43.58521" lon="6.10331">
        <ele>507.5</ele>
        <time>2022-11-02T13:17:43.000Z</time>
      </trkpt>
      <trkpt lat="43.58521" lon="6.10331">
        <ele>507.6</ele>
        <time>2022-11-02T13:17:48.000Z</time>
      </trkpt>
      <trkpt lat="43.58521" lon="6.10331">
        <ele>507.5</ele>
        <time>2022-11-02T13:17:52.000Z</time>
      </trkpt>
      <trkpt lat="43.5852" lon="6.10331">
        <ele>507.8</ele>
        <time>2022-11-02T13:18:00.000Z</time>
      </trkpt>
      <trkpt lat="43.5852" lon="6.10332">
        <ele>507.6</ele>
        <time>2022-11-02T13:18:02.000Z</time>
      </trkpt>
      <trkpt lat="43.5852" lon="6.10331">
        <ele>507.5</ele>
        <time>2022-11-02T13:18:05.000Z</time>
      </trkpt>
      <trkpt lat="43.5852" lon="6.10331">
        <ele>507.8</ele>
        <time>2022-11-02T13:18:07.000Z</time>
      </trkpt>
      <trkpt lat="43.5852" lon="6.10331">
        <ele>507.5</ele>
        <time>2022-11-02T13:18:14.000Z</time>
      </trkpt>
      <trkpt lat="43.58519" lon="6.10332">
        <ele>507.7</ele>
        <time>2022-11-02T13:18:18.000Z</time>
      </trkpt>
      <trkpt lat="43.58519" lon="6.10331">
        <ele>507.7</ele>
        <time>2022-11-02T13:18:19.000Z</time>
      </trkpt>
      <trkpt lat="43.58518" lon="6.10331">
        <ele>507.5</ele>
        <time>2022-11-02T13:18:24.000Z</time>
      </trkpt>
      <trkpt lat="43.58517" lon="6.10332">
        <ele>507.6</ele>
        <time>2022-11-02T13:18:25.000Z</time>
      </trkpt>
      <trkpt lat="43.58516" lon="6.10345">
        <ele>507.4</ele>
        <time>2022-11-02T13:18:47.000Z</time>
      </trkpt>
      <trkpt lat="43.58518" lon="6.10345">
        <ele>507.1</ele>
        <time>2022-11-02T13:18:54.000Z</time>
      </trkpt>
      <trkpt lat="43.58518" lon="6.10345">
        <ele>507.3</ele>
        <time>2022-11-02T13:18:59.000Z</time>
      </trkpt>
      <trkpt lat="43.58527" lon="6.10348">
        <ele>507.7</ele>
        <time>2022-11-02T13:19:10.000Z</time>
      </trkpt>
      <trkpt lat="43.58536" lon="6.10344">
        <ele>508.2</ele>
        <time>2022-11-02T13:19:20.000Z</time>
      </trkpt>
      <trkpt lat="43.58546" lon="6.1034">
        <ele>508.7</ele>
        <time>2022-11-02T13:19:30.000Z</time>
      </trkpt>
      <trkpt lat="43.58555" lon="6.10336">
        <ele>510</ele>
        <time>2022-11-02T13:19:40.000Z</time>
      </trkpt>
      <trkpt lat="43.58564" lon="6.10332">
        <ele>510.9</ele>
        <time>2022-11-02T13:19:53.000Z</time>
      </trkpt>
      <trkpt lat="43.58573" lon="6.1033">
        <ele>512.5</ele>
        <time>2022-11-02T13:20:03.000Z</time>
      </trkpt>
      <trkpt lat="43.58582" lon="6.10327">
        <ele>513.5</ele>
        <time>2022-11-02T13:20:11.000Z</time>
      </trkpt>
      <trkpt lat="43.58591" lon="6.10321">
        <ele>514.6</ele>
        <time>2022-11-02T13:20:20.000Z</time>
      </trkpt>
      <trkpt lat="43.586" lon="6.10317">
        <ele>515.5</ele>
        <time>2022-11-02T13:20:29.000Z</time>
      </trkpt>
      <trkpt lat="43.58609" lon="6.10312">
        <ele>516.9</ele>
        <time>2022-11-02T13:20:39.000Z</time>
      </trkpt>
      <trkpt lat="43.58617" lon="6.10307">
        <ele>517.9</ele>
        <time>2022-11-02T13:20:50.000Z</time>
      </trkpt>
      <trkpt lat="43.58626" lon="6.10305">
        <ele>519.2</ele>
        <time>2022-11-02T13:21:00.000Z</time>
      </trkpt>
      <trkpt lat="43.58635" lon="6.10299">
        <ele>520.8</ele>
        <time>2022-11-02T13:21:12.000Z</time>
      </trkpt>
      <trkpt lat="43.58643" lon="6.10293">
        <ele>522</ele>
        <time>2022-11-02T13:21:21.000Z</time>
      </trkpt>
      <trkpt lat="43.58652" lon="6.10289">
        <ele>523.1</ele>
        <time>2022-11-02T13:21:31.000Z</time>
      </trkpt>
      <trkpt lat="43.58661" lon="6.10284">
        <ele>524.6</ele>
        <time>2022-11-02T13:21:43.000Z</time>
      </trkpt>
      <trkpt lat="43.5867" lon="6.1028">
        <ele>525.6</ele>
        <time>2022-11-02T13:21:53.000Z</time>
      </trkpt>
      <trkpt lat="43.58679" lon="6.10274">
        <ele>526.8</ele>
        <time>2022-11-02T13:22:03.000Z</time>
      </trkpt>
      <trkpt lat="43.58687" lon="6.1027">
        <ele>527.9</ele>
        <time>2022-11-02T13:22:13.000Z</time>
      </trkpt>
      <trkpt lat="43.58696" lon="6.10265">
        <ele>529.2</ele>
        <time>2022-11-02T13:22:23.000Z</time>
      </trkpt>
      <trkpt lat="43.58705" lon="6.1026">
        <ele>529.9</ele>
        <time>2022-11-02T13:22:32.000Z</time>
      </trkpt>
      <trkpt lat="43.58714" lon="6.10257">
        <ele>531</ele>
        <time>2022-11-02T13:22:42.000Z</time>
      </trkpt>
      <trkpt lat="43.58722" lon="6.10251">
        <ele>532.3</ele>
        <time>2022-11-02T13:22:56.000Z</time>
      </trkpt>
      <trkpt lat="43.58731" lon="6.10247">
        <ele>533.3</ele>
        <time>2022-11-02T13:23:06.000Z</time>
      </trkpt>
      <trkpt lat="43.5874" lon="6.10244">
        <ele>533.5</ele>
        <time>2022-11-02T13:23:15.000Z</time>
      </trkpt>
      <trkpt lat="43.5875" lon="6.10241">
        <ele>533.4</ele>
        <time>2022-11-02T13:23:24.000Z</time>
      </trkpt>
      <trkpt lat="43.58759" lon="6.10242">
        <ele>533.2</ele>
        <time>2022-11-02T13:23:32.000Z</time>
      </trkpt>
      <trkpt lat="43.58768" lon="6.10236">
        <ele>534.2</ele>
        <time>2022-11-02T13:23:42.000Z</time>
      </trkpt>
      <trkpt lat="43.58775" lon="6.10227">
        <ele>534.9</ele>
        <time>2022-11-02T13:23:51.000Z</time>
      </trkpt>
      <trkpt lat="43.58779" lon="6.10221">
        <ele>535.5</ele>
        <time>2022-11-02T13:24:01.000Z</time>
      </trkpt>
      <trkpt lat="43.58779" lon="6.10221">
        <ele>535.5</ele>
        <time>2022-11-02T13:24:04.000Z</time>
      </trkpt>
      <trkpt lat="43.58779" lon="6.10221">
        <ele>535.5</ele>
        <time>2022-11-02T13:24:06.000Z</time>
      </trkpt>
      <trkpt lat="43.58779" lon="6.10221">
        <ele>535.3</ele>
        <time>2022-11-02T13:24:12.000Z</time>
      </trkpt>
      <trkpt lat="43.58779" lon="6.1022">
        <ele>535.4</ele>
        <time>2022-11-02T13:24:13.000Z</time>
      </trkpt>
      <trkpt lat="43.58779" lon="6.1022">
        <ele>535.6</ele>
        <time>2022-11-02T13:24:22.000Z</time>
      </trkpt>
      <trkpt lat="43.58779" lon="6.1022">
        <ele>535.5</ele>
        <time>2022-11-02T13:24:24.000Z</time>
      </trkpt>
      <trkpt lat="43.58779" lon="6.1022">
        <ele>535.5</ele>
        <time>2022-11-02T13:24:25.000Z</time>
      </trkpt>
      <trkpt lat="43.58779" lon="6.1022">
        <ele>535.6</ele>
        <time>2022-11-02T13:24:28.000Z</time>
      </trkpt>
      <trkpt lat="43.58779" lon="6.10219">
        <ele>535.5</ele>
        <time>2022-11-02T13:24:30.000Z</time>
      </trkpt>
      <trkpt lat="43.58782" lon="6.10207">
        <ele>535.5</ele>
        <time>2022-11-02T13:24:43.000Z</time>
      </trkpt>
      <trkpt lat="43.58782" lon="6.10194">
        <ele>534.9</ele>
        <time>2022-11-02T13:24:52.000Z</time>
      </trkpt>
      <trkpt lat="43.58776" lon="6.10183">
        <ele>534.3</ele>
        <time>2022-11-02T13:25:02.000Z</time>
      </trkpt>
      <trkpt lat="43.58768" lon="6.10175">
        <ele>533.4</ele>
        <time>2022-11-02T13:25:10.000Z</time>
      </trkpt>
      <trkpt lat="43.5876" lon="6.10168">
        <ele>532.9</ele>
        <time>2022-11-02T13:25:20.000Z</time>
      </trkpt>
      <trkpt lat="43.58752" lon="6.10161">
        <ele>532.3</ele>
        <time>2022-11-02T13:25:28.000Z</time>
      </trkpt>
      <trkpt lat="43.58744" lon="6.10153">
        <ele>531.8</ele>
        <time>2022-11-02T13:25:37.000Z</time>
      </trkpt>
      <trkpt lat="43.58736" lon="6.10147">
        <ele>531.3</ele>
        <time>2022-11-02T13:25:45.000Z</time>
      </trkpt>
      <trkpt lat="43.58727" lon="6.10143">
        <ele>531.4</ele>
        <time>2022-11-02T13:25:53.000Z</time>
      </trkpt>
      <trkpt lat="43.58717" lon="6.10141">
        <ele>531.1</ele>
        <time>2022-11-02T13:26:03.000Z</time>
      </trkpt>
      <trkpt lat="43.58708" lon="6.1014">
        <ele>531.6</ele>
        <time>2022-11-02T13:26:12.000Z</time>
      </trkpt>
      <trkpt lat="43.58699" lon="6.10137">
        <ele>531.5</ele>
        <time>2022-11-02T13:26:21.000Z</time>
      </trkpt>
      <trkpt lat="43.5869" lon="6.10136">
        <ele>531.2</ele>
        <time>2022-11-02T13:26:29.000Z</time>
      </trkpt>
      <trkpt lat="43.58681" lon="6.10137">
        <ele>531.5</ele>
        <time>2022-11-02T13:26:37.000Z</time>
      </trkpt>
      <trkpt lat="43.58671" lon="6.1014">
        <ele>531.7</ele>
        <time>2022-11-02T13:26:48.000Z</time>
      </trkpt>
      <trkpt lat="43.58661" lon="6.10142">
        <ele>531.3</ele>
        <time>2022-11-02T13:26:56.000Z</time>
      </trkpt>
      <trkpt lat="43.58656" lon="6.10153">
        <ele>532.1</ele>
        <time>2022-11-02T13:27:05.000Z</time>
      </trkpt>
      <trkpt lat="43.58659" lon="6.10165">
        <ele>533.5</ele>
        <time>2022-11-02T13:27:15.000Z</time>
      </trkpt>
      <trkpt lat="43.58667" lon="6.1017">
        <ele>535.3</ele>
        <time>2022-11-02T13:27:29.000Z</time>
      </trkpt>
      <trkpt lat="43.58673" lon="6.10181">
        <ele>536.7</ele>
        <time>2022-11-02T13:27:42.000Z</time>
      </trkpt>
      <trkpt lat="43.58676" lon="6.10193">
        <ele>537.8</ele>
        <time>2022-11-02T13:27:54.000Z</time>
      </trkpt>
      <trkpt lat="43.58677" lon="6.10205">
        <ele>538.9</ele>
        <time>2022-11-02T13:28:03.000Z</time>
      </trkpt>
      <trkpt lat="43.58677" lon="6.10213">
        <ele>538.7</ele>
        <time>2022-11-02T13:28:15.000Z</time>
      </trkpt>
      <trkpt lat="43.58677" lon="6.10213">
        <ele>538.8</ele>
        <time>2022-11-02T13:28:16.000Z</time>
      </trkpt>
      <trkpt lat="43.58677" lon="6.10213">
        <ele>538.7</ele>
        <time>2022-11-02T13:28:17.000Z</time>
      </trkpt>
      <trkpt lat="43.58677" lon="6.10213">
        <ele>538.8</ele>
        <time>2022-11-02T13:28:18.000Z</time>
      </trkpt>
      <trkpt lat="43.58679" lon="6.10213">
        <ele>538.7</ele>
        <time>2022-11-02T13:28:22.000Z</time>
      </trkpt>
      <trkpt lat="43.58679" lon="6.10214">
        <ele>538.9</ele>
        <time>2022-11-02T13:28:27.000Z</time>
      </trkpt>
      <trkpt lat="43.58679" lon="6.10214">
        <ele>538.8</ele>
        <time>2022-11-02T13:28:28.000Z</time>
      </trkpt>
      <trkpt lat="43.58679" lon="6.10214">
        <ele>538.8</ele>
        <time>2022-11-02T13:28:29.000Z</time>
      </trkpt>
      <trkpt lat="43.58679" lon="6.10214">
        <ele>538.8</ele>
        <time>2022-11-02T13:28:30.000Z</time>
      </trkpt>
      <trkpt lat="43.58679" lon="6.10214">
        <ele>538.7</ele>
        <time>2022-11-02T13:28:43.000Z</time>
      </trkpt>
      <trkpt lat="43.58679" lon="6.10214">
        <ele>538.9</ele>
        <time>2022-11-02T13:28:45.000Z</time>
      </trkpt>
      <trkpt lat="43.58679" lon="6.10214">
        <ele>538.9</ele>
        <time>2022-11-02T13:28:53.000Z</time>
      </trkpt>
      <trkpt lat="43.58679" lon="6.10214">
        <ele>538.9</ele>
        <time>2022-11-02T13:28:54.000Z</time>
      </trkpt>
      <trkpt lat="43.58679" lon="6.10214">
        <ele>538.8</ele>
        <time>2022-11-02T13:28:58.000Z</time>
      </trkpt>
      <trkpt lat="43.5868" lon="6.10215">
        <ele>538.8</ele>
        <time>2022-11-02T13:29:00.000Z</time>
      </trkpt>
      <trkpt lat="43.5868" lon="6.10215">
        <ele>538.9</ele>
        <time>2022-11-02T13:30:07.000Z</time>
      </trkpt>
      <trkpt lat="43.5868" lon="6.10214">
        <ele>539.1</ele>
        <time>2022-11-02T13:30:10.000Z</time>
      </trkpt>
      <trkpt lat="43.5868" lon="6.10214">
        <ele>539.1</ele>
        <time>2022-11-02T13:30:36.000Z</time>
      </trkpt>
      <trkpt lat="43.5868" lon="6.10202">
        <ele>526</ele>
        <time>2022-11-02T13:30:58.000Z</time>
      </trkpt>
      <trkpt lat="43.58692" lon="6.10204">
        <ele>546.9</ele>
        <time>2022-11-02T13:31:39.000Z</time>
      </trkpt>
      <trkpt lat="43.5869" lon="6.10198">
        <ele>548.5</ele>
        <time>2022-11-02T13:31:51.000Z</time>
      </trkpt>
      <trkpt lat="43.58691" lon="6.10198">
        <ele>548.5</ele>
        <time>2022-11-02T13:31:52.000Z</time>
      </trkpt>
      <trkpt lat="43.5869" lon="6.10198">
        <ele>548.7</ele>
        <time>2022-11-02T13:31:57.000Z</time>
      </trkpt>
      <trkpt lat="43.5869" lon="6.10198">
        <ele>548.7</ele>
        <time>2022-11-02T13:31:58.000Z</time>
      </trkpt>
      <trkpt lat="43.5869" lon="6.10198">
        <ele>548.6</ele>
        <time>2022-11-02T13:31:59.000Z</time>
      </trkpt>
      <trkpt lat="43.5869" lon="6.10197">
        <ele>548.9</ele>
        <time>2022-11-02T13:32:00.000Z</time>
      </trkpt>
      <trkpt lat="43.5869" lon="6.10197">
        <ele>548.8</ele>
        <time>2022-11-02T13:32:01.000Z</time>
      </trkpt>
      <trkpt lat="43.5869" lon="6.10197">
        <ele>548.7</ele>
        <time>2022-11-02T13:32:02.000Z</time>
      </trkpt>
      <trkpt lat="43.5869" lon="6.10197">
        <ele>548.7</ele>
        <time>2022-11-02T13:32:04.000Z</time>
      </trkpt>
      <trkpt lat="43.58689" lon="6.10197">
        <ele>548.7</ele>
        <time>2022-11-02T13:32:05.000Z</time>
      </trkpt>
      <trkpt lat="43.5869" lon="6.10197">
        <ele>548.6</ele>
        <time>2022-11-02T13:32:07.000Z</time>
      </trkpt>
      <trkpt lat="43.5869" lon="6.10197">
        <ele>548.9</ele>
        <time>2022-11-02T13:32:11.000Z</time>
      </trkpt>
      <trkpt lat="43.5869" lon="6.10197">
        <ele>548.6</ele>
        <time>2022-11-02T13:32:12.000Z</time>
      </trkpt>
      <trkpt lat="43.5869" lon="6.10197">
        <ele>548.6</ele>
        <time>2022-11-02T13:32:15.000Z</time>
      </trkpt>
      <trkpt lat="43.5869" lon="6.10197">
        <ele>548.7</ele>
        <time>2022-11-02T13:32:16.000Z</time>
      </trkpt>
      <trkpt lat="43.5869" lon="6.10196">
        <ele>548.8</ele>
        <time>2022-11-02T13:32:37.000Z</time>
      </trkpt>
      <trkpt lat="43.5869" lon="6.10196">
        <ele>548.5</ele>
        <time>2022-11-02T13:32:40.000Z</time>
      </trkpt>
      <trkpt lat="43.5869" lon="6.10196">
        <ele>548.7</ele>
        <time>2022-11-02T13:33:00.000Z</time>
      </trkpt>
      <trkpt lat="43.58691" lon="6.10199">
        <ele>549</ele>
        <time>2022-11-02T13:33:05.000Z</time>
      </trkpt>
      <trkpt lat="43.58691" lon="6.10199">
        <ele>548.7</ele>
        <time>2022-11-02T13:33:17.000Z</time>
      </trkpt>
      <trkpt lat="43.58691" lon="6.10199">
        <ele>548.7</ele>
        <time>2022-11-02T13:33:18.000Z</time>
      </trkpt>
      <trkpt lat="43.58691" lon="6.10199">
        <ele>549</ele>
        <time>2022-11-02T13:33:27.000Z</time>
      </trkpt>
      <trkpt lat="43.58691" lon="6.10198">
        <ele>549</ele>
        <time>2022-11-02T13:33:29.000Z</time>
      </trkpt>
      <trkpt lat="43.58692" lon="6.10199">
        <ele>549.2</ele>
        <time>2022-11-02T13:35:08.000Z</time>
      </trkpt>
      <trkpt lat="43.58692" lon="6.10199">
        <ele>549.2</ele>
        <time>2022-11-02T13:35:09.000Z</time>
      </trkpt>
      <trkpt lat="43.58691" lon="6.10199">
        <ele>548.9</ele>
        <time>2022-11-02T13:35:11.000Z</time>
      </trkpt>
      <trkpt lat="43.58692" lon="6.10199">
        <ele>548.8</ele>
        <time>2022-11-02T13:35:13.000Z</time>
      </trkpt>
      <trkpt lat="43.58691" lon="6.10199">
        <ele>549.3</ele>
        <time>2022-11-02T13:35:57.000Z</time>
      </trkpt>
      <trkpt lat="43.58691" lon="6.10199">
        <ele>549.4</ele>
        <time>2022-11-02T13:35:58.000Z</time>
      </trkpt>
      <trkpt lat="43.58691" lon="6.102">
        <ele>549.1</ele>
        <time>2022-11-02T13:36:02.000Z</time>
      </trkpt>
      <trkpt lat="43.58691" lon="6.102">
        <ele>549.1</ele>
        <time>2022-11-02T13:36:03.000Z</time>
      </trkpt>
      <trkpt lat="43.58691" lon="6.102">
        <ele>549.4</ele>
        <time>2022-11-02T13:36:56.000Z</time>
      </trkpt>
      <trkpt lat="43.58691" lon="6.102">
        <ele>549.6</ele>
        <time>2022-11-02T13:36:57.000Z</time>
      </trkpt>
      <trkpt lat="43.58692" lon="6.102">
        <ele>549.5</ele>
        <time>2022-11-02T13:37:28.000Z</time>
      </trkpt>
      <trkpt lat="43.58692" lon="6.102">
        <ele>549.5</ele>
        <time>2022-11-02T13:37:29.000Z</time>
      </trkpt>
      <trkpt lat="43.58692" lon="6.102">
        <ele>549.6</ele>
        <time>2022-11-02T13:37:38.000Z</time>
      </trkpt>
      <trkpt lat="43.58692" lon="6.10199">
        <ele>549.6</ele>
        <time>2022-11-02T13:37:39.000Z</time>
      </trkpt>
      <trkpt lat="43.58692" lon="6.10199">
        <ele>549.4</ele>
        <time>2022-11-02T13:37:41.000Z</time>
      </trkpt>
      <trkpt lat="43.58691" lon="6.10198">
        <ele>549.1</ele>
        <time>2022-11-02T13:37:47.000Z</time>
      </trkpt>
      <trkpt lat="43.58691" lon="6.10197">
        <ele>548.9</ele>
        <time>2022-11-02T13:38:12.000Z</time>
      </trkpt>
      <trkpt lat="43.58691" lon="6.10198">
        <ele>550</ele>
        <time>2022-11-02T13:38:15.000Z</time>
      </trkpt>
      <trkpt lat="43.58691" lon="6.10198">
        <ele>549.8</ele>
        <time>2022-11-02T13:38:16.000Z</time>
      </trkpt>
      <trkpt lat="43.58691" lon="6.10198">
        <ele>549.5</ele>
        <time>2022-11-02T13:38:18.000Z</time>
      </trkpt>
      <trkpt lat="43.58691" lon="6.10198">
        <ele>549.2</ele>
        <time>2022-11-02T13:38:22.000Z</time>
      </trkpt>
      <trkpt lat="43.58691" lon="6.10198">
        <ele>549.3</ele>
        <time>2022-11-02T13:38:23.000Z</time>
      </trkpt>
      <trkpt lat="43.58691" lon="6.10198">
        <ele>549.3</ele>
        <time>2022-11-02T13:38:24.000Z</time>
      </trkpt>
      <trkpt lat="43.58691" lon="6.10198">
        <ele>549.2</ele>
        <time>2022-11-02T13:38:25.000Z</time>
      </trkpt>
      <trkpt lat="43.58691" lon="6.10198">
        <ele>549.6</ele>
        <time>2022-11-02T13:38:40.000Z</time>
      </trkpt>
      <trkpt lat="43.58691" lon="6.10198">
        <ele>549.5</ele>
        <time>2022-11-02T13:38:41.000Z</time>
      </trkpt>
      <trkpt lat="43.58691" lon="6.10198">
        <ele>549.3</ele>
        <time>2022-11-02T13:38:42.000Z</time>
      </trkpt>
      <trkpt lat="43.58691" lon="6.10198">
        <ele>549.1</ele>
        <time>2022-11-02T13:38:43.000Z</time>
      </trkpt>
      <trkpt lat="43.58691" lon="6.10198">
        <ele>549.2</ele>
        <time>2022-11-02T13:39:12.000Z</time>
      </trkpt>
      <trkpt lat="43.58691" lon="6.10198">
        <ele>549.1</ele>
        <time>2022-11-02T13:39:14.000Z</time>
      </trkpt>
      <trkpt lat="43.58691" lon="6.10198">
        <ele>549.1</ele>
        <time>2022-11-02T13:39:15.000Z</time>
      </trkpt>
      <trkpt lat="43.5869" lon="6.10196">
        <ele>549.3</ele>
        <time>2022-11-02T13:39:19.000Z</time>
      </trkpt>
      <trkpt lat="43.5869" lon="6.10195">
        <ele>549.3</ele>
        <time>2022-11-02T13:39:26.000Z</time>
      </trkpt>
      <trkpt lat="43.5869" lon="6.10201">
        <ele>547.9</ele>
        <time>2022-11-02T13:39:41.000Z</time>
      </trkpt>
      <trkpt lat="43.5869" lon="6.10201">
        <ele>547.7</ele>
        <time>2022-11-02T13:39:42.000Z</time>
      </trkpt>
      <trkpt lat="43.5869" lon="6.10202">
        <ele>547.8</ele>
        <time>2022-11-02T13:39:44.000Z</time>
      </trkpt>
      <trkpt lat="43.5869" lon="6.10201">
        <ele>547.8</ele>
        <time>2022-11-02T13:39:47.000Z</time>
      </trkpt>
      <trkpt lat="43.5869" lon="6.10201">
        <ele>547.6</ele>
        <time>2022-11-02T13:39:48.000Z</time>
      </trkpt>
      <trkpt lat="43.5869" lon="6.10201">
        <ele>547.4</ele>
        <time>2022-11-02T13:39:49.000Z</time>
      </trkpt>
      <trkpt lat="43.5868" lon="6.102">
        <ele>544.7</ele>
        <time>2022-11-02T13:40:00.000Z</time>
      </trkpt>
      <trkpt lat="43.58708" lon="6.10167">
        <ele>542.8</ele>
        <time>2022-11-02T13:40:17.000Z</time>
      </trkpt>
      <trkpt lat="43.58708" lon="6.10184">
        <ele>542.2</ele>
        <time>2022-11-02T13:40:19.000Z</time>
      </trkpt>
      <trkpt lat="43.58703" lon="6.10199">
        <ele>542.1</ele>
        <time>2022-11-02T13:40:21.000Z</time>
      </trkpt>
      <trkpt lat="43.58698" lon="6.10197">
        <ele>542</ele>
        <time>2022-11-02T13:40:29.000Z</time>
      </trkpt>
      <trkpt lat="43.58698" lon="6.10197">
        <ele>542.4</ele>
        <time>2022-11-02T13:40:51.000Z</time>
      </trkpt>
      <trkpt lat="43.58707" lon="6.10196">
        <ele>541.2</ele>
        <time>2022-11-02T13:41:02.000Z</time>
      </trkpt>
      <trkpt lat="43.58712" lon="6.10206">
        <ele>540.3</ele>
        <time>2022-11-02T13:41:14.000Z</time>
      </trkpt>
      <trkpt lat="43.58709" lon="6.10219">
        <ele>539.2</ele>
        <time>2022-11-02T13:41:23.000Z</time>
      </trkpt>
      <trkpt lat="43.58711" lon="6.10221">
        <ele>539.2</ele>
        <time>2022-11-02T13:41:30.000Z</time>
      </trkpt>
      <trkpt lat="43.58712" lon="6.10221">
        <ele>539.4</ele>
        <time>2022-11-02T13:41:40.000Z</time>
      </trkpt>
      <trkpt lat="43.58712" lon="6.10221">
        <ele>539.4</ele>
        <time>2022-11-02T13:41:41.000Z</time>
      </trkpt>
      <trkpt lat="43.58712" lon="6.10221">
        <ele>539.5</ele>
        <time>2022-11-02T13:41:42.000Z</time>
      </trkpt>
      <trkpt lat="43.58712" lon="6.10221">
        <ele>539.5</ele>
        <time>2022-11-02T13:41:43.000Z</time>
      </trkpt>
      <trkpt lat="43.58712" lon="6.10221">
        <ele>539.4</ele>
        <time>2022-11-02T13:41:50.000Z</time>
      </trkpt>
      <trkpt lat="43.58712" lon="6.10221">
        <ele>539.3</ele>
        <time>2022-11-02T13:41:51.000Z</time>
      </trkpt>
      <trkpt lat="43.58713" lon="6.10221">
        <ele>539.2</ele>
        <time>2022-11-02T13:42:05.000Z</time>
      </trkpt>
      <trkpt lat="43.58713" lon="6.10221">
        <ele>539.2</ele>
        <time>2022-11-02T13:42:06.000Z</time>
      </trkpt>
      <trkpt lat="43.58713" lon="6.10221">
        <ele>539.2</ele>
        <time>2022-11-02T13:42:17.000Z</time>
      </trkpt>
      <trkpt lat="43.58713" lon="6.10221">
        <ele>539.3</ele>
        <time>2022-11-02T13:42:18.000Z</time>
      </trkpt>
      <trkpt lat="43.58713" lon="6.10221">
        <ele>539.2</ele>
        <time>2022-11-02T13:42:31.000Z</time>
      </trkpt>
      <trkpt lat="43.58713" lon="6.10221">
        <ele>539.6</ele>
        <time>2022-11-02T13:42:32.000Z</time>
      </trkpt>
      <trkpt lat="43.58713" lon="6.10221">
        <ele>539.1</ele>
        <time>2022-11-02T13:43:05.000Z</time>
      </trkpt>
      <trkpt lat="43.58713" lon="6.10221">
        <ele>539.1</ele>
        <time>2022-11-02T13:43:06.000Z</time>
      </trkpt>
      <trkpt lat="43.58713" lon="6.10221">
        <ele>539.2</ele>
        <time>2022-11-02T13:43:28.000Z</time>
      </trkpt>
      <trkpt lat="43.58713" lon="6.10221">
        <ele>539.3</ele>
        <time>2022-11-02T13:43:29.000Z</time>
      </trkpt>
      <trkpt lat="43.58713" lon="6.1022">
        <ele>539.2</ele>
        <time>2022-11-02T13:44:09.000Z</time>
      </trkpt>
      <trkpt lat="43.58713" lon="6.1022">
        <ele>539.3</ele>
        <time>2022-11-02T13:44:10.000Z</time>
      </trkpt>
      <trkpt lat="43.58713" lon="6.1022">
        <ele>539.2</ele>
        <time>2022-11-02T13:44:22.000Z</time>
      </trkpt>
      <trkpt lat="43.58704" lon="6.10219">
        <ele>539.6</ele>
        <time>2022-11-02T13:44:32.000Z</time>
      </trkpt>
      <trkpt lat="43.58694" lon="6.1022">
        <ele>539.9</ele>
        <time>2022-11-02T13:44:46.000Z</time>
      </trkpt>
      <trkpt lat="43.58689" lon="6.10219">
        <ele>539.9</ele>
        <time>2022-11-02T13:44:57.000Z</time>
      </trkpt>
      <trkpt lat="43.58688" lon="6.10219">
        <ele>540</ele>
        <time>2022-11-02T13:44:58.000Z</time>
      </trkpt>
      <trkpt lat="43.58679" lon="6.10218">
        <ele>539.9</ele>
        <time>2022-11-02T13:45:07.000Z</time>
      </trkpt>
      <trkpt lat="43.58671" lon="6.10213">
        <ele>539.7</ele>
        <time>2022-11-02T13:45:16.000Z</time>
      </trkpt>
      <trkpt lat="43.58661" lon="6.10214">
        <ele>539</ele>
        <time>2022-11-02T13:45:24.000Z</time>
      </trkpt>
      <trkpt lat="43.58653" lon="6.10212">
        <ele>538.2</ele>
        <time>2022-11-02T13:45:36.000Z</time>
      </trkpt>
      <trkpt lat="43.58653" lon="6.10212">
        <ele>538.3</ele>
        <time>2022-11-02T13:45:37.000Z</time>
      </trkpt>
      <trkpt lat="43.58653" lon="6.10209">
        <ele>538.1</ele>
        <time>2022-11-02T13:45:47.000Z</time>
      </trkpt>
      <trkpt lat="43.58653" lon="6.10209">
        <ele>538.2</ele>
        <time>2022-11-02T13:45:50.000Z</time>
      </trkpt>
      <trkpt lat="43.58653" lon="6.10209">
        <ele>538.1</ele>
        <time>2022-11-02T13:45:51.000Z</time>
      </trkpt>
      <trkpt lat="43.58652" lon="6.10209">
        <ele>538.1</ele>
        <time>2022-11-02T13:45:53.000Z</time>
      </trkpt>
      <trkpt lat="43.58653" lon="6.10206">
        <ele>537.9</ele>
        <time>2022-11-02T13:46:01.000Z</time>
      </trkpt>
      <trkpt lat="43.58653" lon="6.10206">
        <ele>538</ele>
        <time>2022-11-02T13:46:02.000Z</time>
      </trkpt>
      <trkpt lat="43.58654" lon="6.10204">
        <ele>538.1</ele>
        <time>2022-11-02T13:46:07.000Z</time>
      </trkpt>
      <trkpt lat="43.58654" lon="6.10204">
        <ele>538.1</ele>
        <time>2022-11-02T13:46:08.000Z</time>
      </trkpt>
      <trkpt lat="43.58654" lon="6.10204">
        <ele>538.1</ele>
        <time>2022-11-02T13:46:12.000Z</time>
      </trkpt>
      <trkpt lat="43.58654" lon="6.10203">
        <ele>537.9</ele>
        <time>2022-11-02T13:46:15.000Z</time>
      </trkpt>
      <trkpt lat="43.58652" lon="6.10202">
        <ele>538.1</ele>
        <time>2022-11-02T13:46:21.000Z</time>
      </trkpt>
      <trkpt lat="43.58652" lon="6.10202">
        <ele>538.2</ele>
        <time>2022-11-02T13:46:22.000Z</time>
      </trkpt>
      <trkpt lat="43.58656" lon="6.10199">
        <ele>539.4</ele>
        <time>2022-11-02T13:46:49.000Z</time>
      </trkpt>
      <trkpt lat="43.58656" lon="6.10199">
        <ele>539.5</ele>
        <time>2022-11-02T13:46:50.000Z</time>
      </trkpt>
      <trkpt lat="43.58649" lon="6.10197">
        <ele>539.5</ele>
        <time>2022-11-02T13:47:14.000Z</time>
      </trkpt>
      <trkpt lat="43.58649" lon="6.10198">
        <ele>539.4</ele>
        <time>2022-11-02T13:47:15.000Z</time>
      </trkpt>
      <trkpt lat="43.5865" lon="6.10198">
        <ele>539.2</ele>
        <time>2022-11-02T13:47:27.000Z</time>
      </trkpt>
      <trkpt lat="43.58649" lon="6.10198">
        <ele>539.1</ele>
        <time>2022-11-02T13:47:28.000Z</time>
      </trkpt>
      <trkpt lat="43.58649" lon="6.10198">
        <ele>539.3</ele>
        <time>2022-11-02T13:47:30.000Z</time>
      </trkpt>
      <trkpt lat="43.58649" lon="6.10197">
        <ele>539.4</ele>
        <time>2022-11-02T13:47:31.000Z</time>
      </trkpt>
      <trkpt lat="43.58649" lon="6.10196">
        <ele>539.3</ele>
        <time>2022-11-02T13:47:36.000Z</time>
      </trkpt>
      <trkpt lat="43.5865" lon="6.10197">
        <ele>539.4</ele>
        <time>2022-11-02T13:47:47.000Z</time>
      </trkpt>
      <trkpt lat="43.5865" lon="6.10196">
        <ele>539.4</ele>
        <time>2022-11-02T13:47:50.000Z</time>
      </trkpt>
      <trkpt lat="43.5865" lon="6.10196">
        <ele>539.3</ele>
        <time>2022-11-02T13:47:51.000Z</time>
      </trkpt>
      <trkpt lat="43.58647" lon="6.10199">
        <ele>539.2</ele>
        <time>2022-11-02T13:47:59.000Z</time>
      </trkpt>
      <trkpt lat="43.58648" lon="6.102">
        <ele>539</ele>
        <time>2022-11-02T13:48:01.000Z</time>
      </trkpt>
      <trkpt lat="43.58641" lon="6.1019">
        <ele>539.2</ele>
        <time>2022-11-02T13:48:20.000Z</time>
      </trkpt>
      <trkpt lat="43.58651" lon="6.10184">
        <ele>539.3</ele>
        <time>2022-11-02T13:48:26.000Z</time>
      </trkpt>
      <trkpt lat="43.58653" lon="6.10184">
        <ele>539.2</ele>
        <time>2022-11-02T13:48:33.000Z</time>
      </trkpt>
      <trkpt lat="43.58653" lon="6.10184">
        <ele>539.2</ele>
        <time>2022-11-02T13:48:34.000Z</time>
      </trkpt>
      <trkpt lat="43.58661" lon="6.10184">
        <ele>529.6</ele>
        <time>2022-11-02T13:48:52.000Z</time>
      </trkpt>
      <trkpt lat="43.58667" lon="6.10186">
        <ele>539.5</ele>
        <time>2022-11-02T13:50:02.000Z</time>
      </trkpt>
      <trkpt lat="43.58659" lon="6.10188">
        <ele>538.9</ele>
        <time>2022-11-02T13:50:29.000Z</time>
      </trkpt>
      <trkpt lat="43.58652" lon="6.10192">
        <ele>538.1</ele>
        <time>2022-11-02T13:50:54.000Z</time>
      </trkpt>
      <trkpt lat="43.58652" lon="6.10192">
        <ele>538.1</ele>
        <time>2022-11-02T13:50:55.000Z</time>
      </trkpt>
      <trkpt lat="43.58653" lon="6.10193">
        <ele>538.1</ele>
        <time>2022-11-02T13:50:57.000Z</time>
      </trkpt>
      <trkpt lat="43.58653" lon="6.10193">
        <ele>537.9</ele>
        <time>2022-11-02T13:51:17.000Z</time>
      </trkpt>
      <trkpt lat="43.58643" lon="6.10191">
        <ele>536.3</ele>
        <time>2022-11-02T13:51:34.000Z</time>
      </trkpt>
      <trkpt lat="43.58634" lon="6.10189">
        <ele>535.6</ele>
        <time>2022-11-02T13:51:47.000Z</time>
      </trkpt>
      <trkpt lat="43.58633" lon="6.10191">
        <ele>535.7</ele>
        <time>2022-11-02T13:51:52.000Z</time>
      </trkpt>
      <trkpt lat="43.58633" lon="6.10191">
        <ele>535.6</ele>
        <time>2022-11-02T13:52:06.000Z</time>
      </trkpt>
      <trkpt lat="43.58633" lon="6.10193">
        <ele>535.6</ele>
        <time>2022-11-02T13:52:08.000Z</time>
      </trkpt>
      <trkpt lat="43.58633" lon="6.10193">
        <ele>535.7</ele>
        <time>2022-11-02T13:52:13.000Z</time>
      </trkpt>
      <trkpt lat="43.58634" lon="6.10192">
        <ele>535.5</ele>
        <time>2022-11-02T13:52:17.000Z</time>
      </trkpt>
      <trkpt lat="43.58634" lon="6.10192">
        <ele>535.4</ele>
        <time>2022-11-02T13:52:28.000Z</time>
      </trkpt>
      <trkpt lat="43.58634" lon="6.10192">
        <ele>535.4</ele>
        <time>2022-11-02T13:52:29.000Z</time>
      </trkpt>
      <trkpt lat="43.58634" lon="6.10192">
        <ele>535.3</ele>
        <time>2022-11-02T13:52:42.000Z</time>
      </trkpt>
      <trkpt lat="43.58634" lon="6.10192">
        <ele>535.1</ele>
        <time>2022-11-02T13:52:46.000Z</time>
      </trkpt>
      <trkpt lat="43.58634" lon="6.10192">
        <ele>535.1</ele>
        <time>2022-11-02T13:52:50.000Z</time>
      </trkpt>
      <trkpt lat="43.58634" lon="6.10192">
        <ele>535.1</ele>
        <time>2022-11-02T13:52:52.000Z</time>
      </trkpt>
      <trkpt lat="43.58634" lon="6.10192">
        <ele>535.3</ele>
        <time>2022-11-02T13:53:03.000Z</time>
      </trkpt>
      <trkpt lat="43.58634" lon="6.10192">
        <ele>535.2</ele>
        <time>2022-11-02T13:53:05.000Z</time>
      </trkpt>
      <trkpt lat="43.58633" lon="6.10192">
        <ele>535.2</ele>
        <time>2022-11-02T13:53:06.000Z</time>
      </trkpt>
      <trkpt lat="43.58633" lon="6.10192">
        <ele>535.3</ele>
        <time>2022-11-02T13:53:08.000Z</time>
      </trkpt>
      <trkpt lat="43.58634" lon="6.10192">
        <ele>535.2</ele>
        <time>2022-11-02T13:53:18.000Z</time>
      </trkpt>
      <trkpt lat="43.58634" lon="6.10193">
        <ele>535.3</ele>
        <time>2022-11-02T13:53:25.000Z</time>
      </trkpt>
      <trkpt lat="43.58634" lon="6.10193">
        <ele>535.3</ele>
        <time>2022-11-02T13:53:27.000Z</time>
      </trkpt>
      <trkpt lat="43.58626" lon="6.10186">
        <ele>535.1</ele>
        <time>2022-11-02T13:53:36.000Z</time>
      </trkpt>
      <trkpt lat="43.58617" lon="6.10181">
        <ele>535</ele>
        <time>2022-11-02T13:53:43.000Z</time>
      </trkpt>
      <trkpt lat="43.58612" lon="6.10172">
        <ele>534.7</ele>
        <time>2022-11-02T13:53:58.000Z</time>
      </trkpt>
      <trkpt lat="43.58611" lon="6.10172">
        <ele>534.8</ele>
        <time>2022-11-02T13:53:59.000Z</time>
      </trkpt>
      <trkpt lat="43.58611" lon="6.10172">
        <ele>534.8</ele>
        <time>2022-11-02T13:54:00.000Z</time>
      </trkpt>
      <trkpt lat="43.58612" lon="6.10172">
        <ele>534.8</ele>
        <time>2022-11-02T13:54:02.000Z</time>
      </trkpt>
      <trkpt lat="43.58612" lon="6.10172">
        <ele>534.7</ele>
        <time>2022-11-02T13:54:05.000Z</time>
      </trkpt>
      <trkpt lat="43.58612" lon="6.10172">
        <ele>534.6</ele>
        <time>2022-11-02T13:54:13.000Z</time>
      </trkpt>
      <trkpt lat="43.58611" lon="6.10172">
        <ele>534.6</ele>
        <time>2022-11-02T13:54:15.000Z</time>
      </trkpt>
      <trkpt lat="43.58611" lon="6.10172">
        <ele>534.6</ele>
        <time>2022-11-02T13:54:26.000Z</time>
      </trkpt>
      <trkpt lat="43.58602" lon="6.10168">
        <ele>534</ele>
        <time>2022-11-02T13:54:39.000Z</time>
      </trkpt>
      <trkpt lat="43.58595" lon="6.10159">
        <ele>532.9</ele>
        <time>2022-11-02T13:54:51.000Z</time>
      </trkpt>
      <trkpt lat="43.58595" lon="6.10149">
        <ele>532.2</ele>
        <time>2022-11-02T13:55:06.000Z</time>
      </trkpt>
      <trkpt lat="43.58595" lon="6.10149">
        <ele>532.3</ele>
        <time>2022-11-02T13:55:08.000Z</time>
      </trkpt>
      <trkpt lat="43.58595" lon="6.10149">
        <ele>532.3</ele>
        <time>2022-11-02T13:55:11.000Z</time>
      </trkpt>
      <trkpt lat="43.58595" lon="6.10149">
        <ele>532.2</ele>
        <time>2022-11-02T13:55:56.000Z</time>
      </trkpt>
      <trkpt lat="43.58595" lon="6.10149">
        <ele>532.3</ele>
        <time>2022-11-02T13:55:57.000Z</time>
      </trkpt>
      <trkpt lat="43.58595" lon="6.10149">
        <ele>532.3</ele>
        <time>2022-11-02T13:56:08.000Z</time>
      </trkpt>
      <trkpt lat="43.58595" lon="6.10149">
        <ele>532.2</ele>
        <time>2022-11-02T13:56:09.000Z</time>
      </trkpt>
      <trkpt lat="43.58595" lon="6.10149">
        <ele>532.1</ele>
        <time>2022-11-02T13:56:10.000Z</time>
      </trkpt>
      <trkpt lat="43.58595" lon="6.10149">
        <ele>532.1</ele>
        <time>2022-11-02T13:56:12.000Z</time>
      </trkpt>
      <trkpt lat="43.58595" lon="6.10148">
        <ele>532.1</ele>
        <time>2022-11-02T13:56:13.000Z</time>
      </trkpt>
      <trkpt lat="43.58604" lon="6.10145">
        <ele>531.7</ele>
        <time>2022-11-02T13:56:31.000Z</time>
      </trkpt>
      <trkpt lat="43.58613" lon="6.10146">
        <ele>531.1</ele>
        <time>2022-11-02T13:56:44.000Z</time>
      </trkpt>
      <trkpt lat="43.58615" lon="6.10133">
        <ele>528.5</ele>
        <time>2022-11-02T13:57:05.000Z</time>
      </trkpt>
      <trkpt lat="43.58616" lon="6.10127">
        <ele>527.3</ele>
        <time>2022-11-02T13:57:15.000Z</time>
      </trkpt>
      <trkpt lat="43.58616" lon="6.10127">
        <ele>527.3</ele>
        <time>2022-11-02T13:57:17.000Z</time>
      </trkpt>
      <trkpt lat="43.58623" lon="6.1012">
        <ele>525.6</ele>
        <time>2022-11-02T13:57:33.000Z</time>
      </trkpt>
      <trkpt lat="43.58631" lon="6.10112">
        <ele>524.3</ele>
        <time>2022-11-02T13:57:44.000Z</time>
      </trkpt>
      <trkpt lat="43.58639" lon="6.10104">
        <ele>523</ele>
        <time>2022-11-02T13:57:59.000Z</time>
      </trkpt>
      <trkpt lat="43.58648" lon="6.101">
        <ele>522.4</ele>
        <time>2022-11-02T13:58:09.000Z</time>
      </trkpt>
      <trkpt lat="43.58657" lon="6.10097">
        <ele>522.1</ele>
        <time>2022-11-02T13:58:21.000Z</time>
      </trkpt>
      <trkpt lat="43.58666" lon="6.10094">
        <ele>521.5</ele>
        <time>2022-11-02T13:58:33.000Z</time>
      </trkpt>
      <trkpt lat="43.58676" lon="6.1009">
        <ele>520.2</ele>
        <time>2022-11-02T13:58:45.000Z</time>
      </trkpt>
      <trkpt lat="43.58685" lon="6.10088">
        <ele>519.6</ele>
        <time>2022-11-02T13:58:54.000Z</time>
      </trkpt>
      <trkpt lat="43.58694" lon="6.10087">
        <ele>518.1</ele>
        <time>2022-11-02T13:59:04.000Z</time>
      </trkpt>
      <trkpt lat="43.58704" lon="6.10085">
        <ele>517.1</ele>
        <time>2022-11-02T13:59:17.000Z</time>
      </trkpt>
      <trkpt lat="43.58712" lon="6.10079">
        <ele>515.7</ele>
        <time>2022-11-02T13:59:29.000Z</time>
      </trkpt>
      <trkpt lat="43.58721" lon="6.10073">
        <ele>514.6</ele>
        <time>2022-11-02T13:59:40.000Z</time>
      </trkpt>
      <trkpt lat="43.5873" lon="6.10073">
        <ele>512.7</ele>
        <time>2022-11-02T13:59:53.000Z</time>
      </trkpt>
      <trkpt lat="43.58731" lon="6.10071">
        <ele>512.8</ele>
        <time>2022-11-02T13:59:56.000Z</time>
      </trkpt>
      <trkpt lat="43.58731" lon="6.10071">
        <ele>512.9</ele>
        <time>2022-11-02T13:59:57.000Z</time>
      </trkpt>
      <trkpt lat="43.5874" lon="6.10073">
        <ele>511</ele>
        <time>2022-11-02T14:00:12.000Z</time>
      </trkpt>
      <trkpt lat="43.58742" lon="6.10071">
        <ele>510.5</ele>
        <time>2022-11-02T14:00:18.000Z</time>
      </trkpt>
      <trkpt lat="43.58742" lon="6.10071">
        <ele>510.4</ele>
        <time>2022-11-02T14:00:30.000Z</time>
      </trkpt>
      <trkpt lat="43.58743" lon="6.10073">
        <ele>510.3</ele>
        <time>2022-11-02T14:00:38.000Z</time>
      </trkpt>
      <trkpt lat="43.58743" lon="6.10073">
        <ele>510.3</ele>
        <time>2022-11-02T14:00:39.000Z</time>
      </trkpt>
      <trkpt lat="43.58749" lon="6.10063">
        <ele>508.1</ele>
        <time>2022-11-02T14:00:58.000Z</time>
      </trkpt>
      <trkpt lat="43.58747" lon="6.10053">
        <ele>506.6</ele>
        <time>2022-11-02T14:01:20.000Z</time>
      </trkpt>
      <trkpt lat="43.58747" lon="6.10054">
        <ele>506.4</ele>
        <time>2022-11-02T14:01:21.000Z</time>
      </trkpt>
      <trkpt lat="43.5875" lon="6.10059">
        <ele>505.1</ele>
        <time>2022-11-02T14:01:33.000Z</time>
      </trkpt>
      <trkpt lat="43.5875" lon="6.10059">
        <ele>505.2</ele>
        <time>2022-11-02T14:01:39.000Z</time>
      </trkpt>
      <trkpt lat="43.58752" lon="6.1006">
        <ele>504.7</ele>
        <time>2022-11-02T14:01:43.000Z</time>
      </trkpt>
      <trkpt lat="43.58752" lon="6.1006">
        <ele>504.8</ele>
        <time>2022-11-02T14:01:46.000Z</time>
      </trkpt>
      <trkpt lat="43.58752" lon="6.1006">
        <ele>504.4</ele>
        <time>2022-11-02T14:01:48.000Z</time>
      </trkpt>
      <trkpt lat="43.58752" lon="6.1006">
        <ele>504.2</ele>
        <time>2022-11-02T14:01:53.000Z</time>
      </trkpt>
      <trkpt lat="43.58752" lon="6.1006">
        <ele>504.3</ele>
        <time>2022-11-02T14:01:54.000Z</time>
      </trkpt>
      <trkpt lat="43.58752" lon="6.1006">
        <ele>504.4</ele>
        <time>2022-11-02T14:01:55.000Z</time>
      </trkpt>
      <trkpt lat="43.58752" lon="6.1006">
        <ele>504.5</ele>
        <time>2022-11-02T14:01:56.000Z</time>
      </trkpt>
      <trkpt lat="43.58752" lon="6.1006">
        <ele>504.5</ele>
        <time>2022-11-02T14:01:59.000Z</time>
      </trkpt>
      <trkpt lat="43.58756" lon="6.10049">
        <ele>502</ele>
        <time>2022-11-02T14:02:28.000Z</time>
      </trkpt>
      <trkpt lat="43.58751" lon="6.10038">
        <ele>500.8</ele>
        <time>2022-11-02T14:02:41.000Z</time>
      </trkpt>
      <trkpt lat="43.58758" lon="6.10047">
        <ele>497.9</ele>
        <time>2022-11-02T14:03:10.000Z</time>
      </trkpt>
      <trkpt lat="43.58766" lon="6.10054">
        <ele>495.9</ele>
        <time>2022-11-02T14:03:25.000Z</time>
      </trkpt>
      <trkpt lat="43.58775" lon="6.10057">
        <ele>494</ele>
        <time>2022-11-02T14:03:38.000Z</time>
      </trkpt>
      <trkpt lat="43.58772" lon="6.10045">
        <ele>492.2</ele>
        <time>2022-11-02T14:03:57.000Z</time>
      </trkpt>
      <trkpt lat="43.58769" lon="6.10033">
        <ele>489.9</ele>
        <time>2022-11-02T14:04:13.000Z</time>
      </trkpt>
      <trkpt lat="43.58776" lon="6.1004">
        <ele>486.7</ele>
        <time>2022-11-02T14:04:44.000Z</time>
      </trkpt>
      <trkpt lat="43.58783" lon="6.10049">
        <ele>485.8</ele>
        <time>2022-11-02T14:04:59.000Z</time>
      </trkpt>
      <trkpt lat="43.58784" lon="6.10045">
        <ele>485.8</ele>
        <time>2022-11-02T14:05:05.000Z</time>
      </trkpt>
      <trkpt lat="43.58784" lon="6.10045">
        <ele>485.8</ele>
        <time>2022-11-02T14:05:27.000Z</time>
      </trkpt>
      <trkpt lat="43.58784" lon="6.10045">
        <ele>485.9</ele>
        <time>2022-11-02T14:05:28.000Z</time>
      </trkpt>
      <trkpt lat="43.58785" lon="6.10045">
        <ele>485.8</ele>
        <time>2022-11-02T14:05:29.000Z</time>
      </trkpt>
      <trkpt lat="43.58793" lon="6.10052">
        <ele>484.9</ele>
        <time>2022-11-02T14:05:40.000Z</time>
      </trkpt>
      <trkpt lat="43.58801" lon="6.10059">
        <ele>484</ele>
        <time>2022-11-02T14:05:53.000Z</time>
      </trkpt>
      <trkpt lat="43.58809" lon="6.10064">
        <ele>483.4</ele>
        <time>2022-11-02T14:06:07.000Z</time>
      </trkpt>
      <trkpt lat="43.58817" lon="6.1007">
        <ele>482.7</ele>
        <time>2022-11-02T14:06:22.000Z</time>
      </trkpt>
      <trkpt lat="43.58825" lon="6.10077">
        <ele>481.3</ele>
        <time>2022-11-02T14:06:38.000Z</time>
      </trkpt>
      <trkpt lat="43.58833" lon="6.10082">
        <ele>479.9</ele>
        <time>2022-11-02T14:06:51.000Z</time>
      </trkpt>
      <trkpt lat="43.58837" lon="6.10094">
        <ele>480.4</ele>
        <time>2022-11-02T14:07:05.000Z</time>
      </trkpt>
      <trkpt lat="43.58843" lon="6.10104">
        <ele>481.4</ele>
        <time>2022-11-02T14:07:16.000Z</time>
      </trkpt>
      <trkpt lat="43.58849" lon="6.10114">
        <ele>480.4</ele>
        <time>2022-11-02T14:07:25.000Z</time>
      </trkpt>
      <trkpt lat="43.58857" lon="6.10124">
        <ele>480.5</ele>
        <time>2022-11-02T14:07:34.000Z</time>
      </trkpt>
      <trkpt lat="43.58859" lon="6.10136">
        <ele>480.4</ele>
        <time>2022-11-02T14:07:43.000Z</time>
      </trkpt>
      <trkpt lat="43.58863" lon="6.10147">
        <ele>478.5</ele>
        <time>2022-11-02T14:07:56.000Z</time>
      </trkpt>
      <trkpt lat="43.58869" lon="6.10157">
        <ele>477.3</ele>
        <time>2022-11-02T14:08:07.000Z</time>
      </trkpt>
      <trkpt lat="43.58872" lon="6.10163">
        <ele>475.7</ele>
        <time>2022-11-02T14:08:23.000Z</time>
      </trkpt>
      <trkpt lat="43.58872" lon="6.10163">
        <ele>475.9</ele>
        <time>2022-11-02T14:08:24.000Z</time>
      </trkpt>
      <trkpt lat="43.58872" lon="6.10163">
        <ele>475.9</ele>
        <time>2022-11-02T14:08:25.000Z</time>
      </trkpt>
      <trkpt lat="43.58872" lon="6.10163">
        <ele>476</ele>
        <time>2022-11-02T14:08:26.000Z</time>
      </trkpt>
      <trkpt lat="43.58873" lon="6.10159">
        <ele>476</ele>
        <time>2022-11-02T14:08:34.000Z</time>
      </trkpt>
      <trkpt lat="43.58873" lon="6.10158">
        <ele>475.9</ele>
        <time>2022-11-02T14:08:43.000Z</time>
      </trkpt>
      <trkpt lat="43.58873" lon="6.10159">
        <ele>476.2</ele>
        <time>2022-11-02T14:08:47.000Z</time>
      </trkpt>
      <trkpt lat="43.58873" lon="6.10159">
        <ele>476.1</ele>
        <time>2022-11-02T14:08:59.000Z</time>
      </trkpt>
      <trkpt lat="43.58873" lon="6.10159">
        <ele>476.2</ele>
        <time>2022-11-02T14:09:00.000Z</time>
      </trkpt>
      <trkpt lat="43.58873" lon="6.10158">
        <ele>476.3</ele>
        <time>2022-11-02T14:09:09.000Z</time>
      </trkpt>
      <trkpt lat="43.58872" lon="6.10157">
        <ele>476.2</ele>
        <time>2022-11-02T14:09:13.000Z</time>
      </trkpt>
      <trkpt lat="43.58872" lon="6.10157">
        <ele>476.2</ele>
        <time>2022-11-02T14:09:19.000Z</time>
      </trkpt>
      <trkpt lat="43.58872" lon="6.10157">
        <ele>476.2</ele>
        <time>2022-11-02T14:09:20.000Z</time>
      </trkpt>
      <trkpt lat="43.58872" lon="6.10157">
        <ele>475.9</ele>
        <time>2022-11-02T14:09:32.000Z</time>
      </trkpt>
      <trkpt lat="43.58872" lon="6.10157">
        <ele>476</ele>
        <time>2022-11-02T14:09:34.000Z</time>
      </trkpt>
      <trkpt lat="43.58872" lon="6.10158">
        <ele>476.1</ele>
        <time>2022-11-02T14:09:38.000Z</time>
      </trkpt>
      <trkpt lat="43.58872" lon="6.10158">
        <ele>476.1</ele>
        <time>2022-11-02T14:09:40.000Z</time>
      </trkpt>
      <trkpt lat="43.58873" lon="6.10158">
        <ele>476.1</ele>
        <time>2022-11-02T14:09:42.000Z</time>
      </trkpt>
      <trkpt lat="43.5887" lon="6.10156">
        <ele>476.2</ele>
        <time>2022-11-02T14:09:52.000Z</time>
      </trkpt>
      <trkpt lat="43.5887" lon="6.10156">
        <ele>475.9</ele>
        <time>2022-11-02T14:09:55.000Z</time>
      </trkpt>
      <trkpt lat="43.58871" lon="6.10159">
        <ele>476.7</ele>
        <time>2022-11-02T14:10:04.000Z</time>
      </trkpt>
      <trkpt lat="43.58871" lon="6.10159">
        <ele>476.6</ele>
        <time>2022-11-02T14:10:11.000Z</time>
      </trkpt>
      <trkpt lat="43.5888" lon="6.10158">
        <ele>476.4</ele>
        <time>2022-11-02T14:10:28.000Z</time>
      </trkpt>
      <trkpt lat="43.5888" lon="6.10158">
        <ele>476.3</ele>
        <time>2022-11-02T14:10:29.000Z</time>
      </trkpt>
      <trkpt lat="43.5888" lon="6.10159">
        <ele>476.3</ele>
        <time>2022-11-02T14:10:30.000Z</time>
      </trkpt>
      <trkpt lat="43.58877" lon="6.1016">
        <ele>475.9</ele>
        <time>2022-11-02T14:10:37.000Z</time>
      </trkpt>
      <trkpt lat="43.58878" lon="6.1016">
        <ele>475.8</ele>
        <time>2022-11-02T14:10:39.000Z</time>
      </trkpt>
      <trkpt lat="43.58878" lon="6.10165">
        <ele>476.2</ele>
        <time>2022-11-02T14:10:48.000Z</time>
      </trkpt>
      <trkpt lat="43.58878" lon="6.10164">
        <ele>476</ele>
        <time>2022-11-02T14:10:50.000Z</time>
      </trkpt>
      <trkpt lat="43.58875" lon="6.10165">
        <ele>476</ele>
        <time>2022-11-02T14:11:09.000Z</time>
      </trkpt>
      <trkpt lat="43.58875" lon="6.10165">
        <ele>476.1</ele>
        <time>2022-11-02T14:11:13.000Z</time>
      </trkpt>
      <trkpt lat="43.58875" lon="6.10165">
        <ele>476.1</ele>
        <time>2022-11-02T14:11:14.000Z</time>
      </trkpt>
      <trkpt lat="43.58875" lon="6.10165">
        <ele>476.3</ele>
        <time>2022-11-02T14:11:16.000Z</time>
      </trkpt>
      <trkpt lat="43.58873" lon="6.10158">
        <ele>476.5</ele>
        <time>2022-11-02T14:11:24.000Z</time>
      </trkpt>
      <trkpt lat="43.58873" lon="6.10159">
        <ele>476.6</ele>
        <time>2022-11-02T14:11:25.000Z</time>
      </trkpt>
      <trkpt lat="43.58876" lon="6.10162">
        <ele>476.1</ele>
        <time>2022-11-02T14:11:33.000Z</time>
      </trkpt>
      <trkpt lat="43.58877" lon="6.10162">
        <ele>476</ele>
        <time>2022-11-02T14:11:36.000Z</time>
      </trkpt>
      <trkpt lat="43.58877" lon="6.10161">
        <ele>476.3</ele>
        <time>2022-11-02T14:11:41.000Z</time>
      </trkpt>
      <trkpt lat="43.58877" lon="6.10161">
        <ele>475.9</ele>
        <time>2022-11-02T14:11:43.000Z</time>
      </trkpt>
      <trkpt lat="43.58877" lon="6.10166">
        <ele>475.6</ele>
        <time>2022-11-02T14:11:58.000Z</time>
      </trkpt>
      <trkpt lat="43.58877" lon="6.10166">
        <ele>475.6</ele>
        <time>2022-11-02T14:12:00.000Z</time>
      </trkpt>
      <trkpt lat="43.58878" lon="6.10164">
        <ele>476</ele>
        <time>2022-11-02T14:12:06.000Z</time>
      </trkpt>
      <trkpt lat="43.58879" lon="6.10164">
        <ele>476</ele>
        <time>2022-11-02T14:12:09.000Z</time>
      </trkpt>
      <trkpt lat="43.58879" lon="6.10164">
        <ele>475.9</ele>
        <time>2022-11-02T14:12:10.000Z</time>
      </trkpt>
      <trkpt lat="43.58879" lon="6.10164">
        <ele>475.9</ele>
        <time>2022-11-02T14:12:32.000Z</time>
      </trkpt>
      <trkpt lat="43.58879" lon="6.10176">
        <ele>476.6</ele>
        <time>2022-11-02T14:12:49.000Z</time>
      </trkpt>
      <trkpt lat="43.58877" lon="6.10189">
        <ele>478.1</ele>
        <time>2022-11-02T14:13:02.000Z</time>
      </trkpt>
      <trkpt lat="43.58878" lon="6.10201">
        <ele>479.9</ele>
        <time>2022-11-02T14:13:16.000Z</time>
      </trkpt>
      <trkpt lat="43.5888" lon="6.10214">
        <ele>481.7</ele>
        <time>2022-11-02T14:13:29.000Z</time>
      </trkpt>
      <trkpt lat="43.58879" lon="6.10216">
        <ele>482.2</ele>
        <time>2022-11-02T14:13:32.000Z</time>
      </trkpt>
      <trkpt lat="43.58879" lon="6.10216">
        <ele>482.2</ele>
        <time>2022-11-02T14:13:33.000Z</time>
      </trkpt>
      <trkpt lat="43.58875" lon="6.10227">
        <ele>484.5</ele>
        <time>2022-11-02T14:13:54.000Z</time>
      </trkpt>
      <trkpt lat="43.58873" lon="6.1024">
        <ele>486.3</ele>
        <time>2022-11-02T14:14:06.000Z</time>
      </trkpt>
      <trkpt lat="43.58872" lon="6.10253">
        <ele>487.9</ele>
        <time>2022-11-02T14:14:22.000Z</time>
      </trkpt>
      <trkpt lat="43.58868" lon="6.10264">
        <ele>490</ele>
        <time>2022-11-02T14:14:40.000Z</time>
      </trkpt>
      <trkpt lat="43.58867" lon="6.10277">
        <ele>492.4</ele>
        <time>2022-11-02T14:14:56.000Z</time>
      </trkpt>
      <trkpt lat="43.58864" lon="6.10284">
        <ele>494</ele>
        <time>2022-11-02T14:15:08.000Z</time>
      </trkpt>
      <trkpt lat="43.58864" lon="6.10285">
        <ele>494.1</ele>
        <time>2022-11-02T14:15:09.000Z</time>
      </trkpt>
      <trkpt lat="43.5886" lon="6.10297">
        <ele>496.5</ele>
        <time>2022-11-02T14:15:27.000Z</time>
      </trkpt>
      <trkpt lat="43.58855" lon="6.103">
        <ele>499</ele>
        <time>2022-11-02T14:15:45.000Z</time>
      </trkpt>
      <trkpt lat="43.58855" lon="6.103">
        <ele>499.1</ele>
        <time>2022-11-02T14:15:46.000Z</time>
      </trkpt>
      <trkpt lat="43.58848" lon="6.10307">
        <ele>502.2</ele>
        <time>2022-11-02T14:16:07.000Z</time>
      </trkpt>
      <trkpt lat="43.5884" lon="6.10314">
        <ele>504.3</ele>
        <time>2022-11-02T14:16:25.000Z</time>
      </trkpt>
      <trkpt lat="43.58839" lon="6.10314">
        <ele>504.7</ele>
        <time>2022-11-02T14:16:29.000Z</time>
      </trkpt>
      <trkpt lat="43.58838" lon="6.10314">
        <ele>505.1</ele>
        <time>2022-11-02T14:16:32.000Z</time>
      </trkpt>
      <trkpt lat="43.58838" lon="6.10314">
        <ele>505.1</ele>
        <time>2022-11-02T14:16:33.000Z</time>
      </trkpt>
      <trkpt lat="43.58838" lon="6.10314">
        <ele>505.3</ele>
        <time>2022-11-02T14:16:34.000Z</time>
      </trkpt>
      <trkpt lat="43.58829" lon="6.10316">
        <ele>508.6</ele>
        <time>2022-11-02T14:16:58.000Z</time>
      </trkpt>
      <trkpt lat="43.58828" lon="6.10316">
        <ele>509</ele>
        <time>2022-11-02T14:17:01.000Z</time>
      </trkpt>
      <trkpt lat="43.58829" lon="6.10316">
        <ele>508.8</ele>
        <time>2022-11-02T14:17:02.000Z</time>
      </trkpt>
      <trkpt lat="43.58831" lon="6.10315">
        <ele>508.5</ele>
        <time>2022-11-02T14:17:11.000Z</time>
      </trkpt>
      <trkpt lat="43.58831" lon="6.10314">
        <ele>508.6</ele>
        <time>2022-11-02T14:17:17.000Z</time>
      </trkpt>
      <trkpt lat="43.58831" lon="6.10313">
        <ele>508.4</ele>
        <time>2022-11-02T14:17:20.000Z</time>
      </trkpt>
      <trkpt lat="43.58831" lon="6.10313">
        <ele>508.4</ele>
        <time>2022-11-02T14:17:21.000Z</time>
      </trkpt>
      <trkpt lat="43.5884" lon="6.10313">
        <ele>504.8</ele>
        <time>2022-11-02T14:17:46.000Z</time>
      </trkpt>
      <trkpt lat="43.58848" lon="6.10306">
        <ele>502.3</ele>
        <time>2022-11-02T14:18:03.000Z</time>
      </trkpt>
      <trkpt lat="43.58854" lon="6.10303">
        <ele>500.5</ele>
        <time>2022-11-02T14:18:17.000Z</time>
      </trkpt>
      <trkpt lat="43.58854" lon="6.10303">
        <ele>500.4</ele>
        <time>2022-11-02T14:18:22.000Z</time>
      </trkpt>
      <trkpt lat="43.58854" lon="6.10302">
        <ele>500.4</ele>
        <time>2022-11-02T14:18:24.000Z</time>
      </trkpt>
      <trkpt lat="43.58854" lon="6.10302">
        <ele>500.1</ele>
        <time>2022-11-02T14:18:28.000Z</time>
      </trkpt>
      <trkpt lat="43.58855" lon="6.103">
        <ele>499.5</ele>
        <time>2022-11-02T14:18:38.000Z</time>
      </trkpt>
      <trkpt lat="43.58855" lon="6.103">
        <ele>499.2</ele>
        <time>2022-11-02T14:18:40.000Z</time>
      </trkpt>
      <trkpt lat="43.58856" lon="6.10299">
        <ele>498.6</ele>
        <time>2022-11-02T14:18:43.000Z</time>
      </trkpt>
      <trkpt lat="43.58856" lon="6.10299">
        <ele>498.6</ele>
        <time>2022-11-02T14:18:44.000Z</time>
      </trkpt>
      <trkpt lat="43.58863" lon="6.10308">
        <ele>495.8</ele>
        <time>2022-11-02T14:18:58.000Z</time>
      </trkpt>
      <trkpt lat="43.58863" lon="6.10321">
        <ele>494.9</ele>
        <time>2022-11-02T14:19:09.000Z</time>
      </trkpt>
      <trkpt lat="43.58865" lon="6.10334">
        <ele>493.4</ele>
        <time>2022-11-02T14:19:21.000Z</time>
      </trkpt>
      <trkpt lat="43.58867" lon="6.10347">
        <ele>491.1</ele>
        <time>2022-11-02T14:19:35.000Z</time>
      </trkpt>
      <trkpt lat="43.58866" lon="6.10359">
        <ele>489.8</ele>
        <time>2022-11-02T14:19:47.000Z</time>
      </trkpt>
      <trkpt lat="43.58868" lon="6.10372">
        <ele>488.7</ele>
        <time>2022-11-02T14:19:58.000Z</time>
      </trkpt>
      <trkpt lat="43.58871" lon="6.10384">
        <ele>486.8</ele>
        <time>2022-11-02T14:20:10.000Z</time>
      </trkpt>
      <trkpt lat="43.58877" lon="6.10395">
        <ele>484.7</ele>
        <time>2022-11-02T14:20:23.000Z</time>
      </trkpt>
      <trkpt lat="43.5888" lon="6.10407">
        <ele>483.4</ele>
        <time>2022-11-02T14:20:36.000Z</time>
      </trkpt>
      <trkpt lat="43.58888" lon="6.10415">
        <ele>481.5</ele>
        <time>2022-11-02T14:20:48.000Z</time>
      </trkpt>
      <trkpt lat="43.58894" lon="6.10426">
        <ele>480.3</ele>
        <time>2022-11-02T14:21:01.000Z</time>
      </trkpt>
      <trkpt lat="43.589" lon="6.10436">
        <ele>478.8</ele>
        <time>2022-11-02T14:21:14.000Z</time>
      </trkpt>
      <trkpt lat="43.58906" lon="6.10446">
        <ele>478</ele>
        <time>2022-11-02T14:21:28.000Z</time>
      </trkpt>
      <trkpt lat="43.58913" lon="6.10453">
        <ele>476.7</ele>
        <time>2022-11-02T14:21:40.000Z</time>
      </trkpt>
      <trkpt lat="43.58915" lon="6.10441">
        <ele>473.5</ele>
        <time>2022-11-02T14:22:09.000Z</time>
      </trkpt>
      <trkpt lat="43.58915" lon="6.10427">
        <ele>471</ele>
        <time>2022-11-02T14:22:23.000Z</time>
      </trkpt>
      <trkpt lat="43.58917" lon="6.10426">
        <ele>470.1</ele>
        <time>2022-11-02T14:22:28.000Z</time>
      </trkpt>
      <trkpt lat="43.58917" lon="6.10427">
        <ele>470.1</ele>
        <time>2022-11-02T14:22:38.000Z</time>
      </trkpt>
      <trkpt lat="43.58919" lon="6.10428">
        <ele>469.5</ele>
        <time>2022-11-02T14:22:45.000Z</time>
      </trkpt>
      <trkpt lat="43.58919" lon="6.10427">
        <ele>469.8</ele>
        <time>2022-11-02T14:22:59.000Z</time>
      </trkpt>
      <trkpt lat="43.58919" lon="6.10425">
        <ele>469.9</ele>
        <time>2022-11-02T14:23:05.000Z</time>
      </trkpt>
      <trkpt lat="43.58919" lon="6.10425">
        <ele>470</ele>
        <time>2022-11-02T14:23:06.000Z</time>
      </trkpt>
      <trkpt lat="43.58919" lon="6.10425">
        <ele>470</ele>
        <time>2022-11-02T14:23:07.000Z</time>
      </trkpt>
      <trkpt lat="43.58919" lon="6.10425">
        <ele>470</ele>
        <time>2022-11-02T14:23:08.000Z</time>
      </trkpt>
      <trkpt lat="43.58918" lon="6.10424">
        <ele>470</ele>
        <time>2022-11-02T14:23:10.000Z</time>
      </trkpt>
      <trkpt lat="43.58918" lon="6.10424">
        <ele>470</ele>
        <time>2022-11-02T14:23:11.000Z</time>
      </trkpt>
      <trkpt lat="43.58918" lon="6.10424">
        <ele>469.9</ele>
        <time>2022-11-02T14:23:12.000Z</time>
      </trkpt>
      <trkpt lat="43.58918" lon="6.10424">
        <ele>469.7</ele>
        <time>2022-11-02T14:23:17.000Z</time>
      </trkpt>
      <trkpt lat="43.58917" lon="6.10424">
        <ele>469.8</ele>
        <time>2022-11-02T14:23:19.000Z</time>
      </trkpt>
      <trkpt lat="43.58917" lon="6.10424">
        <ele>469.9</ele>
        <time>2022-11-02T14:23:22.000Z</time>
      </trkpt>
      <trkpt lat="43.58917" lon="6.10424">
        <ele>470</ele>
        <time>2022-11-02T14:23:23.000Z</time>
      </trkpt>
      <trkpt lat="43.58917" lon="6.10424">
        <ele>470</ele>
        <time>2022-11-02T14:23:24.000Z</time>
      </trkpt>
      <trkpt lat="43.58917" lon="6.10425">
        <ele>469.7</ele>
        <time>2022-11-02T14:23:27.000Z</time>
      </trkpt>
      <trkpt lat="43.58917" lon="6.10426">
        <ele>469.8</ele>
        <time>2022-11-02T14:23:46.000Z</time>
      </trkpt>
      <trkpt lat="43.58917" lon="6.10427">
        <ele>469.9</ele>
        <time>2022-11-02T14:23:51.000Z</time>
      </trkpt>
      <trkpt lat="43.58917" lon="6.10427">
        <ele>469.8</ele>
        <time>2022-11-02T14:23:54.000Z</time>
      </trkpt>
      <trkpt lat="43.58917" lon="6.10428">
        <ele>469.7</ele>
        <time>2022-11-02T14:23:57.000Z</time>
      </trkpt>
      <trkpt lat="43.58918" lon="6.10428">
        <ele>469.7</ele>
        <time>2022-11-02T14:23:58.000Z</time>
      </trkpt>
      <trkpt lat="43.58918" lon="6.10429">
        <ele>469.6</ele>
        <time>2022-11-02T14:24:00.000Z</time>
      </trkpt>
      <trkpt lat="43.58918" lon="6.10429">
        <ele>469.9</ele>
        <time>2022-11-02T14:24:16.000Z</time>
      </trkpt>
      <trkpt lat="43.58918" lon="6.10429">
        <ele>469.7</ele>
        <time>2022-11-02T14:24:20.000Z</time>
      </trkpt>
      <trkpt lat="43.58918" lon="6.10429">
        <ele>469.7</ele>
        <time>2022-11-02T14:24:22.000Z</time>
      </trkpt>
      <trkpt lat="43.58918" lon="6.10429">
        <ele>469.8</ele>
        <time>2022-11-02T14:24:23.000Z</time>
      </trkpt>
      <trkpt lat="43.58918" lon="6.10429">
        <ele>470</ele>
        <time>2022-11-02T14:24:26.000Z</time>
      </trkpt>
      <trkpt lat="43.58926" lon="6.10435">
        <ele>469</ele>
        <time>2022-11-02T14:24:37.000Z</time>
      </trkpt>
      <trkpt lat="43.58928" lon="6.10439">
        <ele>468.8</ele>
        <time>2022-11-02T14:24:42.000Z</time>
      </trkpt>
      <trkpt lat="43.58928" lon="6.10439">
        <ele>468.8</ele>
        <time>2022-11-02T14:24:43.000Z</time>
      </trkpt>
      <trkpt lat="43.5892" lon="6.10431">
        <ele>469.3</ele>
        <time>2022-11-02T14:24:54.000Z</time>
      </trkpt>
      <trkpt lat="43.58918" lon="6.10429">
        <ele>469.7</ele>
        <time>2022-11-02T14:24:58.000Z</time>
      </trkpt>
      <trkpt lat="43.58918" lon="6.10429">
        <ele>469.6</ele>
        <time>2022-11-02T14:25:01.000Z</time>
      </trkpt>
      <trkpt lat="43.58915" lon="6.10441">
        <ele>473.5</ele>
        <time>2022-11-02T14:25:24.000Z</time>
      </trkpt>
      <trkpt lat="43.58918" lon="6.10449">
        <ele>474.6</ele>
        <time>2022-11-02T14:25:40.000Z</time>
      </trkpt>
      <trkpt lat="43.58918" lon="6.1045">
        <ele>474.6</ele>
        <time>2022-11-02T14:25:43.000Z</time>
      </trkpt>
      <trkpt lat="43.58909" lon="6.10447">
        <ele>477.8</ele>
        <time>2022-11-02T14:26:07.000Z</time>
      </trkpt>
      <trkpt lat="43.58903" lon="6.10437">
        <ele>478.8</ele>
        <time>2022-11-02T14:26:20.000Z</time>
      </trkpt>
      <trkpt lat="43.58901" lon="6.10425">
        <ele>478.2</ele>
        <time>2022-11-02T14:26:33.000Z</time>
      </trkpt>
      <trkpt lat="43.589" lon="6.10417">
        <ele>477.4</ele>
        <time>2022-11-02T14:26:45.000Z</time>
      </trkpt>
      <trkpt lat="43.58899" lon="6.10417">
        <ele>477.1</ele>
        <time>2022-11-02T14:26:47.000Z</time>
      </trkpt>
      <trkpt lat="43.58901" lon="6.10418">
        <ele>477</ele>
        <time>2022-11-02T14:26:50.000Z</time>
      </trkpt>
      <trkpt lat="43.58901" lon="6.10418">
        <ele>476.9</ele>
        <time>2022-11-02T14:26:52.000Z</time>
      </trkpt>
      <trkpt lat="43.58901" lon="6.10405">
        <ele>475.4</ele>
        <time>2022-11-02T14:27:04.000Z</time>
      </trkpt>
      <trkpt lat="43.58902" lon="6.10391">
        <ele>473.8</ele>
        <time>2022-11-02T14:27:14.000Z</time>
      </trkpt>
      <trkpt lat="43.58904" lon="6.10379">
        <ele>471.9</ele>
        <time>2022-11-02T14:27:26.000Z</time>
      </trkpt>
      <trkpt lat="43.58904" lon="6.10379">
        <ele>471.8</ele>
        <time>2022-11-02T14:27:27.000Z</time>
      </trkpt>
      <trkpt lat="43.58904" lon="6.10378">
        <ele>471.7</ele>
        <time>2022-11-02T14:27:28.000Z</time>
      </trkpt>
      <trkpt lat="43.58904" lon="6.10371">
        <ele>469</ele>
        <time>2022-11-02T14:27:41.000Z</time>
      </trkpt>
      <trkpt lat="43.58904" lon="6.10371">
        <ele>468.5</ele>
        <time>2022-11-02T14:27:43.000Z</time>
      </trkpt>
      <trkpt lat="43.58913" lon="6.10378">
        <ele>465.5</ele>
        <time>2022-11-02T14:28:06.000Z</time>
      </trkpt>
      <trkpt lat="43.58922" lon="6.1038">
        <ele>463.2</ele>
        <time>2022-11-02T14:28:18.000Z</time>
      </trkpt>
      <trkpt lat="43.58932" lon="6.1038">
        <ele>461.3</ele>
        <time>2022-11-02T14:28:29.000Z</time>
      </trkpt>
      <trkpt lat="43.58941" lon="6.10382">
        <ele>459.1</ele>
        <time>2022-11-02T14:28:42.000Z</time>
      </trkpt>
      <trkpt lat="43.58941" lon="6.10382">
        <ele>458.8</ele>
        <time>2022-11-02T14:28:43.000Z</time>
      </trkpt>
      <trkpt lat="43.58941" lon="6.10383">
        <ele>458.8</ele>
        <time>2022-11-02T14:28:44.000Z</time>
      </trkpt>
      <trkpt lat="43.5895" lon="6.10389">
        <ele>457.1</ele>
        <time>2022-11-02T14:28:58.000Z</time>
      </trkpt>
      <trkpt lat="43.58957" lon="6.10397">
        <ele>455.7</ele>
        <time>2022-11-02T14:29:08.000Z</time>
      </trkpt>
      <trkpt lat="43.58964" lon="6.10405">
        <ele>454.4</ele>
        <time>2022-11-02T14:29:22.000Z</time>
      </trkpt>
      <trkpt lat="43.58968" lon="6.10416">
        <ele>453.2</ele>
        <time>2022-11-02T14:29:30.000Z</time>
      </trkpt>
      <trkpt lat="43.58975" lon="6.10425">
        <ele>451.9</ele>
        <time>2022-11-02T14:29:41.000Z</time>
      </trkpt>
      <trkpt lat="43.58982" lon="6.10434">
        <ele>450.8</ele>
        <time>2022-11-02T14:29:50.000Z</time>
      </trkpt>
      <trkpt lat="43.58987" lon="6.10446">
        <ele>449.6</ele>
        <time>2022-11-02T14:30:00.000Z</time>
      </trkpt>
      <trkpt lat="43.58993" lon="6.10456">
        <ele>448.6</ele>
        <time>2022-11-02T14:30:09.000Z</time>
      </trkpt>
      <trkpt lat="43.58998" lon="6.10467">
        <ele>447.9</ele>
        <time>2022-11-02T14:30:18.000Z</time>
      </trkpt>
      <trkpt lat="43.58999" lon="6.10479">
        <ele>446.3</ele>
        <time>2022-11-02T14:30:27.000Z</time>
      </trkpt>
      <trkpt lat="43.59004" lon="6.10491">
        <ele>445.3</ele>
        <time>2022-11-02T14:30:38.000Z</time>
      </trkpt>
      <trkpt lat="43.59007" lon="6.10503">
        <ele>443.6</ele>
        <time>2022-11-02T14:30:49.000Z</time>
      </trkpt>
      <trkpt lat="43.59007" lon="6.10514">
        <ele>442.8</ele>
        <time>2022-11-02T14:31:00.000Z</time>
      </trkpt>
      <trkpt lat="43.59007" lon="6.10514">
        <ele>442.8</ele>
        <time>2022-11-02T14:31:01.000Z</time>
      </trkpt>
      <trkpt lat="43.59007" lon="6.10514">
        <ele>442.7</ele>
        <time>2022-11-02T14:31:02.000Z</time>
      </trkpt>
      <trkpt lat="43.59008" lon="6.10515">
        <ele>442.9</ele>
        <time>2022-11-02T14:31:04.000Z</time>
      </trkpt>
      <trkpt lat="43.59008" lon="6.10515">
        <ele>443.3</ele>
        <time>2022-11-02T14:31:07.000Z</time>
      </trkpt>
      <trkpt lat="43.59008" lon="6.10515">
        <ele>442.7</ele>
        <time>2022-11-02T14:31:09.000Z</time>
      </trkpt>
      <trkpt lat="43.59008" lon="6.10515">
        <ele>443.1</ele>
        <time>2022-11-02T14:31:10.000Z</time>
      </trkpt>
      <trkpt lat="43.59008" lon="6.10515">
        <ele>443.3</ele>
        <time>2022-11-02T14:31:14.000Z</time>
      </trkpt>
      <trkpt lat="43.59008" lon="6.10515">
        <ele>443.3</ele>
        <time>2022-11-02T14:31:19.000Z</time>
      </trkpt>
      <trkpt lat="43.59008" lon="6.10515">
        <ele>443.1</ele>
        <time>2022-11-02T14:31:41.000Z</time>
      </trkpt>
      <trkpt lat="43.59008" lon="6.10515">
        <ele>443.1</ele>
        <time>2022-11-02T14:31:42.000Z</time>
      </trkpt>
      <trkpt lat="43.59008" lon="6.10515">
        <ele>443.1</ele>
        <time>2022-11-02T14:31:43.000Z</time>
      </trkpt>
      <trkpt lat="43.5901" lon="6.1052">
        <ele>442.9</ele>
        <time>2022-11-02T14:31:59.000Z</time>
      </trkpt>
      <trkpt lat="43.5901" lon="6.1052">
        <ele>443</ele>
        <time>2022-11-02T14:32:00.000Z</time>
      </trkpt>
      <trkpt lat="43.5901" lon="6.1052">
        <ele>443</ele>
        <time>2022-11-02T14:32:02.000Z</time>
      </trkpt>
      <trkpt lat="43.5901" lon="6.1052">
        <ele>443.1</ele>
        <time>2022-11-02T14:32:08.000Z</time>
      </trkpt>
      <trkpt lat="43.59004" lon="6.1053">
        <ele>442.3</ele>
        <time>2022-11-02T14:32:22.000Z</time>
      </trkpt>
      <trkpt lat="43.59005" lon="6.1054">
        <ele>442.1</ele>
        <time>2022-11-02T14:32:37.000Z</time>
      </trkpt>
      <trkpt lat="43.59005" lon="6.1054">
        <ele>442.2</ele>
        <time>2022-11-02T14:32:38.000Z</time>
      </trkpt>
      <trkpt lat="43.59001" lon="6.10551">
        <ele>441.2</ele>
        <time>2022-11-02T14:32:57.000Z</time>
      </trkpt>
      <trkpt lat="43.59" lon="6.10564">
        <ele>440.2</ele>
        <time>2022-11-02T14:33:09.000Z</time>
      </trkpt>
      <trkpt lat="43.58991" lon="6.10568">
        <ele>440.8</ele>
        <time>2022-11-02T14:33:29.000Z</time>
      </trkpt>
      <trkpt lat="43.58983" lon="6.10561">
        <ele>442.7</ele>
        <time>2022-11-02T14:33:42.000Z</time>
      </trkpt>
      <trkpt lat="43.58973" lon="6.1056">
        <ele>443.6</ele>
        <time>2022-11-02T14:33:52.000Z</time>
      </trkpt>
      <trkpt lat="43.58964" lon="6.10558">
        <ele>444.8</ele>
        <time>2022-11-02T14:34:01.000Z</time>
      </trkpt>
      <trkpt lat="43.58955" lon="6.10559">
        <ele>446.1</ele>
        <time>2022-11-02T14:34:13.000Z</time>
      </trkpt>
      <trkpt lat="43.58946" lon="6.10554">
        <ele>447.1</ele>
        <time>2022-11-02T14:34:22.000Z</time>
      </trkpt>
      <trkpt lat="43.58936" lon="6.10553">
        <ele>447.7</ele>
        <time>2022-11-02T14:34:31.000Z</time>
      </trkpt>
      <trkpt lat="43.58927" lon="6.1055">
        <ele>448.3</ele>
        <time>2022-11-02T14:34:40.000Z</time>
      </trkpt>
      <trkpt lat="43.58918" lon="6.10551">
        <ele>449.1</ele>
        <time>2022-11-02T14:34:49.000Z</time>
      </trkpt>
      <trkpt lat="43.58916" lon="6.10552">
        <ele>449.6</ele>
        <time>2022-11-02T14:34:53.000Z</time>
      </trkpt>
      <trkpt lat="43.58916" lon="6.10552">
        <ele>449.5</ele>
        <time>2022-11-02T14:34:54.000Z</time>
      </trkpt>
      <trkpt lat="43.58907" lon="6.10555">
        <ele>448.7</ele>
        <time>2022-11-02T14:35:12.000Z</time>
      </trkpt>
      <trkpt lat="43.58897" lon="6.1056">
        <ele>448.7</ele>
        <time>2022-11-02T14:35:23.000Z</time>
      </trkpt>
      <trkpt lat="43.58888" lon="6.10564">
        <ele>448.8</ele>
        <time>2022-11-02T14:35:32.000Z</time>
      </trkpt>
      <trkpt lat="43.58879" lon="6.10569">
        <ele>449.2</ele>
        <time>2022-11-02T14:35:40.000Z</time>
      </trkpt>
      <trkpt lat="43.5887" lon="6.10569">
        <ele>449.3</ele>
        <time>2022-11-02T14:35:50.000Z</time>
      </trkpt>
      <trkpt lat="43.58861" lon="6.10566">
        <ele>449.5</ele>
        <time>2022-11-02T14:36:00.000Z</time>
      </trkpt>
      <trkpt lat="43.58851" lon="6.10567">
        <ele>449.5</ele>
        <time>2022-11-02T14:36:09.000Z</time>
      </trkpt>
      <trkpt lat="43.58842" lon="6.10569">
        <ele>449.7</ele>
        <time>2022-11-02T14:36:16.000Z</time>
      </trkpt>
      <trkpt lat="43.58832" lon="6.1057">
        <ele>450</ele>
        <time>2022-11-02T14:36:26.000Z</time>
      </trkpt>
      <trkpt lat="43.58822" lon="6.10571">
        <ele>450.2</ele>
        <time>2022-11-02T14:36:34.000Z</time>
      </trkpt>
      <trkpt lat="43.58813" lon="6.10573">
        <ele>450.7</ele>
        <time>2022-11-02T14:36:43.000Z</time>
      </trkpt>
      <trkpt lat="43.58806" lon="6.10581">
        <ele>450.6</ele>
        <time>2022-11-02T14:36:51.000Z</time>
      </trkpt>
      <trkpt lat="43.58798" lon="6.10587">
        <ele>450.6</ele>
        <time>2022-11-02T14:36:58.000Z</time>
      </trkpt>
      <trkpt lat="43.5879" lon="6.10595">
        <ele>451.5</ele>
        <time>2022-11-02T14:37:08.000Z</time>
      </trkpt>
      <trkpt lat="43.58782" lon="6.10602">
        <ele>451.9</ele>
        <time>2022-11-02T14:37:16.000Z</time>
      </trkpt>
      <trkpt lat="43.58773" lon="6.10606">
        <ele>453.8</ele>
        <time>2022-11-02T14:37:31.000Z</time>
      </trkpt>
      <trkpt lat="43.58763" lon="6.10608">
        <ele>454.5</ele>
        <time>2022-11-02T14:37:40.000Z</time>
      </trkpt>
      <trkpt lat="43.58758" lon="6.10619">
        <ele>455.2</ele>
        <time>2022-11-02T14:37:50.000Z</time>
      </trkpt>
      <trkpt lat="43.58753" lon="6.1063">
        <ele>455.9</ele>
        <time>2022-11-02T14:37:58.000Z</time>
      </trkpt>
      <trkpt lat="43.58743" lon="6.10635">
        <ele>456.7</ele>
        <time>2022-11-02T14:38:08.000Z</time>
      </trkpt>
      <trkpt lat="43.58739" lon="6.10639">
        <ele>457.9</ele>
        <time>2022-11-02T14:38:17.000Z</time>
      </trkpt>
      <trkpt lat="43.58738" lon="6.10639">
        <ele>457.9</ele>
        <time>2022-11-02T14:38:18.000Z</time>
      </trkpt>
      <trkpt lat="43.58729" lon="6.10641">
        <ele>460</ele>
        <time>2022-11-02T14:38:30.000Z</time>
      </trkpt>
      <trkpt lat="43.5872" lon="6.10646">
        <ele>461.8</ele>
        <time>2022-11-02T14:38:44.000Z</time>
      </trkpt>
      <trkpt lat="43.58711" lon="6.10649">
        <ele>463.9</ele>
        <time>2022-11-02T14:38:57.000Z</time>
      </trkpt>
      <trkpt lat="43.58703" lon="6.10655">
        <ele>465.4</ele>
        <time>2022-11-02T14:39:07.000Z</time>
      </trkpt>
      <trkpt lat="43.58694" lon="6.10661">
        <ele>467.4</ele>
        <time>2022-11-02T14:39:20.000Z</time>
      </trkpt>
      <trkpt lat="43.58686" lon="6.10667">
        <ele>469.6</ele>
        <time>2022-11-02T14:39:38.000Z</time>
      </trkpt>
      <trkpt lat="43.58677" lon="6.1067">
        <ele>470.7</ele>
        <time>2022-11-02T14:39:48.000Z</time>
      </trkpt>
      <trkpt lat="43.58668" lon="6.10674">
        <ele>471.9</ele>
        <time>2022-11-02T14:40:00.000Z</time>
      </trkpt>
      <trkpt lat="43.58659" lon="6.10678">
        <ele>473</ele>
        <time>2022-11-02T14:40:12.000Z</time>
      </trkpt>
      <trkpt lat="43.5865" lon="6.10683">
        <ele>474.2</ele>
        <time>2022-11-02T14:40:29.000Z</time>
      </trkpt>
      <trkpt lat="43.58648" lon="6.1069">
        <ele>474.8</ele>
        <time>2022-11-02T14:40:40.000Z</time>
      </trkpt>
      <trkpt lat="43.58648" lon="6.1069">
        <ele>475.7</ele>
        <time>2022-11-02T14:40:46.000Z</time>
      </trkpt>
      <trkpt lat="43.58648" lon="6.1069">
        <ele>475.6</ele>
        <time>2022-11-02T14:40:50.000Z</time>
      </trkpt>
      <trkpt lat="43.58647" lon="6.1069">
        <ele>475.4</ele>
        <time>2022-11-02T14:40:51.000Z</time>
      </trkpt>
      <trkpt lat="43.58648" lon="6.10691">
        <ele>475.3</ele>
        <time>2022-11-02T14:40:59.000Z</time>
      </trkpt>
      <trkpt lat="43.58648" lon="6.10691">
        <ele>475.2</ele>
        <time>2022-11-02T14:41:01.000Z</time>
      </trkpt>
      <trkpt lat="43.58649" lon="6.1069">
        <ele>475.3</ele>
        <time>2022-11-02T14:41:04.000Z</time>
      </trkpt>
      <trkpt lat="43.58649" lon="6.10688">
        <ele>475.3</ele>
        <time>2022-11-02T14:41:10.000Z</time>
      </trkpt>
      <trkpt lat="43.58649" lon="6.10688">
        <ele>475.4</ele>
        <time>2022-11-02T14:41:12.000Z</time>
      </trkpt>
      <trkpt lat="43.58649" lon="6.10688">
        <ele>475.4</ele>
        <time>2022-11-02T14:41:15.000Z</time>
      </trkpt>
      <trkpt lat="43.58649" lon="6.10688">
        <ele>475.3</ele>
        <time>2022-11-02T14:41:16.000Z</time>
      </trkpt>
      <trkpt lat="43.58649" lon="6.10687">
        <ele>475.4</ele>
        <time>2022-11-02T14:41:27.000Z</time>
      </trkpt>
      <trkpt lat="43.58649" lon="6.10687">
        <ele>475.4</ele>
        <time>2022-11-02T14:41:29.000Z</time>
      </trkpt>
      <trkpt lat="43.58649" lon="6.10687">
        <ele>475.3</ele>
        <time>2022-11-02T14:41:37.000Z</time>
      </trkpt>
      <trkpt lat="43.58649" lon="6.10687">
        <ele>475.3</ele>
        <time>2022-11-02T14:41:38.000Z</time>
      </trkpt>
      <trkpt lat="43.58649" lon="6.10687">
        <ele>475.2</ele>
        <time>2022-11-02T14:41:40.000Z</time>
      </trkpt>
      <trkpt lat="43.58649" lon="6.10687">
        <ele>475.2</ele>
        <time>2022-11-02T14:41:41.000Z</time>
      </trkpt>
      <trkpt lat="43.58649" lon="6.10687">
        <ele>475.2</ele>
        <time>2022-11-02T14:41:43.000Z</time>
      </trkpt>
      <trkpt lat="43.58649" lon="6.10687">
        <ele>475.2</ele>
        <time>2022-11-02T14:41:44.000Z</time>
      </trkpt>
      <trkpt lat="43.58649" lon="6.10687">
        <ele>475.4</ele>
        <time>2022-11-02T14:42:02.000Z</time>
      </trkpt>
      <trkpt lat="43.58649" lon="6.10687">
        <ele>475.5</ele>
        <time>2022-11-02T14:42:03.000Z</time>
      </trkpt>
      <trkpt lat="43.58648" lon="6.10687">
        <ele>475.5</ele>
        <time>2022-11-02T14:42:04.000Z</time>
      </trkpt>
      <trkpt lat="43.58648" lon="6.10686">
        <ele>475.1</ele>
        <time>2022-11-02T14:42:08.000Z</time>
      </trkpt>
      <trkpt lat="43.58648" lon="6.10685">
        <ele>475.3</ele>
        <time>2022-11-02T14:42:10.000Z</time>
      </trkpt>
      <trkpt lat="43.58647" lon="6.10687">
        <ele>475.3</ele>
        <time>2022-11-02T14:42:16.000Z</time>
      </trkpt>
      <trkpt lat="43.58647" lon="6.10687">
        <ele>475.4</ele>
        <time>2022-11-02T14:42:25.000Z</time>
      </trkpt>
      <trkpt lat="43.58647" lon="6.10688">
        <ele>475.3</ele>
        <time>2022-11-02T14:42:26.000Z</time>
      </trkpt>
      <trkpt lat="43.58647" lon="6.10688">
        <ele>475.2</ele>
        <time>2022-11-02T14:42:28.000Z</time>
      </trkpt>
      <trkpt lat="43.58638" lon="6.10685">
        <ele>476.4</ele>
        <time>2022-11-02T14:42:44.000Z</time>
      </trkpt>
      <trkpt lat="43.58635" lon="6.10685">
        <ele>477.8</ele>
        <time>2022-11-02T14:42:50.000Z</time>
      </trkpt>
      <trkpt lat="43.58635" lon="6.10686">
        <ele>477.8</ele>
        <time>2022-11-02T14:42:51.000Z</time>
      </trkpt>
      <trkpt lat="43.58635" lon="6.10686">
        <ele>477.9</ele>
        <time>2022-11-02T14:42:53.000Z</time>
      </trkpt>
      <trkpt lat="43.58635" lon="6.10686">
        <ele>477.8</ele>
        <time>2022-11-02T14:42:57.000Z</time>
      </trkpt>
      <trkpt lat="43.58625" lon="6.10693">
        <ele>476.8</ele>
        <time>2022-11-02T14:43:12.000Z</time>
      </trkpt>
      <trkpt lat="43.58621" lon="6.10705">
        <ele>476.8</ele>
        <time>2022-11-02T14:43:22.000Z</time>
      </trkpt>
      <trkpt lat="43.58613" lon="6.10711">
        <ele>477.5</ele>
        <time>2022-11-02T14:43:34.000Z</time>
      </trkpt>
      <trkpt lat="43.58611" lon="6.10712">
        <ele>477.8</ele>
        <time>2022-11-02T14:43:38.000Z</time>
      </trkpt>
      <trkpt lat="43.58611" lon="6.10712">
        <ele>477.9</ele>
        <time>2022-11-02T14:43:39.000Z</time>
      </trkpt>
      <trkpt lat="43.58602" lon="6.10717">
        <ele>479.2</ele>
        <time>2022-11-02T14:43:49.000Z</time>
      </trkpt>
      <trkpt lat="43.58596" lon="6.10727">
        <ele>480.5</ele>
        <time>2022-11-02T14:44:01.000Z</time>
      </trkpt>
      <trkpt lat="43.5859" lon="6.10738">
        <ele>481.6</ele>
        <time>2022-11-02T14:44:13.000Z</time>
      </trkpt>
      <trkpt lat="43.58582" lon="6.10744">
        <ele>482.5</ele>
        <time>2022-11-02T14:44:22.000Z</time>
      </trkpt>
      <trkpt lat="43.58575" lon="6.10752">
        <ele>483.7</ele>
        <time>2022-11-02T14:44:34.000Z</time>
      </trkpt>
      <trkpt lat="43.58571" lon="6.10764">
        <ele>483.8</ele>
        <time>2022-11-02T14:44:41.000Z</time>
      </trkpt>
      <trkpt lat="43.58571" lon="6.10768">
        <ele>484.1</ele>
        <time>2022-11-02T14:44:45.000Z</time>
      </trkpt>
      <trkpt lat="43.58571" lon="6.10768">
        <ele>484</ele>
        <time>2022-11-02T14:44:46.000Z</time>
      </trkpt>
      <trkpt lat="43.58564" lon="6.10777">
        <ele>486.2</ele>
        <time>2022-11-02T14:45:02.000Z</time>
      </trkpt>
      <trkpt lat="43.58558" lon="6.10787">
        <ele>487.9</ele>
        <time>2022-11-02T14:45:14.000Z</time>
      </trkpt>
      <trkpt lat="43.5856" lon="6.10799">
        <ele>489.4</ele>
        <time>2022-11-02T14:45:24.000Z</time>
      </trkpt>
      <trkpt lat="43.58554" lon="6.10809">
        <ele>491.3</ele>
        <time>2022-11-02T14:45:41.000Z</time>
      </trkpt>
      <trkpt lat="43.58551" lon="6.10822">
        <ele>493.7</ele>
        <time>2022-11-02T14:45:58.000Z</time>
      </trkpt>
      <trkpt lat="43.58551" lon="6.10835">
        <ele>494.6</ele>
        <time>2022-11-02T14:46:07.000Z</time>
      </trkpt>
      <trkpt lat="43.58551" lon="6.10839">
        <ele>495</ele>
        <time>2022-11-02T14:46:11.000Z</time>
      </trkpt>
      <trkpt lat="43.58551" lon="6.1084">
        <ele>495.3</ele>
        <time>2022-11-02T14:46:12.000Z</time>
      </trkpt>
      <trkpt lat="43.58546" lon="6.1085">
        <ele>496.6</ele>
        <time>2022-11-02T14:46:27.000Z</time>
      </trkpt>
      <trkpt lat="43.58542" lon="6.10862">
        <ele>497.3</ele>
        <time>2022-11-02T14:46:35.000Z</time>
      </trkpt>
      <trkpt lat="43.58537" lon="6.10873">
        <ele>497.7</ele>
        <time>2022-11-02T14:46:44.000Z</time>
      </trkpt>
      <trkpt lat="43.58531" lon="6.10882">
        <ele>498.1</ele>
        <time>2022-11-02T14:46:56.000Z</time>
      </trkpt>
      <trkpt lat="43.58522" lon="6.10888">
        <ele>497.8</ele>
        <time>2022-11-02T14:47:05.000Z</time>
      </trkpt>
      <trkpt lat="43.58515" lon="6.10897">
        <ele>498.2</ele>
        <time>2022-11-02T14:47:15.000Z</time>
      </trkpt>
      <trkpt lat="43.58506" lon="6.10902">
        <ele>498</ele>
        <time>2022-11-02T14:47:28.000Z</time>
      </trkpt>
      <trkpt lat="43.58499" lon="6.10912">
        <ele>497.7</ele>
        <time>2022-11-02T14:47:35.000Z</time>
      </trkpt>
      <trkpt lat="43.58491" lon="6.10918">
        <ele>497.3</ele>
        <time>2022-11-02T14:47:46.000Z</time>
      </trkpt>
      <trkpt lat="43.58482" lon="6.10921">
        <ele>497.1</ele>
        <time>2022-11-02T14:47:54.000Z</time>
      </trkpt>
      <trkpt lat="43.58472" lon="6.10925">
        <ele>497</ele>
        <time>2022-11-02T14:48:04.000Z</time>
      </trkpt>
      <trkpt lat="43.58463" lon="6.10932">
        <ele>496.4</ele>
        <time>2022-11-02T14:48:11.000Z</time>
      </trkpt>
      <trkpt lat="43.58456" lon="6.1094">
        <ele>496.1</ele>
        <time>2022-11-02T14:48:21.000Z</time>
      </trkpt>
      <trkpt lat="43.58447" lon="6.10942">
        <ele>496</ele>
        <time>2022-11-02T14:48:31.000Z</time>
      </trkpt>
      <trkpt lat="43.58439" lon="6.10948">
        <ele>496</ele>
        <time>2022-11-02T14:48:40.000Z</time>
      </trkpt>
      <trkpt lat="43.5843" lon="6.1095">
        <ele>496</ele>
        <time>2022-11-02T14:48:51.000Z</time>
      </trkpt>
      <trkpt lat="43.58422" lon="6.10955">
        <ele>495.8</ele>
        <time>2022-11-02T14:48:59.000Z</time>
      </trkpt>
      <trkpt lat="43.58412" lon="6.10958">
        <ele>495.9</ele>
        <time>2022-11-02T14:49:07.000Z</time>
      </trkpt>
      <trkpt lat="43.58406" lon="6.10958">
        <ele>496</ele>
        <time>2022-11-02T14:49:14.000Z</time>
      </trkpt>
      <trkpt lat="43.58405" lon="6.10958">
        <ele>495.8</ele>
        <time>2022-11-02T14:49:15.000Z</time>
      </trkpt>
      <trkpt lat="43.58405" lon="6.10958">
        <ele>495.7</ele>
        <time>2022-11-02T14:49:16.000Z</time>
      </trkpt>
      <trkpt lat="43.58405" lon="6.10958">
        <ele>495.5</ele>
        <time>2022-11-02T14:49:23.000Z</time>
      </trkpt>
      <trkpt lat="43.58404" lon="6.10959">
        <ele>495.5</ele>
        <time>2022-11-02T14:49:27.000Z</time>
      </trkpt>
      <trkpt lat="43.58403" lon="6.10959">
        <ele>495.7</ele>
        <time>2022-11-02T14:49:55.000Z</time>
      </trkpt>
      <trkpt lat="43.58403" lon="6.10959">
        <ele>495.6</ele>
        <time>2022-11-02T14:49:58.000Z</time>
      </trkpt>
      <trkpt lat="43.58403" lon="6.10959">
        <ele>495.5</ele>
        <time>2022-11-02T14:50:05.000Z</time>
      </trkpt>
      <trkpt lat="43.58403" lon="6.10959">
        <ele>495.6</ele>
        <time>2022-11-02T14:50:06.000Z</time>
      </trkpt>
      <trkpt lat="43.58403" lon="6.10959">
        <ele>495.8</ele>
        <time>2022-11-02T14:50:27.000Z</time>
      </trkpt>
      <trkpt lat="43.58403" lon="6.10959">
        <ele>495.7</ele>
        <time>2022-11-02T14:50:29.000Z</time>
      </trkpt>
      <trkpt lat="43.58403" lon="6.10959">
        <ele>495.6</ele>
        <time>2022-11-02T14:50:30.000Z</time>
      </trkpt>
      <trkpt lat="43.58403" lon="6.10959">
        <ele>495.5</ele>
        <time>2022-11-02T14:50:31.000Z</time>
      </trkpt>
      <trkpt lat="43.58403" lon="6.10959">
        <ele>495.7</ele>
        <time>2022-11-02T14:50:42.000Z</time>
      </trkpt>
      <trkpt lat="43.58403" lon="6.10959">
        <ele>495.6</ele>
        <time>2022-11-02T14:50:45.000Z</time>
      </trkpt>
      <trkpt lat="43.58403" lon="6.10958">
        <ele>495.5</ele>
        <time>2022-11-02T14:50:46.000Z</time>
      </trkpt>
      <trkpt lat="43.58401" lon="6.10956">
        <ele>495.7</ele>
        <time>2022-11-02T14:50:50.000Z</time>
      </trkpt>
      <trkpt lat="43.58401" lon="6.10956">
        <ele>495.6</ele>
        <time>2022-11-02T14:50:52.000Z</time>
      </trkpt>
      <trkpt lat="43.58392" lon="6.10951">
        <ele>495.4</ele>
        <time>2022-11-02T14:51:01.000Z</time>
      </trkpt>
      <trkpt lat="43.58382" lon="6.10947">
        <ele>495.4</ele>
        <time>2022-11-02T14:51:10.000Z</time>
      </trkpt>
      <trkpt lat="43.58373" lon="6.10943">
        <ele>495.3</ele>
        <time>2022-11-02T14:51:20.000Z</time>
      </trkpt>
      <trkpt lat="43.58364" lon="6.10938">
        <ele>495</ele>
        <time>2022-11-02T14:51:31.000Z</time>
      </trkpt>
      <trkpt lat="43.58354" lon="6.10935">
        <ele>494.9</ele>
        <time>2022-11-02T14:51:38.000Z</time>
      </trkpt>
      <trkpt lat="43.58345" lon="6.1093">
        <ele>494.6</ele>
        <time>2022-11-02T14:51:47.000Z</time>
      </trkpt>
      <trkpt lat="43.58337" lon="6.10925">
        <ele>494.1</ele>
        <time>2022-11-02T14:51:55.000Z</time>
      </trkpt>
      <trkpt lat="43.58327" lon="6.10922">
        <ele>494.2</ele>
        <time>2022-11-02T14:52:02.000Z</time>
      </trkpt>
      <trkpt lat="43.58317" lon="6.10921">
        <ele>494</ele>
        <time>2022-11-02T14:52:08.000Z</time>
      </trkpt>
      <trkpt lat="43.58308" lon="6.10915">
        <ele>493.9</ele>
        <time>2022-11-02T14:52:16.000Z</time>
      </trkpt>
      <trkpt lat="43.58299" lon="6.1091">
        <ele>493.9</ele>
        <time>2022-11-02T14:52:25.000Z</time>
      </trkpt>
      <trkpt lat="43.58291" lon="6.10903">
        <ele>493.8</ele>
        <time>2022-11-02T14:52:34.000Z</time>
      </trkpt>
      <trkpt lat="43.58282" lon="6.109">
        <ele>493.1</ele>
        <time>2022-11-02T14:52:40.000Z</time>
      </trkpt>
      <trkpt lat="43.58275" lon="6.10891">
        <ele>492.5</ele>
        <time>2022-11-02T14:52:49.000Z</time>
      </trkpt>
      <trkpt lat="43.58266" lon="6.10887">
        <ele>491.9</ele>
        <time>2022-11-02T14:52:57.000Z</time>
      </trkpt>
      <trkpt lat="43.58257" lon="6.10881">
        <ele>491.3</ele>
        <time>2022-11-02T14:53:05.000Z</time>
      </trkpt>
      <trkpt lat="43.58248" lon="6.10876">
        <ele>491.3</ele>
        <time>2022-11-02T14:53:14.000Z</time>
      </trkpt>
      <trkpt lat="43.58241" lon="6.10867">
        <ele>490.8</ele>
        <time>2022-11-02T14:53:22.000Z</time>
      </trkpt>
      <trkpt lat="43.58234" lon="6.10863">
        <ele>490.6</ele>
        <time>2022-11-02T14:53:30.000Z</time>
      </trkpt>
      <trkpt lat="43.58234" lon="6.10863">
        <ele>491</ele>
        <time>2022-11-02T14:53:35.000Z</time>
      </trkpt>
      <trkpt lat="43.58234" lon="6.10863">
        <ele>490.8</ele>
        <time>2022-11-02T14:53:36.000Z</time>
      </trkpt>
      <trkpt lat="43.58234" lon="6.10863">
        <ele>490.5</ele>
        <time>2022-11-02T14:53:44.000Z</time>
      </trkpt>
      <trkpt lat="43.58225" lon="6.10856">
        <ele>490.5</ele>
        <time>2022-11-02T14:53:54.000Z</time>
      </trkpt>
      <trkpt lat="43.58217" lon="6.10849">
        <ele>490.1</ele>
        <time>2022-11-02T14:54:02.000Z</time>
      </trkpt>
      <trkpt lat="43.58214" lon="6.10837">
        <ele>490.1</ele>
        <time>2022-11-02T14:54:12.000Z</time>
      </trkpt>
      <trkpt lat="43.58207" lon="6.10827">
        <ele>490</ele>
        <time>2022-11-02T14:54:23.000Z</time>
      </trkpt>
      <trkpt lat="43.58202" lon="6.10816">
        <ele>489.8</ele>
        <time>2022-11-02T14:54:33.000Z</time>
      </trkpt>
      <trkpt lat="43.58198" lon="6.10804">
        <ele>489.8</ele>
        <time>2022-11-02T14:54:40.000Z</time>
      </trkpt>
      <trkpt lat="43.58196" lon="6.10791">
        <ele>489.1</ele>
        <time>2022-11-02T14:54:49.000Z</time>
      </trkpt>
      <trkpt lat="43.58194" lon="6.10778">
        <ele>489.3</ele>
        <time>2022-11-02T14:54:57.000Z</time>
      </trkpt>
      <trkpt lat="43.58192" lon="6.10764">
        <ele>489</ele>
        <time>2022-11-02T14:55:05.000Z</time>
      </trkpt>
      <trkpt lat="43.58187" lon="6.10751">
        <ele>488.8</ele>
        <time>2022-11-02T14:55:13.000Z</time>
      </trkpt>
      <trkpt lat="43.58183" lon="6.10739">
        <ele>488.7</ele>
        <time>2022-11-02T14:55:20.000Z</time>
      </trkpt>
      <trkpt lat="43.58176" lon="6.10729">
        <ele>488.5</ele>
        <time>2022-11-02T14:55:27.000Z</time>
      </trkpt>
      <trkpt lat="43.58173" lon="6.10715">
        <ele>488.4</ele>
        <time>2022-11-02T14:55:36.000Z</time>
      </trkpt>
      <trkpt lat="43.58171" lon="6.10703">
        <ele>488.1</ele>
        <time>2022-11-02T14:55:43.000Z</time>
      </trkpt>
      <trkpt lat="43.58167" lon="6.10691">
        <ele>488</ele>
        <time>2022-11-02T14:55:51.000Z</time>
      </trkpt>
      <trkpt lat="43.58162" lon="6.1068">
        <ele>487.3</ele>
        <time>2022-11-02T14:55:59.000Z</time>
      </trkpt>
      <trkpt lat="43.58157" lon="6.10669">
        <ele>486.9</ele>
        <time>2022-11-02T14:56:06.000Z</time>
      </trkpt>
      <trkpt lat="43.5815" lon="6.10658">
        <ele>486.2</ele>
        <time>2022-11-02T14:56:13.000Z</time>
      </trkpt>
      <trkpt lat="43.58142" lon="6.1065">
        <ele>485.4</ele>
        <time>2022-11-02T14:56:20.000Z</time>
      </trkpt>
      <trkpt lat="43.58136" lon="6.10641">
        <ele>484.5</ele>
        <time>2022-11-02T14:56:27.000Z</time>
      </trkpt>
      <trkpt lat="43.5813" lon="6.10628">
        <ele>483.7</ele>
        <time>2022-11-02T14:56:35.000Z</time>
      </trkpt>
      <trkpt lat="43.58124" lon="6.10619">
        <ele>482.9</ele>
        <time>2022-11-02T14:56:43.000Z</time>
      </trkpt>
      <trkpt lat="43.58118" lon="6.10608">
        <ele>481.9</ele>
        <time>2022-11-02T14:56:51.000Z</time>
      </trkpt>
      <trkpt lat="43.58112" lon="6.10598">
        <ele>481.1</ele>
        <time>2022-11-02T14:57:00.000Z</time>
      </trkpt>
      <trkpt lat="43.58106" lon="6.10587">
        <ele>480.9</ele>
        <time>2022-11-02T14:57:08.000Z</time>
      </trkpt>
      <trkpt lat="43.581" lon="6.10577">
        <ele>479.7</ele>
        <time>2022-11-02T14:57:16.000Z</time>
      </trkpt>
      <trkpt lat="43.58093" lon="6.10568">
        <ele>479.4</ele>
        <time>2022-11-02T14:57:27.000Z</time>
      </trkpt>
      <trkpt lat="43.58092" lon="6.10568">
        <ele>479.5</ele>
        <time>2022-11-02T14:57:29.000Z</time>
      </trkpt>
      <trkpt lat="43.58092" lon="6.10568">
        <ele>479.3</ele>
        <time>2022-11-02T14:57:31.000Z</time>
      </trkpt>
      <trkpt lat="43.58092" lon="6.10568">
        <ele>479.4</ele>
        <time>2022-11-02T14:57:32.000Z</time>
      </trkpt>
      <trkpt lat="43.58092" lon="6.10567">
        <ele>479.4</ele>
        <time>2022-11-02T14:57:34.000Z</time>
      </trkpt>
      <trkpt lat="43.58092" lon="6.10567">
        <ele>479.5</ele>
        <time>2022-11-02T14:57:35.000Z</time>
      </trkpt>
      <trkpt lat="43.58092" lon="6.10567">
        <ele>479.5</ele>
        <time>2022-11-02T14:57:39.000Z</time>
      </trkpt>
      <trkpt lat="43.5809" lon="6.10566">
        <ele>479.5</ele>
        <time>2022-11-02T14:57:44.000Z</time>
      </trkpt>
      <trkpt lat="43.5809" lon="6.10566">
        <ele>479.4</ele>
        <time>2022-11-02T14:57:45.000Z</time>
      </trkpt>
      <trkpt lat="43.58089" lon="6.10553">
        <ele>479</ele>
        <time>2022-11-02T14:57:56.000Z</time>
      </trkpt>
      <trkpt lat="43.58093" lon="6.1054">
        <ele>479</ele>
        <time>2022-11-02T14:58:08.000Z</time>
      </trkpt>
      <trkpt lat="43.581" lon="6.10533">
        <ele>479.3</ele>
        <time>2022-11-02T14:58:20.000Z</time>
      </trkpt>
      <trkpt lat="43.58107" lon="6.10522">
        <ele>479.6</ele>
        <time>2022-11-02T14:58:29.000Z</time>
      </trkpt>
      <trkpt lat="43.58112" lon="6.10511">
        <ele>479.6</ele>
        <time>2022-11-02T14:58:37.000Z</time>
      </trkpt>
      <trkpt lat="43.58112" lon="6.10503">
        <ele>479.6</ele>
        <time>2022-11-02T14:58:46.000Z</time>
      </trkpt>
      <trkpt lat="43.58112" lon="6.10503">
        <ele>479.6</ele>
        <time>2022-11-02T14:58:47.000Z</time>
      </trkpt>
      <trkpt lat="43.58112" lon="6.10503">
        <ele>479.7</ele>
        <time>2022-11-02T14:58:48.000Z</time>
      </trkpt>
      <trkpt lat="43.58112" lon="6.10503">
        <ele>480</ele>
        <time>2022-11-02T14:58:53.000Z</time>
      </trkpt>
      <trkpt lat="43.58112" lon="6.10503">
        <ele>480</ele>
        <time>2022-11-02T14:58:54.000Z</time>
      </trkpt>
      <trkpt lat="43.58112" lon="6.10502">
        <ele>479.9</ele>
        <time>2022-11-02T14:58:59.000Z</time>
      </trkpt>
      <trkpt lat="43.58112" lon="6.10502">
        <ele>479.8</ele>
        <time>2022-11-02T14:59:00.000Z</time>
      </trkpt>
      <trkpt lat="43.58112" lon="6.10502">
        <ele>479.7</ele>
        <time>2022-11-02T14:59:02.000Z</time>
      </trkpt>
      <trkpt lat="43.58112" lon="6.10502">
        <ele>479.7</ele>
        <time>2022-11-02T14:59:03.000Z</time>
      </trkpt>
      <trkpt lat="43.58112" lon="6.10501">
        <ele>479.8</ele>
        <time>2022-11-02T14:59:08.000Z</time>
      </trkpt>
      <trkpt lat="43.58112" lon="6.10501">
        <ele>479.8</ele>
        <time>2022-11-02T14:59:09.000Z</time>
      </trkpt>
      <trkpt lat="43.58112" lon="6.10501">
        <ele>479.8</ele>
        <time>2022-11-02T14:59:24.000Z</time>
      </trkpt>
      <trkpt lat="43.5811" lon="6.10499">
        <ele>479.9</ele>
        <time>2022-11-02T14:59:29.000Z</time>
      </trkpt>
      <trkpt lat="43.58111" lon="6.10499">
        <ele>479.9</ele>
        <time>2022-11-02T14:59:31.000Z</time>
      </trkpt>
      <trkpt lat="43.58111" lon="6.10499">
        <ele>479.9</ele>
        <time>2022-11-02T14:59:32.000Z</time>
      </trkpt>
      <trkpt lat="43.5811" lon="6.10498">
        <ele>479.8</ele>
        <time>2022-11-02T14:59:34.000Z</time>
      </trkpt>
      <trkpt lat="43.58105" lon="6.10488">
        <ele>480.8</ele>
        <time>2022-11-02T14:59:47.000Z</time>
      </trkpt>
      <trkpt lat="43.581" lon="6.10477">
        <ele>481.6</ele>
        <time>2022-11-02T14:59:57.000Z</time>
      </trkpt>
      <trkpt lat="43.58094" lon="6.10467">
        <ele>482</ele>
        <time>2022-11-02T15:00:07.000Z</time>
      </trkpt>
      <trkpt lat="43.58087" lon="6.10458">
        <ele>482.1</ele>
        <time>2022-11-02T15:00:15.000Z</time>
      </trkpt>
      <trkpt lat="43.58081" lon="6.1045">
        <ele>482.8</ele>
        <time>2022-11-02T15:00:24.000Z</time>
      </trkpt>
      <trkpt lat="43.58073" lon="6.10441">
        <ele>482.8</ele>
        <time>2022-11-02T15:00:32.000Z</time>
      </trkpt>
      <trkpt lat="43.58067" lon="6.10431">
        <ele>483.1</ele>
        <time>2022-11-02T15:00:41.000Z</time>
      </trkpt>
      <trkpt lat="43.5806" lon="6.10421">
        <ele>483.4</ele>
        <time>2022-11-02T15:00:51.000Z</time>
      </trkpt>
      <trkpt lat="43.58053" lon="6.10412">
        <ele>483.6</ele>
        <time>2022-11-02T15:01:01.000Z</time>
      </trkpt>
      <trkpt lat="43.58045" lon="6.10405">
        <ele>484.3</ele>
        <time>2022-11-02T15:01:10.000Z</time>
      </trkpt>
      <trkpt lat="43.58037" lon="6.10396">
        <ele>484.9</ele>
        <time>2022-11-02T15:01:20.000Z</time>
      </trkpt>
      <trkpt lat="43.58029" lon="6.1039">
        <ele>485.4</ele>
        <time>2022-11-02T15:01:28.000Z</time>
      </trkpt>
      <trkpt lat="43.58023" lon="6.10389">
        <ele>486</ele>
        <time>2022-11-02T15:01:38.000Z</time>
      </trkpt>
      <trkpt lat="43.58023" lon="6.10389">
        <ele>485.9</ele>
        <time>2022-11-02T15:01:44.000Z</time>
      </trkpt>
      <trkpt lat="43.58022" lon="6.10389">
        <ele>485.9</ele>
        <time>2022-11-02T15:01:46.000Z</time>
      </trkpt>
      <trkpt lat="43.58022" lon="6.10389">
        <ele>485.9</ele>
        <time>2022-11-02T15:01:47.000Z</time>
      </trkpt>
      <trkpt lat="43.5802" lon="6.1039">
        <ele>486</ele>
        <time>2022-11-02T15:01:50.000Z</time>
      </trkpt>
      <trkpt lat="43.5802" lon="6.1039">
        <ele>485.9</ele>
        <time>2022-11-02T15:02:00.000Z</time>
      </trkpt>
      <trkpt lat="43.58019" lon="6.10389">
        <ele>485.7</ele>
        <time>2022-11-02T15:02:03.000Z</time>
      </trkpt>
      <trkpt lat="43.58019" lon="6.10389">
        <ele>486.1</ele>
        <time>2022-11-02T15:02:06.000Z</time>
      </trkpt>
      <trkpt lat="43.58019" lon="6.10389">
        <ele>486.1</ele>
        <time>2022-11-02T15:02:07.000Z</time>
      </trkpt>
      <trkpt lat="43.58019" lon="6.10389">
        <ele>486</ele>
        <time>2022-11-02T15:02:15.000Z</time>
      </trkpt>
      <trkpt lat="43.58019" lon="6.1039">
        <ele>485.9</ele>
        <time>2022-11-02T15:02:19.000Z</time>
      </trkpt>
      <trkpt lat="43.58019" lon="6.10389">
        <ele>486.1</ele>
        <time>2022-11-02T15:02:25.000Z</time>
      </trkpt>
      <trkpt lat="43.58016" lon="6.10377">
        <ele>486.5</ele>
        <time>2022-11-02T15:02:38.000Z</time>
      </trkpt>
      <trkpt lat="43.58011" lon="6.10366">
        <ele>486.5</ele>
        <time>2022-11-02T15:02:47.000Z</time>
      </trkpt>
      <trkpt lat="43.58005" lon="6.10355">
        <ele>486.7</ele>
        <time>2022-11-02T15:02:58.000Z</time>
      </trkpt>
      <trkpt lat="43.57999" lon="6.10347">
        <ele>487.3</ele>
        <time>2022-11-02T15:03:07.000Z</time>
      </trkpt>
      <trkpt lat="43.57991" lon="6.10338">
        <ele>488.1</ele>
        <time>2022-11-02T15:03:16.000Z</time>
      </trkpt>
      <trkpt lat="43.57984" lon="6.1033">
        <ele>488.7</ele>
        <time>2022-11-02T15:03:24.000Z</time>
      </trkpt>
      <trkpt lat="43.57978" lon="6.10331">
        <ele>489</ele>
        <time>2022-11-02T15:03:32.000Z</time>
      </trkpt>
      <trkpt lat="43.57978" lon="6.10332">
        <ele>489</ele>
        <time>2022-11-02T15:03:40.000Z</time>
      </trkpt>
      <trkpt lat="43.57977" lon="6.10332">
        <ele>488.9</ele>
        <time>2022-11-02T15:03:44.000Z</time>
      </trkpt>
      <trkpt lat="43.57976" lon="6.10332">
        <ele>489</ele>
        <time>2022-11-02T15:03:53.000Z</time>
      </trkpt>
      <trkpt lat="43.57976" lon="6.10332">
        <ele>488.9</ele>
        <time>2022-11-02T15:03:54.000Z</time>
      </trkpt>
      <trkpt lat="43.57977" lon="6.10332">
        <ele>489</ele>
        <time>2022-11-02T15:03:57.000Z</time>
      </trkpt>
      <trkpt lat="43.57977" lon="6.10331">
        <ele>489.1</ele>
        <time>2022-11-02T15:04:00.000Z</time>
      </trkpt>
      <trkpt lat="43.57977" lon="6.10331">
        <ele>489</ele>
        <time>2022-11-02T15:04:01.000Z</time>
      </trkpt>
      <trkpt lat="43.57977" lon="6.10328">
        <ele>489.5</ele>
        <time>2022-11-02T15:04:05.000Z</time>
      </trkpt>
      <trkpt lat="43.57977" lon="6.10328">
        <ele>489.3</ele>
        <time>2022-11-02T15:04:07.000Z</time>
      </trkpt>
      <trkpt lat="43.57977" lon="6.10328">
        <ele>489.3</ele>
        <time>2022-11-02T15:04:08.000Z</time>
      </trkpt>
      <trkpt lat="43.57977" lon="6.10327">
        <ele>489.3</ele>
        <time>2022-11-02T15:04:20.000Z</time>
      </trkpt>
      <trkpt lat="43.57976" lon="6.10326">
        <ele>489.1</ele>
        <time>2022-11-02T15:04:22.000Z</time>
      </trkpt>
      <trkpt lat="43.57976" lon="6.10326">
        <ele>489.3</ele>
        <time>2022-11-02T15:04:26.000Z</time>
      </trkpt>
      <trkpt lat="43.5797" lon="6.10316">
        <ele>490.4</ele>
        <time>2022-11-02T15:04:39.000Z</time>
      </trkpt>
      <trkpt lat="43.57966" lon="6.10306">
        <ele>491.3</ele>
        <time>2022-11-02T15:04:50.000Z</time>
      </trkpt>
      <trkpt lat="43.57958" lon="6.10299">
        <ele>491.8</ele>
        <time>2022-11-02T15:05:00.000Z</time>
      </trkpt>
      <trkpt lat="43.5795" lon="6.10299">
        <ele>492.4</ele>
        <time>2022-11-02T15:05:15.000Z</time>
      </trkpt>
      <trkpt lat="43.5795" lon="6.10299">
        <ele>492.4</ele>
        <time>2022-11-02T15:05:23.000Z</time>
      </trkpt>
      <trkpt lat="43.57949" lon="6.10301">
        <ele>492.3</ele>
        <time>2022-11-02T15:05:26.000Z</time>
      </trkpt>
      <trkpt lat="43.57949" lon="6.10301">
        <ele>492.4</ele>
        <time>2022-11-02T15:05:32.000Z</time>
      </trkpt>
      <trkpt lat="43.57948" lon="6.10303">
        <ele>492.4</ele>
        <time>2022-11-02T15:05:35.000Z</time>
      </trkpt>
      <trkpt lat="43.57948" lon="6.10303">
        <ele>492.2</ele>
        <time>2022-11-02T15:05:41.000Z</time>
      </trkpt>
      <trkpt lat="43.57948" lon="6.10303">
        <ele>492.4</ele>
        <time>2022-11-02T15:05:42.000Z</time>
      </trkpt>
      <trkpt lat="43.57948" lon="6.10303">
        <ele>492.4</ele>
        <time>2022-11-02T15:05:44.000Z</time>
      </trkpt>
      <trkpt lat="43.57947" lon="6.10303">
        <ele>492.3</ele>
        <time>2022-11-02T15:05:46.000Z</time>
      </trkpt>
      <trkpt lat="43.57947" lon="6.10303">
        <ele>492.2</ele>
        <time>2022-11-02T15:05:56.000Z</time>
      </trkpt>
      <trkpt lat="43.57947" lon="6.10303">
        <ele>492.2</ele>
        <time>2022-11-02T15:05:57.000Z</time>
      </trkpt>
      <trkpt lat="43.57947" lon="6.10303">
        <ele>492.3</ele>
        <time>2022-11-02T15:05:58.000Z</time>
      </trkpt>
      <trkpt lat="43.57947" lon="6.10303">
        <ele>492.4</ele>
        <time>2022-11-02T15:05:59.000Z</time>
      </trkpt>
      <trkpt lat="43.57947" lon="6.10303">
        <ele>492.4</ele>
        <time>2022-11-02T15:06:02.000Z</time>
      </trkpt>
      <trkpt lat="43.57947" lon="6.10303">
        <ele>492.3</ele>
        <time>2022-11-02T15:06:03.000Z</time>
      </trkpt>
      <trkpt lat="43.57947" lon="6.10302">
        <ele>492.5</ele>
        <time>2022-11-02T15:06:04.000Z</time>
      </trkpt>
      <trkpt lat="43.57939" lon="6.10295">
        <ele>492.5</ele>
        <time>2022-11-02T15:06:13.000Z</time>
      </trkpt>
      <trkpt lat="43.5793" lon="6.10289">
        <ele>492.2</ele>
        <time>2022-11-02T15:06:22.000Z</time>
      </trkpt>
      <trkpt lat="43.57921" lon="6.10285">
        <ele>491.3</ele>
        <time>2022-11-02T15:06:32.000Z</time>
      </trkpt>
      <trkpt lat="43.57916" lon="6.10284">
        <ele>490.9</ele>
        <time>2022-11-02T15:06:41.000Z</time>
      </trkpt>
      <trkpt lat="43.57916" lon="6.10285">
        <ele>490.8</ele>
        <time>2022-11-02T15:06:46.000Z</time>
      </trkpt>
      <trkpt lat="43.57916" lon="6.10285">
        <ele>490.8</ele>
        <time>2022-11-02T15:06:47.000Z</time>
      </trkpt>
      <trkpt lat="43.57916" lon="6.10285">
        <ele>490.8</ele>
        <time>2022-11-02T15:06:48.000Z</time>
      </trkpt>
      <trkpt lat="43.57914" lon="6.10287">
        <ele>490.9</ele>
        <time>2022-11-02T15:06:54.000Z</time>
      </trkpt>
      <trkpt lat="43.57914" lon="6.10288">
        <ele>490.9</ele>
        <time>2022-11-02T15:06:59.000Z</time>
      </trkpt>
      <trkpt lat="43.57914" lon="6.10288">
        <ele>490.9</ele>
        <time>2022-11-02T15:07:00.000Z</time>
      </trkpt>
      <trkpt lat="43.57914" lon="6.10288">
        <ele>490.9</ele>
        <time>2022-11-02T15:07:01.000Z</time>
      </trkpt>
      <trkpt lat="43.57913" lon="6.10288">
        <ele>490.7</ele>
        <time>2022-11-02T15:07:06.000Z</time>
      </trkpt>
      <trkpt lat="43.57913" lon="6.10289">
        <ele>490.8</ele>
        <time>2022-11-02T15:07:18.000Z</time>
      </trkpt>
      <trkpt lat="43.57913" lon="6.10289">
        <ele>490.6</ele>
        <time>2022-11-02T15:07:20.000Z</time>
      </trkpt>
      <trkpt lat="43.57912" lon="6.10289">
        <ele>490.4</ele>
        <time>2022-11-02T15:07:26.000Z</time>
      </trkpt>
      <trkpt lat="43.5791" lon="6.10289">
        <ele>490.4</ele>
        <time>2022-11-02T15:07:36.000Z</time>
      </trkpt>
      <trkpt lat="43.5791" lon="6.10289">
        <ele>490.3</ele>
        <time>2022-11-02T15:07:38.000Z</time>
      </trkpt>
      <trkpt lat="43.5791" lon="6.10289">
        <ele>490.3</ele>
        <time>2022-11-02T15:07:39.000Z</time>
      </trkpt>
      <trkpt lat="43.5791" lon="6.10289">
        <ele>490.2</ele>
        <time>2022-11-02T15:07:42.000Z</time>
      </trkpt>
      <trkpt lat="43.57907" lon="6.10289">
        <ele>490.1</ele>
        <time>2022-11-02T15:07:50.000Z</time>
      </trkpt>
      <trkpt lat="43.57907" lon="6.10289">
        <ele>490.1</ele>
        <time>2022-11-02T15:07:57.000Z</time>
      </trkpt>
      <trkpt lat="43.57902" lon="6.10278">
        <ele>489.8</ele>
        <time>2022-11-02T15:08:14.000Z</time>
      </trkpt>
      <trkpt lat="43.57897" lon="6.1028">
        <ele>489.5</ele>
        <time>2022-11-02T15:08:21.000Z</time>
      </trkpt>
      <trkpt lat="43.57897" lon="6.1028">
        <ele>489.5</ele>
        <time>2022-11-02T15:08:22.000Z</time>
      </trkpt>
      <trkpt lat="43.57897" lon="6.1028">
        <ele>489.6</ele>
        <time>2022-11-02T15:08:24.000Z</time>
      </trkpt>
      <trkpt lat="43.57896" lon="6.1028">
        <ele>489.4</ele>
        <time>2022-11-02T15:08:29.000Z</time>
      </trkpt>
      <trkpt lat="43.57896" lon="6.1028">
        <ele>489.5</ele>
        <time>2022-11-02T15:08:30.000Z</time>
      </trkpt>
      <trkpt lat="43.57896" lon="6.1028">
        <ele>489.5</ele>
        <time>2022-11-02T15:08:33.000Z</time>
      </trkpt>
      <trkpt lat="43.57898" lon="6.10288">
        <ele>489.5</ele>
        <time>2022-11-02T15:08:50.000Z</time>
      </trkpt>
      <trkpt lat="43.57898" lon="6.10288">
        <ele>489.6</ele>
        <time>2022-11-02T15:08:51.000Z</time>
      </trkpt>
      <trkpt lat="43.57898" lon="6.10288">
        <ele>489.6</ele>
        <time>2022-11-02T15:08:54.000Z</time>
      </trkpt>
      <trkpt lat="43.57899" lon="6.10288">
        <ele>489.5</ele>
        <time>2022-11-02T15:08:55.000Z</time>
      </trkpt>
      <trkpt lat="43.57899" lon="6.10288">
        <ele>489.4</ele>
        <time>2022-11-02T15:08:56.000Z</time>
      </trkpt>
      <trkpt lat="43.57898" lon="6.10288">
        <ele>490.4</ele>
        <time>2022-11-02T15:09:03.000Z</time>
      </trkpt>
      <trkpt lat="43.57897" lon="6.10289">
        <ele>490.1</ele>
        <time>2022-11-02T15:09:09.000Z</time>
      </trkpt>
      <trkpt lat="43.57897" lon="6.10289">
        <ele>490.3</ele>
        <time>2022-11-02T15:09:12.000Z</time>
      </trkpt>
      <trkpt lat="43.57897" lon="6.10289">
        <ele>490.4</ele>
        <time>2022-11-02T15:09:13.000Z</time>
      </trkpt>
      <trkpt lat="43.57897" lon="6.10288">
        <ele>490.1</ele>
        <time>2022-11-02T15:09:15.000Z</time>
      </trkpt>
      <trkpt lat="43.57897" lon="6.10288">
        <ele>490</ele>
        <time>2022-11-02T15:09:16.000Z</time>
      </trkpt>
      <trkpt lat="43.57898" lon="6.10288">
        <ele>490</ele>
        <time>2022-11-02T15:09:20.000Z</time>
      </trkpt>
      <trkpt lat="43.57898" lon="6.10288">
        <ele>489.9</ele>
        <time>2022-11-02T15:09:21.000Z</time>
      </trkpt>
      <trkpt lat="43.57898" lon="6.10288">
        <ele>490.1</ele>
        <time>2022-11-02T15:09:22.000Z</time>
      </trkpt>
      <trkpt lat="43.57898" lon="6.10288">
        <ele>489.8</ele>
        <time>2022-11-02T15:09:24.000Z</time>
      </trkpt>
      <trkpt lat="43.57898" lon="6.10288">
        <ele>489.6</ele>
        <time>2022-11-02T15:09:25.000Z</time>
      </trkpt>
      <trkpt lat="43.579" lon="6.10284">
        <ele>489.3</ele>
        <time>2022-11-02T15:09:48.000Z</time>
      </trkpt>
      <trkpt lat="43.579" lon="6.10284">
        <ele>489.1</ele>
        <time>2022-11-02T15:09:54.000Z</time>
      </trkpt>
      <trkpt lat="43.579" lon="6.10278">
        <ele>489.4</ele>
        <time>2022-11-02T15:10:02.000Z</time>
      </trkpt>
      <trkpt lat="43.57899" lon="6.10278">
        <ele>489</ele>
        <time>2022-11-02T15:11:32.000Z</time>
      </trkpt>
      <trkpt lat="43.57895" lon="6.10267">
        <ele>488.2</ele>
        <time>2022-11-02T15:11:46.000Z</time>
      </trkpt>
      <trkpt lat="43.57892" lon="6.10264">
        <ele>488.2</ele>
        <time>2022-11-02T15:11:54.000Z</time>
      </trkpt>
      <trkpt lat="43.57891" lon="6.10264">
        <ele>488.1</ele>
        <time>2022-11-02T15:12:06.000Z</time>
      </trkpt>
      <trkpt lat="43.57885" lon="6.10254">
        <ele>487.5</ele>
        <time>2022-11-02T15:12:15.000Z</time>
      </trkpt>
      <trkpt lat="43.57881" lon="6.10242">
        <ele>487</ele>
        <time>2022-11-02T15:12:25.000Z</time>
      </trkpt>
      <trkpt lat="43.57874" lon="6.10232">
        <ele>486.5</ele>
        <time>2022-11-02T15:12:32.000Z</time>
      </trkpt>
      <trkpt lat="43.57867" lon="6.10223">
        <ele>486.9</ele>
        <time>2022-11-02T15:12:41.000Z</time>
      </trkpt>
      <trkpt lat="43.5786" lon="6.10215">
        <ele>485.8</ele>
        <time>2022-11-02T15:12:48.000Z</time>
      </trkpt>
      <trkpt lat="43.57853" lon="6.10206">
        <ele>485.9</ele>
        <time>2022-11-02T15:12:57.000Z</time>
      </trkpt>
      <trkpt lat="43.57851" lon="6.10193">
        <ele>484.9</ele>
        <time>2022-11-02T15:13:09.000Z</time>
      </trkpt>
      <trkpt lat="43.57845" lon="6.10182">
        <ele>483.8</ele>
        <time>2022-11-02T15:13:18.000Z</time>
      </trkpt>
      <trkpt lat="43.57839" lon="6.10173">
        <ele>482.8</ele>
        <time>2022-11-02T15:13:26.000Z</time>
      </trkpt>
      <trkpt lat="43.57838" lon="6.10161">
        <ele>481.7</ele>
        <time>2022-11-02T15:13:37.000Z</time>
      </trkpt>
      <trkpt lat="43.57832" lon="6.1015">
        <ele>480.7</ele>
        <time>2022-11-02T15:13:45.000Z</time>
      </trkpt>
      <trkpt lat="43.57829" lon="6.10137">
        <ele>479.5</ele>
        <time>2022-11-02T15:13:56.000Z</time>
      </trkpt>
      <trkpt lat="43.57824" lon="6.10126">
        <ele>479.1</ele>
        <time>2022-11-02T15:14:04.000Z</time>
      </trkpt>
      <trkpt lat="43.57824" lon="6.10113">
        <ele>478.3</ele>
        <time>2022-11-02T15:14:14.000Z</time>
      </trkpt>
      <trkpt lat="43.5782" lon="6.10102">
        <ele>477.4</ele>
        <time>2022-11-02T15:14:23.000Z</time>
      </trkpt>
      <trkpt lat="43.57812" lon="6.10095">
        <ele>477.1</ele>
        <time>2022-11-02T15:14:31.000Z</time>
      </trkpt>
      <trkpt lat="43.57806" lon="6.10086">
        <ele>476.3</ele>
        <time>2022-11-02T15:14:40.000Z</time>
      </trkpt>
      <trkpt lat="43.57799" lon="6.10076">
        <ele>475.3</ele>
        <time>2022-11-02T15:14:53.000Z</time>
      </trkpt>
      <trkpt lat="43.57792" lon="6.10067">
        <ele>474.4</ele>
        <time>2022-11-02T15:15:05.000Z</time>
      </trkpt>
      <trkpt lat="43.57785" lon="6.10058">
        <ele>473.8</ele>
        <time>2022-11-02T15:15:13.000Z</time>
      </trkpt>
      <trkpt lat="43.57778" lon="6.10048">
        <ele>472.7</ele>
        <time>2022-11-02T15:15:23.000Z</time>
      </trkpt>
      <trkpt lat="43.57773" lon="6.10036">
        <ele>472</ele>
        <time>2022-11-02T15:15:33.000Z</time>
      </trkpt>
      <trkpt lat="43.57765" lon="6.10029">
        <ele>471.9</ele>
        <time>2022-11-02T15:15:39.000Z</time>
      </trkpt>
      <trkpt lat="43.57759" lon="6.1002">
        <ele>471.5</ele>
        <time>2022-11-02T15:15:48.000Z</time>
      </trkpt>
      <trkpt lat="43.57751" lon="6.10013">
        <ele>471</ele>
        <time>2022-11-02T15:15:56.000Z</time>
      </trkpt>
      <trkpt lat="43.57742" lon="6.10006">
        <ele>470</ele>
        <time>2022-11-02T15:16:05.000Z</time>
      </trkpt>
      <trkpt lat="43.57736" lon="6.09996">
        <ele>469.3</ele>
        <time>2022-11-02T15:16:16.000Z</time>
      </trkpt>
      <trkpt lat="43.57727" lon="6.09991">
        <ele>468.8</ele>
        <time>2022-11-02T15:16:26.000Z</time>
      </trkpt>
      <trkpt lat="43.57718" lon="6.09986">
        <ele>467.8</ele>
        <time>2022-11-02T15:16:36.000Z</time>
      </trkpt>
      <trkpt lat="43.57709" lon="6.09982">
        <ele>466.5</ele>
        <time>2022-11-02T15:16:45.000Z</time>
      </trkpt>
      <trkpt lat="43.577" lon="6.09976">
        <ele>465.5</ele>
        <time>2022-11-02T15:16:57.000Z</time>
      </trkpt>
      <trkpt lat="43.57692" lon="6.09967">
        <ele>464.8</ele>
        <time>2022-11-02T15:17:05.000Z</time>
      </trkpt>
      <trkpt lat="43.57684" lon="6.09961">
        <ele>464.5</ele>
        <time>2022-11-02T15:17:13.000Z</time>
      </trkpt>
      <trkpt lat="43.57676" lon="6.09952">
        <ele>463.9</ele>
        <time>2022-11-02T15:17:21.000Z</time>
      </trkpt>
      <trkpt lat="43.57672" lon="6.09941">
        <ele>462.6</ele>
        <time>2022-11-02T15:17:34.000Z</time>
      </trkpt>
      <trkpt lat="43.57673" lon="6.09928">
        <ele>462.1</ele>
        <time>2022-11-02T15:17:44.000Z</time>
      </trkpt>
      <trkpt lat="43.57676" lon="6.09916">
        <ele>462</ele>
        <time>2022-11-02T15:17:54.000Z</time>
      </trkpt>
      <trkpt lat="43.57679" lon="6.09903">
        <ele>461.8</ele>
        <time>2022-11-02T15:18:03.000Z</time>
      </trkpt>
      <trkpt lat="43.57681" lon="6.09891">
        <ele>461.6</ele>
        <time>2022-11-02T15:18:11.000Z</time>
      </trkpt>
      <trkpt lat="43.57681" lon="6.09877">
        <ele>461.7</ele>
        <time>2022-11-02T15:18:20.000Z</time>
      </trkpt>
      <trkpt lat="43.57683" lon="6.09864">
        <ele>461.5</ele>
        <time>2022-11-02T15:18:29.000Z</time>
      </trkpt>
      <trkpt lat="43.57684" lon="6.0985">
        <ele>461.2</ele>
        <time>2022-11-02T15:18:39.000Z</time>
      </trkpt>
      <trkpt lat="43.5768" lon="6.09838">
        <ele>461.7</ele>
        <time>2022-11-02T15:18:53.000Z</time>
      </trkpt>
      <trkpt lat="43.57675" lon="6.09837">
        <ele>461.5</ele>
        <time>2022-11-02T15:19:09.000Z</time>
      </trkpt>
      <trkpt lat="43.57675" lon="6.09838">
        <ele>461.5</ele>
        <time>2022-11-02T15:19:10.000Z</time>
      </trkpt>
      <trkpt lat="43.57675" lon="6.09839">
        <ele>461.5</ele>
        <time>2022-11-02T15:19:12.000Z</time>
      </trkpt>
      <trkpt lat="43.57675" lon="6.09839">
        <ele>461.5</ele>
        <time>2022-11-02T15:19:13.000Z</time>
      </trkpt>
      <trkpt lat="43.57676" lon="6.09841">
        <ele>461.8</ele>
        <time>2022-11-02T15:19:18.000Z</time>
      </trkpt>
      <trkpt lat="43.57676" lon="6.09841">
        <ele>462.2</ele>
        <time>2022-11-02T15:19:23.000Z</time>
      </trkpt>
      <trkpt lat="43.57675" lon="6.09842">
        <ele>462.3</ele>
        <time>2022-11-02T15:19:27.000Z</time>
      </trkpt>
      <trkpt lat="43.57675" lon="6.09842">
        <ele>462.3</ele>
        <time>2022-11-02T15:19:45.000Z</time>
      </trkpt>
      <trkpt lat="43.57675" lon="6.09842">
        <ele>462.4</ele>
        <time>2022-11-02T15:19:46.000Z</time>
      </trkpt>
      <trkpt lat="43.57675" lon="6.09842">
        <ele>462.5</ele>
        <time>2022-11-02T15:19:49.000Z</time>
      </trkpt>
      <trkpt lat="43.57667" lon="6.09835">
        <ele>462.5</ele>
        <time>2022-11-02T15:19:58.000Z</time>
      </trkpt>
      <trkpt lat="43.57658" lon="6.09828">
        <ele>462.6</ele>
        <time>2022-11-02T15:20:05.000Z</time>
      </trkpt>
      <trkpt lat="43.57649" lon="6.09824">
        <ele>462.6</ele>
        <time>2022-11-02T15:20:12.000Z</time>
      </trkpt>
      <trkpt lat="43.57639" lon="6.09822">
        <ele>462.4</ele>
        <time>2022-11-02T15:20:19.000Z</time>
      </trkpt>
      <trkpt lat="43.57629" lon="6.09818">
        <ele>462.5</ele>
        <time>2022-11-02T15:20:27.000Z</time>
      </trkpt>
      <trkpt lat="43.57621" lon="6.09813">
        <ele>462.5</ele>
        <time>2022-11-02T15:20:36.000Z</time>
      </trkpt>
      <trkpt lat="43.57611" lon="6.0981">
        <ele>462.8</ele>
        <time>2022-11-02T15:20:45.000Z</time>
      </trkpt>
      <trkpt lat="43.57602" lon="6.09807">
        <ele>462.7</ele>
        <time>2022-11-02T15:20:54.000Z</time>
      </trkpt>
      <trkpt lat="43.57593" lon="6.09806">
        <ele>462.6</ele>
        <time>2022-11-02T15:21:03.000Z</time>
      </trkpt>
      <trkpt lat="43.57583" lon="6.09806">
        <ele>462.7</ele>
        <time>2022-11-02T15:21:12.000Z</time>
      </trkpt>
      <trkpt lat="43.57573" lon="6.09803">
        <ele>462.9</ele>
        <time>2022-11-02T15:21:20.000Z</time>
      </trkpt>
      <trkpt lat="43.57565" lon="6.09797">
        <ele>462.7</ele>
        <time>2022-11-02T15:21:27.000Z</time>
      </trkpt>
      <trkpt lat="43.57555" lon="6.09793">
        <ele>462.7</ele>
        <time>2022-11-02T15:21:36.000Z</time>
      </trkpt>
      <trkpt lat="43.57545" lon="6.09787">
        <ele>462.9</ele>
        <time>2022-11-02T15:21:46.000Z</time>
      </trkpt>
      <trkpt lat="43.57536" lon="6.09782">
        <ele>463</ele>
        <time>2022-11-02T15:21:53.000Z</time>
      </trkpt>
      <trkpt lat="43.57526" lon="6.09778">
        <ele>463</ele>
        <time>2022-11-02T15:22:01.000Z</time>
      </trkpt>
      <trkpt lat="43.57517" lon="6.09773">
        <ele>463</ele>
        <time>2022-11-02T15:22:09.000Z</time>
      </trkpt>
      <trkpt lat="43.57509" lon="6.09768">
        <ele>463.3</ele>
        <time>2022-11-02T15:22:17.000Z</time>
      </trkpt>
      <trkpt lat="43.57499" lon="6.09764">
        <ele>463.1</ele>
        <time>2022-11-02T15:22:25.000Z</time>
      </trkpt>
      <trkpt lat="43.57491" lon="6.09759">
        <ele>463.5</ele>
        <time>2022-11-02T15:22:33.000Z</time>
      </trkpt>
      <trkpt lat="43.57481" lon="6.09754">
        <ele>463.6</ele>
        <time>2022-11-02T15:22:44.000Z</time>
      </trkpt>
      <trkpt lat="43.57472" lon="6.0975">
        <ele>463.9</ele>
        <time>2022-11-02T15:22:51.000Z</time>
      </trkpt>
      <trkpt lat="43.57462" lon="6.09747">
        <ele>463.9</ele>
        <time>2022-11-02T15:22:59.000Z</time>
      </trkpt>
      <trkpt lat="43.57452" lon="6.09745">
        <ele>463.9</ele>
        <time>2022-11-02T15:23:07.000Z</time>
      </trkpt>
      <trkpt lat="43.57444" lon="6.09741">
        <ele>464.3</ele>
        <time>2022-11-02T15:23:17.000Z</time>
      </trkpt>
      <trkpt lat="43.57434" lon="6.0974">
        <ele>464.4</ele>
        <time>2022-11-02T15:23:24.000Z</time>
      </trkpt>
      <trkpt lat="43.57424" lon="6.09741">
        <ele>464.6</ele>
        <time>2022-11-02T15:23:32.000Z</time>
      </trkpt>
      <trkpt lat="43.5742" lon="6.09743">
        <ele>464.8</ele>
        <time>2022-11-02T15:23:41.000Z</time>
      </trkpt>
      <trkpt lat="43.5742" lon="6.09743">
        <ele>464.7</ele>
        <time>2022-11-02T15:23:43.000Z</time>
      </trkpt>
      <trkpt lat="43.5742" lon="6.09743">
        <ele>464.6</ele>
        <time>2022-11-02T15:23:44.000Z</time>
      </trkpt>
      <trkpt lat="43.5742" lon="6.09744">
        <ele>464.5</ele>
        <time>2022-11-02T15:23:46.000Z</time>
      </trkpt>
      <trkpt lat="43.57421" lon="6.09744">
        <ele>464.7</ele>
        <time>2022-11-02T15:23:48.000Z</time>
      </trkpt>
      <trkpt lat="43.57421" lon="6.09745">
        <ele>464.6</ele>
        <time>2022-11-02T15:23:58.000Z</time>
      </trkpt>
      <trkpt lat="43.57421" lon="6.09745">
        <ele>464.6</ele>
        <time>2022-11-02T15:23:59.000Z</time>
      </trkpt>
      <trkpt lat="43.57421" lon="6.09745">
        <ele>464.7</ele>
        <time>2022-11-02T15:24:00.000Z</time>
      </trkpt>
      <trkpt lat="43.57421" lon="6.09745">
        <ele>464.7</ele>
        <time>2022-11-02T15:24:01.000Z</time>
      </trkpt>
      <trkpt lat="43.57421" lon="6.09745">
        <ele>464.9</ele>
        <time>2022-11-02T15:24:17.000Z</time>
      </trkpt>
      <trkpt lat="43.57421" lon="6.09745">
        <ele>464.9</ele>
        <time>2022-11-02T15:24:18.000Z</time>
      </trkpt>
      <trkpt lat="43.57421" lon="6.09745">
        <ele>464.8</ele>
        <time>2022-11-02T15:24:33.000Z</time>
      </trkpt>
      <trkpt lat="43.57421" lon="6.09745">
        <ele>464.9</ele>
        <time>2022-11-02T15:24:34.000Z</time>
      </trkpt>
      <trkpt lat="43.57421" lon="6.09745">
        <ele>464.9</ele>
        <time>2022-11-02T15:24:36.000Z</time>
      </trkpt>
      <trkpt lat="43.57421" lon="6.09745">
        <ele>464.9</ele>
        <time>2022-11-02T15:24:38.000Z</time>
      </trkpt>
      <trkpt lat="43.57421" lon="6.09746">
        <ele>465</ele>
        <time>2022-11-02T15:24:39.000Z</time>
      </trkpt>
      <trkpt lat="43.57421" lon="6.09743">
        <ele>464.8</ele>
        <time>2022-11-02T15:24:44.000Z</time>
      </trkpt>
      <trkpt lat="43.57421" lon="6.09743">
        <ele>464.6</ele>
        <time>2022-11-02T15:24:46.000Z</time>
      </trkpt>
      <trkpt lat="43.57424" lon="6.09755">
        <ele>464.6</ele>
        <time>2022-11-02T15:25:22.000Z</time>
      </trkpt>
      <trkpt lat="43.57423" lon="6.09758">
        <ele>464.5</ele>
        <time>2022-11-02T15:25:26.000Z</time>
      </trkpt>
      <trkpt lat="43.57423" lon="6.09758">
        <ele>464.6</ele>
        <time>2022-11-02T15:25:28.000Z</time>
      </trkpt>
      <trkpt lat="43.57414" lon="6.09755">
        <ele>464.7</ele>
        <time>2022-11-02T15:25:53.000Z</time>
      </trkpt>
      <trkpt lat="43.57408" lon="6.09746">
        <ele>465.3</ele>
        <time>2022-11-02T15:26:04.000Z</time>
      </trkpt>
      <trkpt lat="43.57398" lon="6.09744">
        <ele>465</ele>
        <time>2022-11-02T15:26:13.000Z</time>
      </trkpt>
      <trkpt lat="43.57389" lon="6.09744">
        <ele>465.5</ele>
        <time>2022-11-02T15:26:23.000Z</time>
      </trkpt>
      <trkpt lat="43.5738" lon="6.09739">
        <ele>466.5</ele>
        <time>2022-11-02T15:26:34.000Z</time>
      </trkpt>
      <trkpt lat="43.57372" lon="6.09744">
        <ele>466.9</ele>
        <time>2022-11-02T15:26:45.000Z</time>
      </trkpt>
      <trkpt lat="43.57366" lon="6.09754">
        <ele>467.2</ele>
        <time>2022-11-02T15:26:58.000Z</time>
      </trkpt>
      <trkpt lat="43.57358" lon="6.09762">
        <ele>467.8</ele>
        <time>2022-11-02T15:27:08.000Z</time>
      </trkpt>
      <trkpt lat="43.5735" lon="6.09771">
        <ele>468.1</ele>
        <time>2022-11-02T15:27:18.000Z</time>
      </trkpt>
      <trkpt lat="43.57343" lon="6.0978">
        <ele>468.7</ele>
        <time>2022-11-02T15:27:28.000Z</time>
      </trkpt>
      <trkpt lat="43.57336" lon="6.09788">
        <ele>469.5</ele>
        <time>2022-11-02T15:27:39.000Z</time>
      </trkpt>
      <trkpt lat="43.57328" lon="6.09795">
        <ele>469.9</ele>
        <time>2022-11-02T15:27:49.000Z</time>
      </trkpt>
      <trkpt lat="43.57321" lon="6.09805">
        <ele>470.8</ele>
        <time>2022-11-02T15:27:59.000Z</time>
      </trkpt>
      <trkpt lat="43.57314" lon="6.09814">
        <ele>471.4</ele>
        <time>2022-11-02T15:28:09.000Z</time>
      </trkpt>
      <trkpt lat="43.57306" lon="6.09821">
        <ele>471.9</ele>
        <time>2022-11-02T15:28:18.000Z</time>
      </trkpt>
      <trkpt lat="43.573" lon="6.09831">
        <ele>472.4</ele>
        <time>2022-11-02T15:28:27.000Z</time>
      </trkpt>
      <trkpt lat="43.57292" lon="6.09837">
        <ele>472.9</ele>
        <time>2022-11-02T15:28:36.000Z</time>
      </trkpt>
      <trkpt lat="43.57284" lon="6.09845">
        <ele>473.5</ele>
        <time>2022-11-02T15:28:45.000Z</time>
      </trkpt>
      <trkpt lat="43.57277" lon="6.09854">
        <ele>474</ele>
        <time>2022-11-02T15:28:55.000Z</time>
      </trkpt>
      <trkpt lat="43.5727" lon="6.09864">
        <ele>474.4</ele>
        <time>2022-11-02T15:29:05.000Z</time>
      </trkpt>
      <trkpt lat="43.57262" lon="6.09871">
        <ele>475.2</ele>
        <time>2022-11-02T15:29:14.000Z</time>
      </trkpt>
      <trkpt lat="43.57255" lon="6.09878">
        <ele>475.7</ele>
        <time>2022-11-02T15:29:24.000Z</time>
      </trkpt>
      <trkpt lat="43.57247" lon="6.09886">
        <ele>476.6</ele>
        <time>2022-11-02T15:29:34.000Z</time>
      </trkpt>
      <trkpt lat="43.5724" lon="6.09895">
        <ele>477</ele>
        <time>2022-11-02T15:29:44.000Z</time>
      </trkpt>
      <trkpt lat="43.57233" lon="6.09903">
        <ele>477.3</ele>
        <time>2022-11-02T15:29:52.000Z</time>
      </trkpt>
      <trkpt lat="43.57226" lon="6.09911">
        <ele>477.7</ele>
        <time>2022-11-02T15:30:00.000Z</time>
      </trkpt>
      <trkpt lat="43.57217" lon="6.09917">
        <ele>477.3</ele>
        <time>2022-11-02T15:30:09.000Z</time>
      </trkpt>
      <trkpt lat="43.57209" lon="6.09923">
        <ele>477.8</ele>
        <time>2022-11-02T15:30:18.000Z</time>
      </trkpt>
      <trkpt lat="43.57203" lon="6.09933">
        <ele>477.5</ele>
        <time>2022-11-02T15:30:27.000Z</time>
      </trkpt>
      <trkpt lat="43.57197" lon="6.09942">
        <ele>477.1</ele>
        <time>2022-11-02T15:30:39.000Z</time>
      </trkpt>
      <trkpt lat="43.57188" lon="6.09946">
        <ele>476.8</ele>
        <time>2022-11-02T15:30:49.000Z</time>
      </trkpt>
      <trkpt lat="43.57188" lon="6.0995">
        <ele>477.6</ele>
        <time>2022-11-02T15:30:59.000Z</time>
      </trkpt>
      <trkpt lat="43.57187" lon="6.0995">
        <ele>477.7</ele>
        <time>2022-11-02T15:31:02.000Z</time>
      </trkpt>
      <trkpt lat="43.5718" lon="6.09955">
        <ele>477.7</ele>
        <time>2022-11-02T15:31:12.000Z</time>
      </trkpt>
      <trkpt lat="43.5718" lon="6.09955">
        <ele>477.7</ele>
        <time>2022-11-02T15:31:13.000Z</time>
      </trkpt>
      <trkpt lat="43.5718" lon="6.09955">
        <ele>477.8</ele>
        <time>2022-11-02T15:31:14.000Z</time>
      </trkpt>
      <trkpt lat="43.57181" lon="6.09955">
        <ele>477.8</ele>
        <time>2022-11-02T15:31:18.000Z</time>
      </trkpt>
      <trkpt lat="43.57182" lon="6.09955">
        <ele>477.4</ele>
        <time>2022-11-02T15:31:22.000Z</time>
      </trkpt>
      <trkpt lat="43.57182" lon="6.09955">
        <ele>477.7</ele>
        <time>2022-11-02T15:31:28.000Z</time>
      </trkpt>
      <trkpt lat="43.57182" lon="6.09954">
        <ele>477.7</ele>
        <time>2022-11-02T15:31:30.000Z</time>
      </trkpt>
      <trkpt lat="43.57182" lon="6.09955">
        <ele>477.5</ele>
        <time>2022-11-02T15:31:35.000Z</time>
      </trkpt>
      <trkpt lat="43.57182" lon="6.09968">
        <ele>476.1</ele>
        <time>2022-11-02T15:31:48.000Z</time>
      </trkpt>
      <trkpt lat="43.57179" lon="6.09981">
        <ele>475.8</ele>
        <time>2022-11-02T15:31:57.000Z</time>
      </trkpt>
      <trkpt lat="43.57174" lon="6.09991">
        <ele>475.7</ele>
        <time>2022-11-02T15:32:05.000Z</time>
      </trkpt>
      <trkpt lat="43.57165" lon="6.09993">
        <ele>475.3</ele>
        <time>2022-11-02T15:32:17.000Z</time>
      </trkpt>
      <trkpt lat="43.57156" lon="6.09993">
        <ele>475.4</ele>
        <time>2022-11-02T15:32:28.000Z</time>
      </trkpt>
      <trkpt lat="43.57146" lon="6.0999">
        <ele>475.4</ele>
        <time>2022-11-02T15:32:37.000Z</time>
      </trkpt>
      <trkpt lat="43.57137" lon="6.09988">
        <ele>475.4</ele>
        <time>2022-11-02T15:32:47.000Z</time>
      </trkpt>
      <trkpt lat="43.57128" lon="6.09987">
        <ele>474.9</ele>
        <time>2022-11-02T15:32:56.000Z</time>
      </trkpt>
      <trkpt lat="43.57118" lon="6.09985">
        <ele>474.5</ele>
        <time>2022-11-02T15:33:05.000Z</time>
      </trkpt>
      <trkpt lat="43.5711" lon="6.09981">
        <ele>474.1</ele>
        <time>2022-11-02T15:33:13.000Z</time>
      </trkpt>
      <trkpt lat="43.571" lon="6.09976">
        <ele>473.8</ele>
        <time>2022-11-02T15:33:22.000Z</time>
      </trkpt>
      <trkpt lat="43.57092" lon="6.09972">
        <ele>473.9</ele>
        <time>2022-11-02T15:33:31.000Z</time>
      </trkpt>
      <trkpt lat="43.57082" lon="6.09971">
        <ele>473.8</ele>
        <time>2022-11-02T15:33:39.000Z</time>
      </trkpt>
      <trkpt lat="43.57072" lon="6.0997">
        <ele>473.8</ele>
        <time>2022-11-02T15:33:48.000Z</time>
      </trkpt>
      <trkpt lat="43.57063" lon="6.0997">
        <ele>473.9</ele>
        <time>2022-11-02T15:33:55.000Z</time>
      </trkpt>
      <trkpt lat="43.57056" lon="6.09978">
        <ele>473.8</ele>
        <time>2022-11-02T15:34:07.000Z</time>
      </trkpt>
      <trkpt lat="43.57048" lon="6.09987">
        <ele>473.6</ele>
        <time>2022-11-02T15:34:15.000Z</time>
      </trkpt>
      <trkpt lat="43.57044" lon="6.09998">
        <ele>473.9</ele>
        <time>2022-11-02T15:34:24.000Z</time>
      </trkpt>
      <trkpt lat="43.57038" lon="6.10009">
        <ele>473.8</ele>
        <time>2022-11-02T15:34:34.000Z</time>
      </trkpt>
      <trkpt lat="43.57031" lon="6.10019">
        <ele>473.5</ele>
        <time>2022-11-02T15:34:43.000Z</time>
      </trkpt>
      <trkpt lat="43.57026" lon="6.10031">
        <ele>473.8</ele>
        <time>2022-11-02T15:34:55.000Z</time>
      </trkpt>
      <trkpt lat="43.57019" lon="6.1004">
        <ele>473.6</ele>
        <time>2022-11-02T15:35:05.000Z</time>
      </trkpt>
      <trkpt lat="43.57012" lon="6.1005">
        <ele>473.4</ele>
        <time>2022-11-02T15:35:14.000Z</time>
      </trkpt>
      <trkpt lat="43.57007" lon="6.1006">
        <ele>473.3</ele>
        <time>2022-11-02T15:35:24.000Z</time>
      </trkpt>
      <trkpt lat="43.57004" lon="6.10073">
        <ele>473.6</ele>
        <time>2022-11-02T15:35:32.000Z</time>
      </trkpt>
      <trkpt lat="43.57" lon="6.10085">
        <ele>473.5</ele>
        <time>2022-11-02T15:35:42.000Z</time>
      </trkpt>
      <trkpt lat="43.56997" lon="6.10098">
        <ele>473.5</ele>
        <time>2022-11-02T15:35:49.000Z</time>
      </trkpt>
      <trkpt lat="43.56994" lon="6.10111">
        <ele>473.9</ele>
        <time>2022-11-02T15:35:57.000Z</time>
      </trkpt>
      <trkpt lat="43.56992" lon="6.10125">
        <ele>474.2</ele>
        <time>2022-11-02T15:36:05.000Z</time>
      </trkpt>
      <trkpt lat="43.56989" lon="6.10137">
        <ele>474.8</ele>
        <time>2022-11-02T15:36:14.000Z</time>
      </trkpt>
      <trkpt lat="43.56986" lon="6.1015">
        <ele>475.8</ele>
        <time>2022-11-02T15:36:25.000Z</time>
      </trkpt>
      <trkpt lat="43.56983" lon="6.10162">
        <ele>476.6</ele>
        <time>2022-11-02T15:36:35.000Z</time>
      </trkpt>
      <trkpt lat="43.56979" lon="6.10174">
        <ele>477.2</ele>
        <time>2022-11-02T15:36:45.000Z</time>
      </trkpt>
      <trkpt lat="43.56975" lon="6.10187">
        <ele>477.8</ele>
        <time>2022-11-02T15:36:53.000Z</time>
      </trkpt>
      <trkpt lat="43.56974" lon="6.10201">
        <ele>478.1</ele>
        <time>2022-11-02T15:37:03.000Z</time>
      </trkpt>
      <trkpt lat="43.56973" lon="6.10214">
        <ele>478.3</ele>
        <time>2022-11-02T15:37:11.000Z</time>
      </trkpt>
      <trkpt lat="43.5697" lon="6.10226">
        <ele>479</ele>
        <time>2022-11-02T15:37:21.000Z</time>
      </trkpt>
      <trkpt lat="43.56966" lon="6.10239">
        <ele>480</ele>
        <time>2022-11-02T15:37:32.000Z</time>
      </trkpt>
      <trkpt lat="43.56961" lon="6.1025">
        <ele>480.5</ele>
        <time>2022-11-02T15:37:42.000Z</time>
      </trkpt>
      <trkpt lat="43.56953" lon="6.10258">
        <ele>481</ele>
        <time>2022-11-02T15:37:53.000Z</time>
      </trkpt>
      <trkpt lat="43.56945" lon="6.10265">
        <ele>481.7</ele>
        <time>2022-11-02T15:38:02.000Z</time>
      </trkpt>
      <trkpt lat="43.56937" lon="6.1027">
        <ele>481.8</ele>
        <time>2022-11-02T15:38:12.000Z</time>
      </trkpt>
      <trkpt lat="43.56928" lon="6.10275">
        <ele>482.8</ele>
        <time>2022-11-02T15:38:20.000Z</time>
      </trkpt>
      <trkpt lat="43.5692" lon="6.10284">
        <ele>483.5</ele>
        <time>2022-11-02T15:38:30.000Z</time>
      </trkpt>
      <trkpt lat="43.56917" lon="6.10296">
        <ele>484.1</ele>
        <time>2022-11-02T15:38:39.000Z</time>
      </trkpt>
      <trkpt lat="43.56913" lon="6.10308">
        <ele>484.6</ele>
        <time>2022-11-02T15:38:48.000Z</time>
      </trkpt>
      <trkpt lat="43.56911" lon="6.10322">
        <ele>485.1</ele>
        <time>2022-11-02T15:38:57.000Z</time>
      </trkpt>
      <trkpt lat="43.56908" lon="6.10335">
        <ele>485.3</ele>
        <time>2022-11-02T15:39:06.000Z</time>
      </trkpt>
      <trkpt lat="43.56906" lon="6.10348">
        <ele>485.8</ele>
        <time>2022-11-02T15:39:16.000Z</time>
      </trkpt>
      <trkpt lat="43.56908" lon="6.10357">
        <ele>486.2</ele>
        <time>2022-11-02T15:39:25.000Z</time>
      </trkpt>
      <trkpt lat="43.56908" lon="6.10357">
        <ele>486.3</ele>
        <time>2022-11-02T15:39:26.000Z</time>
      </trkpt>
      <trkpt lat="43.56908" lon="6.10357">
        <ele>486.4</ele>
        <time>2022-11-02T15:39:27.000Z</time>
      </trkpt>
      <trkpt lat="43.56908" lon="6.10356">
        <ele>486.6</ele>
        <time>2022-11-02T15:39:44.000Z</time>
      </trkpt>
      <trkpt lat="43.5691" lon="6.10355">
        <ele>486.7</ele>
        <time>2022-11-02T15:39:51.000Z</time>
      </trkpt>
      <trkpt lat="43.5691" lon="6.10354">
        <ele>486.5</ele>
        <time>2022-11-02T15:39:57.000Z</time>
      </trkpt>
      <trkpt lat="43.5691" lon="6.10354">
        <ele>486.5</ele>
        <time>2022-11-02T15:39:58.000Z</time>
      </trkpt>
      <trkpt lat="43.5691" lon="6.10354">
        <ele>486.5</ele>
        <time>2022-11-02T15:39:59.000Z</time>
      </trkpt>
      <trkpt lat="43.5691" lon="6.10354">
        <ele>486.5</ele>
        <time>2022-11-02T15:40:00.000Z</time>
      </trkpt>
      <trkpt lat="43.56911" lon="6.10354">
        <ele>486.7</ele>
        <time>2022-11-02T15:40:02.000Z</time>
      </trkpt>
      <trkpt lat="43.56912" lon="6.10354">
        <ele>486.4</ele>
        <time>2022-11-02T15:40:07.000Z</time>
      </trkpt>
      <trkpt lat="43.56913" lon="6.10354">
        <ele>486.6</ele>
        <time>2022-11-02T15:40:11.000Z</time>
      </trkpt>
      <trkpt lat="43.56913" lon="6.10355">
        <ele>486.6</ele>
        <time>2022-11-02T15:40:13.000Z</time>
      </trkpt>
      <trkpt lat="43.56912" lon="6.10355">
        <ele>486.5</ele>
        <time>2022-11-02T15:40:15.000Z</time>
      </trkpt>
      <trkpt lat="43.56913" lon="6.10355">
        <ele>486.7</ele>
        <time>2022-11-02T15:40:17.000Z</time>
      </trkpt>
      <trkpt lat="43.56913" lon="6.10355">
        <ele>487.1</ele>
        <time>2022-11-02T15:40:24.000Z</time>
      </trkpt>
      <trkpt lat="43.56913" lon="6.10355">
        <ele>487.3</ele>
        <time>2022-11-02T15:40:26.000Z</time>
      </trkpt>
      <trkpt lat="43.56913" lon="6.10355">
        <ele>487.4</ele>
        <time>2022-11-02T15:40:27.000Z</time>
      </trkpt>
      <trkpt lat="43.56913" lon="6.10355">
        <ele>487.4</ele>
        <time>2022-11-02T15:40:28.000Z</time>
      </trkpt>
      <trkpt lat="43.56913" lon="6.10356">
        <ele>486.9</ele>
        <time>2022-11-02T15:40:33.000Z</time>
      </trkpt>
      <trkpt lat="43.56915" lon="6.10369">
        <ele>486.6</ele>
        <time>2022-11-02T15:40:44.000Z</time>
      </trkpt>
      <trkpt lat="43.5692" lon="6.10381">
        <ele>487.4</ele>
        <time>2022-11-02T15:40:54.000Z</time>
      </trkpt>
      <trkpt lat="43.56926" lon="6.10391">
        <ele>488.1</ele>
        <time>2022-11-02T15:41:03.000Z</time>
      </trkpt>
      <trkpt lat="43.56931" lon="6.10402">
        <ele>488.5</ele>
        <time>2022-11-02T15:41:17.000Z</time>
      </trkpt>
      <trkpt lat="43.56932" lon="6.10401">
        <ele>488.5</ele>
        <time>2022-11-02T15:41:18.000Z</time>
      </trkpt>
      <trkpt lat="43.56934" lon="6.10414">
        <ele>489.5</ele>
        <time>2022-11-02T15:41:31.000Z</time>
      </trkpt>
      <trkpt lat="43.56937" lon="6.10427">
        <ele>490.3</ele>
        <time>2022-11-02T15:41:45.000Z</time>
      </trkpt>
      <trkpt lat="43.5694" lon="6.10439">
        <ele>491.2</ele>
        <time>2022-11-02T15:41:55.000Z</time>
      </trkpt>
      <trkpt lat="43.56941" lon="6.10452">
        <ele>491.7</ele>
        <time>2022-11-02T15:42:05.000Z</time>
      </trkpt>
      <trkpt lat="43.56944" lon="6.10465">
        <ele>492.2</ele>
        <time>2022-11-02T15:42:15.000Z</time>
      </trkpt>
      <trkpt lat="43.56944" lon="6.10477">
        <ele>492.3</ele>
        <time>2022-11-02T15:42:24.000Z</time>
      </trkpt>
      <trkpt lat="43.56948" lon="6.10489">
        <ele>492.6</ele>
        <time>2022-11-02T15:42:33.000Z</time>
      </trkpt>
      <trkpt lat="43.56952" lon="6.10501">
        <ele>492.4</ele>
        <time>2022-11-02T15:42:41.000Z</time>
      </trkpt>
      <trkpt lat="43.56955" lon="6.10513">
        <ele>492.4</ele>
        <time>2022-11-02T15:42:50.000Z</time>
      </trkpt>
      <trkpt lat="43.56957" lon="6.10525">
        <ele>492.4</ele>
        <time>2022-11-02T15:42:58.000Z</time>
      </trkpt>
      <trkpt lat="43.56962" lon="6.10536">
        <ele>491.9</ele>
        <time>2022-11-02T15:43:06.000Z</time>
      </trkpt>
      <trkpt lat="43.56969" lon="6.10544">
        <ele>491.8</ele>
        <time>2022-11-02T15:43:15.000Z</time>
      </trkpt>
      <trkpt lat="43.56977" lon="6.10551">
        <ele>492.4</ele>
        <time>2022-11-02T15:43:23.000Z</time>
      </trkpt>
      <trkpt lat="43.56986" lon="6.10555">
        <ele>492.8</ele>
        <time>2022-11-02T15:43:31.000Z</time>
      </trkpt>
      <trkpt lat="43.56992" lon="6.10555">
        <ele>493.1</ele>
        <time>2022-11-02T15:43:41.000Z</time>
      </trkpt>
      <trkpt lat="43.56993" lon="6.10555">
        <ele>493.4</ele>
        <time>2022-11-02T15:43:44.000Z</time>
      </trkpt>
      <trkpt lat="43.56993" lon="6.10555">
        <ele>493.3</ele>
        <time>2022-11-02T15:43:45.000Z</time>
      </trkpt>
      <trkpt lat="43.56992" lon="6.10555">
        <ele>493.2</ele>
        <time>2022-11-02T15:43:47.000Z</time>
      </trkpt>
      <trkpt lat="43.56992" lon="6.10555">
        <ele>493.2</ele>
        <time>2022-11-02T15:43:48.000Z</time>
      </trkpt>
      <trkpt lat="43.56993" lon="6.10554">
        <ele>493.2</ele>
        <time>2022-11-02T15:43:49.000Z</time>
      </trkpt>
      <trkpt lat="43.56993" lon="6.10554">
        <ele>493.2</ele>
        <time>2022-11-02T15:43:50.000Z</time>
      </trkpt>
      <trkpt lat="43.56993" lon="6.10554">
        <ele>493.1</ele>
        <time>2022-11-02T15:43:56.000Z</time>
      </trkpt>
      <trkpt lat="43.56993" lon="6.10556">
        <ele>493.1</ele>
        <time>2022-11-02T15:43:59.000Z</time>
      </trkpt>
      <trkpt lat="43.56993" lon="6.10556">
        <ele>493.2</ele>
        <time>2022-11-02T15:44:18.000Z</time>
      </trkpt>
      <trkpt lat="43.56993" lon="6.10556">
        <ele>493.2</ele>
        <time>2022-11-02T15:44:19.000Z</time>
      </trkpt>
      <trkpt lat="43.56993" lon="6.10555">
        <ele>493.4</ele>
        <time>2022-11-02T15:44:24.000Z</time>
      </trkpt>
      <trkpt lat="43.56993" lon="6.10555">
        <ele>493.1</ele>
        <time>2022-11-02T15:44:26.000Z</time>
      </trkpt>
      <trkpt lat="43.56993" lon="6.10555">
        <ele>493.2</ele>
        <time>2022-11-02T15:44:28.000Z</time>
      </trkpt>
      <trkpt lat="43.56993" lon="6.10554">
        <ele>493.1</ele>
        <time>2022-11-02T15:44:31.000Z</time>
      </trkpt>
      <trkpt lat="43.56993" lon="6.10554">
        <ele>493.2</ele>
        <time>2022-11-02T15:44:34.000Z</time>
      </trkpt>
      <trkpt lat="43.56993" lon="6.10554">
        <ele>493.1</ele>
        <time>2022-11-02T15:44:35.000Z</time>
      </trkpt>
      <trkpt lat="43.56993" lon="6.10554">
        <ele>493.3</ele>
        <time>2022-11-02T15:44:39.000Z</time>
      </trkpt>
      <trkpt lat="43.56994" lon="6.10553">
        <ele>493.2</ele>
        <time>2022-11-02T15:44:43.000Z</time>
      </trkpt>
      <trkpt lat="43.56994" lon="6.10553">
        <ele>493.2</ele>
        <time>2022-11-02T15:44:45.000Z</time>
      </trkpt>
      <trkpt lat="43.56994" lon="6.10553">
        <ele>493.4</ele>
        <time>2022-11-02T15:44:46.000Z</time>
      </trkpt>
      <trkpt lat="43.56995" lon="6.10553">
        <ele>493.3</ele>
        <time>2022-11-02T15:44:56.000Z</time>
      </trkpt>
      <trkpt lat="43.56995" lon="6.10552">
        <ele>493.3</ele>
        <time>2022-11-02T15:44:59.000Z</time>
      </trkpt>
      <trkpt lat="43.56996" lon="6.10552">
        <ele>493.1</ele>
        <time>2022-11-02T15:45:09.000Z</time>
      </trkpt>
      <trkpt lat="43.56996" lon="6.10552">
        <ele>493.1</ele>
        <time>2022-11-02T15:45:10.000Z</time>
      </trkpt>
      <trkpt lat="43.56995" lon="6.10552">
        <ele>493.4</ele>
        <time>2022-11-02T15:45:20.000Z</time>
      </trkpt>
      <trkpt lat="43.56997" lon="6.10553">
        <ele>493.2</ele>
        <time>2022-11-02T15:45:26.000Z</time>
      </trkpt>
      <trkpt lat="43.56997" lon="6.10553">
        <ele>493</ele>
        <time>2022-11-02T15:45:37.000Z</time>
      </trkpt>
      <trkpt lat="43.56997" lon="6.10553">
        <ele>493.1</ele>
        <time>2022-11-02T15:45:38.000Z</time>
      </trkpt>
      <trkpt lat="43.56997" lon="6.10553">
        <ele>493.1</ele>
        <time>2022-11-02T15:45:46.000Z</time>
      </trkpt>
      <trkpt lat="43.56997" lon="6.10553">
        <ele>493.2</ele>
        <time>2022-11-02T15:45:47.000Z</time>
      </trkpt>
      <trkpt lat="43.56997" lon="6.10553">
        <ele>493.1</ele>
        <time>2022-11-02T15:46:32.000Z</time>
      </trkpt>
      <trkpt lat="43.56997" lon="6.10553">
        <ele>493.1</ele>
        <time>2022-11-02T15:46:33.000Z</time>
      </trkpt>
      <trkpt lat="43.56997" lon="6.10553">
        <ele>493.4</ele>
        <time>2022-11-02T15:46:57.000Z</time>
      </trkpt>
      <trkpt lat="43.56997" lon="6.10553">
        <ele>493.4</ele>
        <time>2022-11-02T15:46:59.000Z</time>
      </trkpt>
      <trkpt lat="43.56997" lon="6.10553">
        <ele>493.3</ele>
        <time>2022-11-02T15:47:02.000Z</time>
      </trkpt>
      <trkpt lat="43.56997" lon="6.10553">
        <ele>493.2</ele>
        <time>2022-11-02T15:47:03.000Z</time>
      </trkpt>
      <trkpt lat="43.56997" lon="6.10553">
        <ele>493.2</ele>
        <time>2022-11-02T15:47:04.000Z</time>
      </trkpt>
      <trkpt lat="43.57006" lon="6.10558">
        <ele>493</ele>
        <time>2022-11-02T15:47:14.000Z</time>
      </trkpt>
      <trkpt lat="43.57012" lon="6.10568">
        <ele>492.5</ele>
        <time>2022-11-02T15:47:23.000Z</time>
      </trkpt>
      <trkpt lat="43.57016" lon="6.1058">
        <ele>491.7</ele>
        <time>2022-11-02T15:47:34.000Z</time>
      </trkpt>
      <trkpt lat="43.57018" lon="6.10594">
        <ele>491.1</ele>
        <time>2022-11-02T15:47:45.000Z</time>
      </trkpt>
      <trkpt lat="43.57021" lon="6.10606">
        <ele>490.8</ele>
        <time>2022-11-02T15:47:55.000Z</time>
      </trkpt>
      <trkpt lat="43.57021" lon="6.10619">
        <ele>491</ele>
        <time>2022-11-02T15:48:05.000Z</time>
      </trkpt>
      <trkpt lat="43.57023" lon="6.10632">
        <ele>490.7</ele>
        <time>2022-11-02T15:48:13.000Z</time>
      </trkpt>
      <trkpt lat="43.57025" lon="6.10645">
        <ele>490.5</ele>
        <time>2022-11-02T15:48:21.000Z</time>
      </trkpt>
      <trkpt lat="43.57029" lon="6.10658">
        <ele>490.5</ele>
        <time>2022-11-02T15:48:30.000Z</time>
      </trkpt>
      <trkpt lat="43.57035" lon="6.10668">
        <ele>490</ele>
        <time>2022-11-02T15:48:38.000Z</time>
      </trkpt>
      <trkpt lat="43.57044" lon="6.10673">
        <ele>489.1</ele>
        <time>2022-11-02T15:48:46.000Z</time>
      </trkpt>
      <trkpt lat="43.57052" lon="6.10678">
        <ele>488.2</ele>
        <time>2022-11-02T15:48:57.000Z</time>
      </trkpt>
      <trkpt lat="43.57056" lon="6.1069">
        <ele>487.7</ele>
        <time>2022-11-02T15:49:07.000Z</time>
      </trkpt>
      <trkpt lat="43.57058" lon="6.10703">
        <ele>488</ele>
        <time>2022-11-02T15:49:17.000Z</time>
      </trkpt>
      <trkpt lat="43.57059" lon="6.10715">
        <ele>488.1</ele>
        <time>2022-11-02T15:49:26.000Z</time>
      </trkpt>
      <trkpt lat="43.57057" lon="6.10728">
        <ele>488</ele>
        <time>2022-11-02T15:49:35.000Z</time>
      </trkpt>
      <trkpt lat="43.57056" lon="6.10741">
        <ele>488.5</ele>
        <time>2022-11-02T15:49:45.000Z</time>
      </trkpt>
      <trkpt lat="43.57054" lon="6.10753">
        <ele>488.8</ele>
        <time>2022-11-02T15:49:54.000Z</time>
      </trkpt>
      <trkpt lat="43.57051" lon="6.10765">
        <ele>488.8</ele>
        <time>2022-11-02T15:50:01.000Z</time>
      </trkpt>
      <trkpt lat="43.5705" lon="6.10779">
        <ele>488.7</ele>
        <time>2022-11-02T15:50:09.000Z</time>
      </trkpt>
      <trkpt lat="43.57049" lon="6.10792">
        <ele>488.9</ele>
        <time>2022-11-02T15:50:18.000Z</time>
      </trkpt>
      <trkpt lat="43.57049" lon="6.10806">
        <ele>489.1</ele>
        <time>2022-11-02T15:50:26.000Z</time>
      </trkpt>
      <trkpt lat="43.57047" lon="6.10819">
        <ele>488.8</ele>
        <time>2022-11-02T15:50:35.000Z</time>
      </trkpt>
      <trkpt lat="43.5705" lon="6.10832">
        <ele>488.8</ele>
        <time>2022-11-02T15:50:44.000Z</time>
      </trkpt>
      <trkpt lat="43.57054" lon="6.10844">
        <ele>488.5</ele>
        <time>2022-11-02T15:50:52.000Z</time>
      </trkpt>
      <trkpt lat="43.57059" lon="6.10857">
        <ele>488</ele>
        <time>2022-11-02T15:51:02.000Z</time>
      </trkpt>
      <trkpt lat="43.57064" lon="6.10868">
        <ele>487.2</ele>
        <time>2022-11-02T15:51:11.000Z</time>
      </trkpt>
      <trkpt lat="43.57063" lon="6.10877">
        <ele>487.1</ele>
        <time>2022-11-02T15:51:23.000Z</time>
      </trkpt>
      <trkpt lat="43.57063" lon="6.10877">
        <ele>487</ele>
        <time>2022-11-02T15:51:24.000Z</time>
      </trkpt>
      <trkpt lat="43.57066" lon="6.1088">
        <ele>487.2</ele>
        <time>2022-11-02T15:51:29.000Z</time>
      </trkpt>
      <trkpt lat="43.57066" lon="6.1088">
        <ele>487.4</ele>
        <time>2022-11-02T15:51:33.000Z</time>
      </trkpt>
      <trkpt lat="43.57066" lon="6.1088">
        <ele>487.3</ele>
        <time>2022-11-02T15:51:34.000Z</time>
      </trkpt>
      <trkpt lat="43.57067" lon="6.1088">
        <ele>487.2</ele>
        <time>2022-11-02T15:51:37.000Z</time>
      </trkpt>
      <trkpt lat="43.57067" lon="6.1088">
        <ele>487.2</ele>
        <time>2022-11-02T15:51:38.000Z</time>
      </trkpt>
      <trkpt lat="43.57067" lon="6.10879">
        <ele>487.1</ele>
        <time>2022-11-02T15:51:45.000Z</time>
      </trkpt>
      <trkpt lat="43.57067" lon="6.10879">
        <ele>487.2</ele>
        <time>2022-11-02T15:51:46.000Z</time>
      </trkpt>
      <trkpt lat="43.57067" lon="6.10879">
        <ele>486.9</ele>
        <time>2022-11-02T15:51:55.000Z</time>
      </trkpt>
      <trkpt lat="43.57067" lon="6.10879">
        <ele>486.9</ele>
        <time>2022-11-02T15:51:56.000Z</time>
      </trkpt>
      <trkpt lat="43.57066" lon="6.10881">
        <ele>487.2</ele>
        <time>2022-11-02T15:51:57.000Z</time>
      </trkpt>
      <trkpt lat="43.57066" lon="6.10881">
        <ele>487.2</ele>
        <time>2022-11-02T15:51:58.000Z</time>
      </trkpt>
      <trkpt lat="43.57066" lon="6.10882">
        <ele>487.1</ele>
        <time>2022-11-02T15:52:13.000Z</time>
      </trkpt>
      <trkpt lat="43.57066" lon="6.10882">
        <ele>487.1</ele>
        <time>2022-11-02T15:52:14.000Z</time>
      </trkpt>
      <trkpt lat="43.57065" lon="6.10882">
        <ele>486.9</ele>
        <time>2022-11-02T15:52:15.000Z</time>
      </trkpt>
      <trkpt lat="43.57064" lon="6.10881">
        <ele>486.9</ele>
        <time>2022-11-02T15:52:18.000Z</time>
      </trkpt>
      <trkpt lat="43.57064" lon="6.10881">
        <ele>487</ele>
        <time>2022-11-02T15:52:26.000Z</time>
      </trkpt>
      <trkpt lat="43.57064" lon="6.10881">
        <ele>486.8</ele>
        <time>2022-11-02T15:52:27.000Z</time>
      </trkpt>
      <trkpt lat="43.57064" lon="6.10881">
        <ele>486.8</ele>
        <time>2022-11-02T15:52:28.000Z</time>
      </trkpt>
      <trkpt lat="43.57064" lon="6.10881">
        <ele>486.9</ele>
        <time>2022-11-02T15:52:29.000Z</time>
      </trkpt>
      <trkpt lat="43.57064" lon="6.10882">
        <ele>487.1</ele>
        <time>2022-11-02T15:52:35.000Z</time>
      </trkpt>
      <trkpt lat="43.57064" lon="6.10882">
        <ele>487.1</ele>
        <time>2022-11-02T15:52:36.000Z</time>
      </trkpt>
      <trkpt lat="43.57064" lon="6.10882">
        <ele>486.8</ele>
        <time>2022-11-02T15:53:01.000Z</time>
      </trkpt>
      <trkpt lat="43.57064" lon="6.10882">
        <ele>486.7</ele>
        <time>2022-11-02T15:53:02.000Z</time>
      </trkpt>
      <trkpt lat="43.57064" lon="6.10883">
        <ele>486.7</ele>
        <time>2022-11-02T15:53:36.000Z</time>
      </trkpt>
      <trkpt lat="43.57064" lon="6.10883">
        <ele>486.8</ele>
        <time>2022-11-02T15:53:37.000Z</time>
      </trkpt>
      <trkpt lat="43.57064" lon="6.10883">
        <ele>486.9</ele>
        <time>2022-11-02T15:53:55.000Z</time>
      </trkpt>
      <trkpt lat="43.57064" lon="6.10883">
        <ele>486.9</ele>
        <time>2022-11-02T15:53:57.000Z</time>
      </trkpt>
      <trkpt lat="43.57064" lon="6.10883">
        <ele>487</ele>
        <time>2022-11-02T15:54:08.000Z</time>
      </trkpt>
      <trkpt lat="43.57059" lon="6.10889">
        <ele>486.8</ele>
        <time>2022-11-02T15:54:26.000Z</time>
      </trkpt>
      <trkpt lat="43.57059" lon="6.10889">
        <ele>486.7</ele>
        <time>2022-11-02T15:54:36.000Z</time>
      </trkpt>
      <trkpt lat="43.57059" lon="6.10885">
        <ele>487.1</ele>
        <time>2022-11-02T15:55:00.000Z</time>
      </trkpt>
      <trkpt lat="43.57058" lon="6.10885">
        <ele>487.1</ele>
        <time>2022-11-02T15:55:01.000Z</time>
      </trkpt>
      <trkpt lat="43.57066" lon="6.10891">
        <ele>487.2</ele>
        <time>2022-11-02T15:55:15.000Z</time>
      </trkpt>
      <trkpt lat="43.57067" lon="6.10893">
        <ele>486.9</ele>
        <time>2022-11-02T15:55:23.000Z</time>
      </trkpt>
      <trkpt lat="43.57066" lon="6.10892">
        <ele>487.1</ele>
        <time>2022-11-02T15:55:24.000Z</time>
      </trkpt>
      <trkpt lat="43.5706" lon="6.10887">
        <ele>487.2</ele>
        <time>2022-11-02T15:55:37.000Z</time>
      </trkpt>
      <trkpt lat="43.5706" lon="6.10887">
        <ele>487.1</ele>
        <time>2022-11-02T15:55:40.000Z</time>
      </trkpt>
      <trkpt lat="43.57059" lon="6.10888">
        <ele>487.1</ele>
        <time>2022-11-02T15:55:47.000Z</time>
      </trkpt>
      <trkpt lat="43.57059" lon="6.10888">
        <ele>487.2</ele>
        <time>2022-11-02T15:55:48.000Z</time>
      </trkpt>
      <trkpt lat="43.57059" lon="6.1089">
        <ele>486.9</ele>
        <time>2022-11-02T15:56:12.000Z</time>
      </trkpt>
      <trkpt lat="43.57059" lon="6.10891">
        <ele>486.9</ele>
        <time>2022-11-02T15:56:13.000Z</time>
      </trkpt>
      <trkpt lat="43.5706" lon="6.10893">
        <ele>487</ele>
        <time>2022-11-02T15:56:17.000Z</time>
      </trkpt>
      <trkpt lat="43.5706" lon="6.10893">
        <ele>487.1</ele>
        <time>2022-11-02T15:56:26.000Z</time>
      </trkpt>
      <trkpt lat="43.57062" lon="6.10881">
        <ele>487</ele>
        <time>2022-11-02T15:56:55.000Z</time>
      </trkpt>
      <trkpt lat="43.57061" lon="6.10881">
        <ele>487</ele>
        <time>2022-11-02T15:56:56.000Z</time>
      </trkpt>
      <trkpt lat="43.5706" lon="6.1088">
        <ele>487</ele>
        <time>2022-11-02T15:56:59.000Z</time>
      </trkpt>
      <trkpt lat="43.5706" lon="6.1088">
        <ele>487.1</ele>
        <time>2022-11-02T15:57:00.000Z</time>
      </trkpt>
      <trkpt lat="43.5706" lon="6.10893">
        <ele>487.3</ele>
        <time>2022-11-02T15:57:32.000Z</time>
      </trkpt>
      <trkpt lat="43.57067" lon="6.10896">
        <ele>486.3</ele>
        <time>2022-11-02T15:58:09.000Z</time>
      </trkpt>
      <trkpt lat="43.57067" lon="6.10895">
        <ele>486.1</ele>
        <time>2022-11-02T15:58:16.000Z</time>
      </trkpt>
      <trkpt lat="43.57067" lon="6.10895">
        <ele>486.2</ele>
        <time>2022-11-02T15:58:17.000Z</time>
      </trkpt>
      <trkpt lat="43.57067" lon="6.10895">
        <ele>486.2</ele>
        <time>2022-11-02T15:58:20.000Z</time>
      </trkpt>
      <trkpt lat="43.57071" lon="6.10896">
        <ele>486.2</ele>
        <time>2022-11-02T15:58:36.000Z</time>
      </trkpt>
      <trkpt lat="43.57071" lon="6.10896">
        <ele>486.1</ele>
        <time>2022-11-02T15:58:37.000Z</time>
      </trkpt>
      <trkpt lat="43.57071" lon="6.10896">
        <ele>485.9</ele>
        <time>2022-11-02T15:58:38.000Z</time>
      </trkpt>
      <trkpt lat="43.57072" lon="6.10896">
        <ele>486</ele>
        <time>2022-11-02T15:58:59.000Z</time>
      </trkpt>
      <trkpt lat="43.57076" lon="6.10898">
        <ele>485.8</ele>
        <time>2022-11-02T15:59:09.000Z</time>
      </trkpt>
      <trkpt lat="43.57076" lon="6.10898">
        <ele>486</ele>
        <time>2022-11-02T15:59:14.000Z</time>
      </trkpt>
      <trkpt lat="43.57075" lon="6.109">
        <ele>486</ele>
        <time>2022-11-02T15:59:21.000Z</time>
      </trkpt>
      <trkpt lat="43.57075" lon="6.109">
        <ele>486</ele>
        <time>2022-11-02T15:59:23.000Z</time>
      </trkpt>
      <trkpt lat="43.57075" lon="6.109">
        <ele>486.2</ele>
        <time>2022-11-02T15:59:24.000Z</time>
      </trkpt>
      <trkpt lat="43.57074" lon="6.10899">
        <ele>486.1</ele>
        <time>2022-11-02T15:59:29.000Z</time>
      </trkpt>
      <trkpt lat="43.57074" lon="6.109">
        <ele>486.1</ele>
        <time>2022-11-02T15:59:31.000Z</time>
      </trkpt>
      <trkpt lat="43.57075" lon="6.10901">
        <ele>486.2</ele>
        <time>2022-11-02T15:59:32.000Z</time>
      </trkpt>
      <trkpt lat="43.57079" lon="6.10913">
        <ele>485.8</ele>
        <time>2022-11-02T15:59:45.000Z</time>
      </trkpt>
      <trkpt lat="43.57085" lon="6.10922">
        <ele>485.2</ele>
        <time>2022-11-02T15:59:54.000Z</time>
      </trkpt>
      <trkpt lat="43.57091" lon="6.10933">
        <ele>485</ele>
        <time>2022-11-02T16:00:03.000Z</time>
      </trkpt>
      <trkpt lat="43.57097" lon="6.10942">
        <ele>484.7</ele>
        <time>2022-11-02T16:00:11.000Z</time>
      </trkpt>
      <trkpt lat="43.57102" lon="6.10953">
        <ele>484.2</ele>
        <time>2022-11-02T16:00:19.000Z</time>
      </trkpt>
      <trkpt lat="43.57107" lon="6.10964">
        <ele>484.4</ele>
        <time>2022-11-02T16:00:27.000Z</time>
      </trkpt>
      <trkpt lat="43.5711" lon="6.10976">
        <ele>484.4</ele>
        <time>2022-11-02T16:00:35.000Z</time>
      </trkpt>
      <trkpt lat="43.57117" lon="6.10986">
        <ele>484.4</ele>
        <time>2022-11-02T16:00:45.000Z</time>
      </trkpt>
      <trkpt lat="43.57125" lon="6.10995">
        <ele>483.6</ele>
        <time>2022-11-02T16:00:51.000Z</time>
      </trkpt>
      <trkpt lat="43.57131" lon="6.11006">
        <ele>483.2</ele>
        <time>2022-11-02T16:01:01.000Z</time>
      </trkpt>
      <trkpt lat="43.57134" lon="6.11018">
        <ele>482.8</ele>
        <time>2022-11-02T16:01:10.000Z</time>
      </trkpt>
      <trkpt lat="43.57135" lon="6.11031">
        <ele>483.2</ele>
        <time>2022-11-02T16:01:20.000Z</time>
      </trkpt>
      <trkpt lat="43.57138" lon="6.11043">
        <ele>483.8</ele>
        <time>2022-11-02T16:01:29.000Z</time>
      </trkpt>
      <trkpt lat="43.5714" lon="6.11056">
        <ele>483.8</ele>
        <time>2022-11-02T16:01:37.000Z</time>
      </trkpt>
      <trkpt lat="43.5714" lon="6.11069">
        <ele>484.4</ele>
        <time>2022-11-02T16:01:46.000Z</time>
      </trkpt>
      <trkpt lat="43.57142" lon="6.11082">
        <ele>484.3</ele>
        <time>2022-11-02T16:01:54.000Z</time>
      </trkpt>
      <trkpt lat="43.57141" lon="6.11094">
        <ele>484.6</ele>
        <time>2022-11-02T16:02:03.000Z</time>
      </trkpt>
      <trkpt lat="43.57138" lon="6.11106">
        <ele>484.4</ele>
        <time>2022-11-02T16:02:12.000Z</time>
      </trkpt>
      <trkpt lat="43.57135" lon="6.11119">
        <ele>484.1</ele>
        <time>2022-11-02T16:02:21.000Z</time>
      </trkpt>
      <trkpt lat="43.57133" lon="6.11133">
        <ele>484.1</ele>
        <time>2022-11-02T16:02:30.000Z</time>
      </trkpt>
      <trkpt lat="43.57128" lon="6.11144">
        <ele>484.1</ele>
        <time>2022-11-02T16:02:39.000Z</time>
      </trkpt>
      <trkpt lat="43.57131" lon="6.11157">
        <ele>483.5</ele>
        <time>2022-11-02T16:02:48.000Z</time>
      </trkpt>
      <trkpt lat="43.57133" lon="6.11169">
        <ele>483</ele>
        <time>2022-11-02T16:02:56.000Z</time>
      </trkpt>
      <trkpt lat="43.5713" lon="6.11181">
        <ele>482.4</ele>
        <time>2022-11-02T16:03:06.000Z</time>
      </trkpt>
      <trkpt lat="43.57128" lon="6.11194">
        <ele>482.4</ele>
        <time>2022-11-02T16:03:13.000Z</time>
      </trkpt>
      <trkpt lat="43.57129" lon="6.11207">
        <ele>482.7</ele>
        <time>2022-11-02T16:03:24.000Z</time>
      </trkpt>
      <trkpt lat="43.57135" lon="6.11218">
        <ele>482.8</ele>
        <time>2022-11-02T16:03:31.000Z</time>
      </trkpt>
      <trkpt lat="43.57141" lon="6.11229">
        <ele>482.5</ele>
        <time>2022-11-02T16:03:39.000Z</time>
      </trkpt>
      <trkpt lat="43.57149" lon="6.11236">
        <ele>481.7</ele>
        <time>2022-11-02T16:03:48.000Z</time>
      </trkpt>
      <trkpt lat="43.57156" lon="6.11247">
        <ele>482.1</ele>
        <time>2022-11-02T16:03:56.000Z</time>
      </trkpt>
      <trkpt lat="43.57158" lon="6.1126">
        <ele>482.1</ele>
        <time>2022-11-02T16:04:06.000Z</time>
      </trkpt>
      <trkpt lat="43.57163" lon="6.1127">
        <ele>482.2</ele>
        <time>2022-11-02T16:04:14.000Z</time>
      </trkpt>
      <trkpt lat="43.57171" lon="6.11278">
        <ele>481.9</ele>
        <time>2022-11-02T16:04:22.000Z</time>
      </trkpt>
      <trkpt lat="43.57179" lon="6.11287">
        <ele>481.7</ele>
        <time>2022-11-02T16:04:30.000Z</time>
      </trkpt>
      <trkpt lat="43.57186" lon="6.11296">
        <ele>481.2</ele>
        <time>2022-11-02T16:04:38.000Z</time>
      </trkpt>
      <trkpt lat="43.57194" lon="6.11304">
        <ele>480.3</ele>
        <time>2022-11-02T16:04:47.000Z</time>
      </trkpt>
      <trkpt lat="43.57203" lon="6.113">
        <ele>479.5</ele>
        <time>2022-11-02T16:04:54.000Z</time>
      </trkpt>
      <trkpt lat="43.57212" lon="6.11299">
        <ele>478.7</ele>
        <time>2022-11-02T16:05:02.000Z</time>
      </trkpt>
      <trkpt lat="43.57222" lon="6.11301">
        <ele>477.7</ele>
        <time>2022-11-02T16:05:12.000Z</time>
      </trkpt>
      <trkpt lat="43.57231" lon="6.11304">
        <ele>476.1</ele>
        <time>2022-11-02T16:05:21.000Z</time>
      </trkpt>
      <trkpt lat="43.57241" lon="6.11304">
        <ele>475.4</ele>
        <time>2022-11-02T16:05:30.000Z</time>
      </trkpt>
      <trkpt lat="43.57249" lon="6.11297">
        <ele>475.2</ele>
        <time>2022-11-02T16:05:38.000Z</time>
      </trkpt>
      <trkpt lat="43.57258" lon="6.11298">
        <ele>474.1</ele>
        <time>2022-11-02T16:05:49.000Z</time>
      </trkpt>
      <trkpt lat="43.57267" lon="6.11298">
        <ele>473.3</ele>
        <time>2022-11-02T16:05:58.000Z</time>
      </trkpt>
      <trkpt lat="43.57277" lon="6.11301">
        <ele>473</ele>
        <time>2022-11-02T16:06:06.000Z</time>
      </trkpt>
      <trkpt lat="43.57286" lon="6.11298">
        <ele>472.5</ele>
        <time>2022-11-02T16:06:14.000Z</time>
      </trkpt>
      <trkpt lat="43.57295" lon="6.11294">
        <ele>471.8</ele>
        <time>2022-11-02T16:06:26.000Z</time>
      </trkpt>
      <trkpt lat="43.57305" lon="6.1129">
        <ele>471.5</ele>
        <time>2022-11-02T16:06:34.000Z</time>
      </trkpt>
      <trkpt lat="43.57314" lon="6.1129">
        <ele>471.2</ele>
        <time>2022-11-02T16:06:41.000Z</time>
      </trkpt>
      <trkpt lat="43.57324" lon="6.11287">
        <ele>470.6</ele>
        <time>2022-11-02T16:06:52.000Z</time>
      </trkpt>
      <trkpt lat="43.57333" lon="6.11283">
        <ele>470.3</ele>
        <time>2022-11-02T16:07:00.000Z</time>
      </trkpt>
      <trkpt lat="43.57342" lon="6.11277">
        <ele>470.2</ele>
        <time>2022-11-02T16:07:07.000Z</time>
      </trkpt>
      <trkpt lat="43.57352" lon="6.11274">
        <ele>469.5</ele>
        <time>2022-11-02T16:07:17.000Z</time>
      </trkpt>
      <trkpt lat="43.57362" lon="6.11272">
        <ele>469.5</ele>
        <time>2022-11-02T16:07:25.000Z</time>
      </trkpt>
      <trkpt lat="43.57371" lon="6.11268">
        <ele>469</ele>
        <time>2022-11-02T16:07:34.000Z</time>
      </trkpt>
      <trkpt lat="43.5738" lon="6.11266">
        <ele>468.4</ele>
        <time>2022-11-02T16:07:45.000Z</time>
      </trkpt>
      <trkpt lat="43.5739" lon="6.11267">
        <ele>468.1</ele>
        <time>2022-11-02T16:07:54.000Z</time>
      </trkpt>
      <trkpt lat="43.57399" lon="6.11267">
        <ele>467</ele>
        <time>2022-11-02T16:08:03.000Z</time>
      </trkpt>
      <trkpt lat="43.57409" lon="6.11265">
        <ele>466.2</ele>
        <time>2022-11-02T16:08:12.000Z</time>
      </trkpt>
      <trkpt lat="43.57417" lon="6.11261">
        <ele>465.6</ele>
        <time>2022-11-02T16:08:19.000Z</time>
      </trkpt>
      <trkpt lat="43.57426" lon="6.11257">
        <ele>464.9</ele>
        <time>2022-11-02T16:08:29.000Z</time>
      </trkpt>
      <trkpt lat="43.57436" lon="6.11254">
        <ele>464.5</ele>
        <time>2022-11-02T16:08:38.000Z</time>
      </trkpt>
      <trkpt lat="43.57444" lon="6.11248">
        <ele>464.2</ele>
        <time>2022-11-02T16:08:47.000Z</time>
      </trkpt>
      <trkpt lat="43.57451" lon="6.11241">
        <ele>464.1</ele>
        <time>2022-11-02T16:08:55.000Z</time>
      </trkpt>
      <trkpt lat="43.57461" lon="6.11239">
        <ele>463.2</ele>
        <time>2022-11-02T16:09:05.000Z</time>
      </trkpt>
      <trkpt lat="43.5747" lon="6.11243">
        <ele>462.6</ele>
        <time>2022-11-02T16:09:16.000Z</time>
      </trkpt>
      <trkpt lat="43.5748" lon="6.11245">
        <ele>462.1</ele>
        <time>2022-11-02T16:09:25.000Z</time>
      </trkpt>
      <trkpt lat="43.57488" lon="6.11247">
        <ele>461.9</ele>
        <time>2022-11-02T16:09:33.000Z</time>
      </trkpt>
      <trkpt lat="43.57498" lon="6.11247">
        <ele>461.3</ele>
        <time>2022-11-02T16:09:42.000Z</time>
      </trkpt>
      <trkpt lat="43.57507" lon="6.11247">
        <ele>461.1</ele>
        <time>2022-11-02T16:09:49.000Z</time>
      </trkpt>
      <trkpt lat="43.57516" lon="6.11247">
        <ele>460.2</ele>
        <time>2022-11-02T16:10:00.000Z</time>
      </trkpt>
      <trkpt lat="43.57517" lon="6.11248">
        <ele>460.1</ele>
        <time>2022-11-02T16:10:05.000Z</time>
      </trkpt>
      <trkpt lat="43.57517" lon="6.11247">
        <ele>460.1</ele>
        <time>2022-11-02T16:10:41.000Z</time>
      </trkpt>
      <trkpt lat="43.57517" lon="6.11245">
        <ele>460</ele>
        <time>2022-11-02T16:10:44.000Z</time>
      </trkpt>
      <trkpt lat="43.57518" lon="6.11245">
        <ele>460</ele>
        <time>2022-11-02T16:10:49.000Z</time>
      </trkpt>
      <trkpt lat="43.57527" lon="6.1124">
        <ele>459.3</ele>
        <time>2022-11-02T16:10:58.000Z</time>
      </trkpt>
      <trkpt lat="43.57535" lon="6.11235">
        <ele>459.6</ele>
        <time>2022-11-02T16:11:07.000Z</time>
      </trkpt>
      <trkpt lat="43.57539" lon="6.11232">
        <ele>459.3</ele>
        <time>2022-11-02T16:11:18.000Z</time>
      </trkpt>
      <trkpt lat="43.5754" lon="6.11231">
        <ele>458.9</ele>
        <time>2022-11-02T16:11:20.000Z</time>
      </trkpt>
      <trkpt lat="43.57544" lon="6.1122">
        <ele>458.4</ele>
        <time>2022-11-02T16:11:33.000Z</time>
      </trkpt>
      <trkpt lat="43.57549" lon="6.11209">
        <ele>458.2</ele>
        <time>2022-11-02T16:11:44.000Z</time>
      </trkpt>
      <trkpt lat="43.57553" lon="6.11197">
        <ele>458.4</ele>
        <time>2022-11-02T16:11:53.000Z</time>
      </trkpt>
      <trkpt lat="43.57557" lon="6.11185">
        <ele>458.2</ele>
        <time>2022-11-02T16:12:01.000Z</time>
      </trkpt>
      <trkpt lat="43.5755" lon="6.11174">
        <ele>458.2</ele>
        <time>2022-11-02T16:12:09.000Z</time>
      </trkpt>
      <trkpt lat="43.57551" lon="6.11161">
        <ele>457.8</ele>
        <time>2022-11-02T16:12:19.000Z</time>
      </trkpt>
      <trkpt lat="43.57551" lon="6.11148">
        <ele>457.7</ele>
        <time>2022-11-02T16:12:29.000Z</time>
      </trkpt>
      <trkpt lat="43.57553" lon="6.11135">
        <ele>456.8</ele>
        <time>2022-11-02T16:12:41.000Z</time>
      </trkpt>
      <trkpt lat="43.57553" lon="6.11122">
        <ele>456.8</ele>
        <time>2022-11-02T16:12:50.000Z</time>
      </trkpt>
      <trkpt lat="43.57552" lon="6.11108">
        <ele>456.8</ele>
        <time>2022-11-02T16:12:58.000Z</time>
      </trkpt>
      <trkpt lat="43.57552" lon="6.11095">
        <ele>456.4</ele>
        <time>2022-11-02T16:13:07.000Z</time>
      </trkpt>
      <trkpt lat="43.57551" lon="6.11082">
        <ele>456.2</ele>
        <time>2022-11-02T16:13:17.000Z</time>
      </trkpt>
      <trkpt lat="43.57545" lon="6.11071">
        <ele>455.9</ele>
        <time>2022-11-02T16:13:24.000Z</time>
      </trkpt>
      <trkpt lat="43.57541" lon="6.1106">
        <ele>455.8</ele>
        <time>2022-11-02T16:13:32.000Z</time>
      </trkpt>
      <trkpt lat="43.57537" lon="6.11048">
        <ele>455.3</ele>
        <time>2022-11-02T16:13:40.000Z</time>
      </trkpt>
      <trkpt lat="43.57538" lon="6.11035">
        <ele>455.5</ele>
        <time>2022-11-02T16:13:51.000Z</time>
      </trkpt>
      <trkpt lat="43.57538" lon="6.11031">
        <ele>455.4</ele>
        <time>2022-11-02T16:14:00.000Z</time>
      </trkpt>
      <trkpt lat="43.57538" lon="6.11031">
        <ele>455.4</ele>
        <time>2022-11-02T16:14:01.000Z</time>
      </trkpt>
      <trkpt lat="43.57534" lon="6.11029">
        <ele>455.4</ele>
        <time>2022-11-02T16:14:13.000Z</time>
      </trkpt>
      <trkpt lat="43.57534" lon="6.11029">
        <ele>455.3</ele>
        <time>2022-11-02T16:14:15.000Z</time>
      </trkpt>
      <trkpt lat="43.57535" lon="6.11028">
        <ele>455.6</ele>
        <time>2022-11-02T16:14:18.000Z</time>
      </trkpt>
      <trkpt lat="43.57534" lon="6.11028">
        <ele>455.4</ele>
        <time>2022-11-02T16:14:24.000Z</time>
      </trkpt>
      <trkpt lat="43.57534" lon="6.11028">
        <ele>455.5</ele>
        <time>2022-11-02T16:14:25.000Z</time>
      </trkpt>
      <trkpt lat="43.57535" lon="6.11027">
        <ele>455.4</ele>
        <time>2022-11-02T16:14:35.000Z</time>
      </trkpt>
      <trkpt lat="43.57535" lon="6.11027">
        <ele>455.4</ele>
        <time>2022-11-02T16:14:36.000Z</time>
      </trkpt>
      <trkpt lat="43.57535" lon="6.11027">
        <ele>455.4</ele>
        <time>2022-11-02T16:14:37.000Z</time>
      </trkpt>
      <trkpt lat="43.57536" lon="6.11027">
        <ele>455.4</ele>
        <time>2022-11-02T16:14:39.000Z</time>
      </trkpt>
      <trkpt lat="43.57536" lon="6.11027">
        <ele>455.4</ele>
        <time>2022-11-02T16:14:51.000Z</time>
      </trkpt>
      <trkpt lat="43.57536" lon="6.11027">
        <ele>455.5</ele>
        <time>2022-11-02T16:14:52.000Z</time>
      </trkpt>
      <trkpt lat="43.57536" lon="6.11027">
        <ele>455.5</ele>
        <time>2022-11-02T16:15:01.000Z</time>
      </trkpt>
      <trkpt lat="43.57537" lon="6.11027">
        <ele>455.5</ele>
        <time>2022-11-02T16:15:04.000Z</time>
      </trkpt>
      <trkpt lat="43.57537" lon="6.11027">
        <ele>455.4</ele>
        <time>2022-11-02T16:15:20.000Z</time>
      </trkpt>
      <trkpt lat="43.57537" lon="6.11027">
        <ele>455.3</ele>
        <time>2022-11-02T16:15:21.000Z</time>
      </trkpt>
      <trkpt lat="43.57537" lon="6.11028">
        <ele>455.5</ele>
        <time>2022-11-02T16:15:51.000Z</time>
      </trkpt>
      <trkpt lat="43.57537" lon="6.11028">
        <ele>455.5</ele>
        <time>2022-11-02T16:15:52.000Z</time>
      </trkpt>
      <trkpt lat="43.57537" lon="6.11027">
        <ele>455.3</ele>
        <time>2022-11-02T16:15:56.000Z</time>
      </trkpt>
      <trkpt lat="43.57536" lon="6.11028">
        <ele>455.3</ele>
        <time>2022-11-02T16:15:58.000Z</time>
      </trkpt>
      <trkpt lat="43.57537" lon="6.11028">
        <ele>455.5</ele>
        <time>2022-11-02T16:16:07.000Z</time>
      </trkpt>
      <trkpt lat="43.57537" lon="6.11028">
        <ele>455.5</ele>
        <time>2022-11-02T16:16:11.000Z</time>
      </trkpt>
      <trkpt lat="43.57536" lon="6.11028">
        <ele>455.3</ele>
        <time>2022-11-02T16:16:14.000Z</time>
      </trkpt>
      <trkpt lat="43.57537" lon="6.11017">
        <ele>455.4</ele>
        <time>2022-11-02T16:16:34.000Z</time>
      </trkpt>
      <trkpt lat="43.57537" lon="6.11017">
        <ele>455.4</ele>
        <time>2022-11-02T16:16:36.000Z</time>
      </trkpt>
      <trkpt lat="43.57537" lon="6.11017">
        <ele>455.4</ele>
        <time>2022-11-02T16:16:37.000Z</time>
      </trkpt>
      <trkpt lat="43.57537" lon="6.11017">
        <ele>455.4</ele>
        <time>2022-11-02T16:16:38.000Z</time>
      </trkpt>
      <trkpt lat="43.57537" lon="6.11017">
        <ele>455.4</ele>
        <time>2022-11-02T16:16:39.000Z</time>
      </trkpt>
      <trkpt lat="43.57537" lon="6.11017">
        <ele>455.7</ele>
        <time>2022-11-02T16:16:55.000Z</time>
      </trkpt>
      <trkpt lat="43.57537" lon="6.11017">
        <ele>455.7</ele>
        <time>2022-11-02T16:16:56.000Z</time>
      </trkpt>
      <trkpt lat="43.57537" lon="6.11017">
        <ele>455.7</ele>
        <time>2022-11-02T16:16:57.000Z</time>
      </trkpt>
      <trkpt lat="43.57537" lon="6.11017">
        <ele>455.7</ele>
        <time>2022-11-02T16:16:58.000Z</time>
      </trkpt>
      <trkpt lat="43.57537" lon="6.11017">
        <ele>455.6</ele>
        <time>2022-11-02T16:17:00.000Z</time>
      </trkpt>
      <trkpt lat="43.57531" lon="6.11006">
        <ele>455.5</ele>
        <time>2022-11-02T16:17:09.000Z</time>
      </trkpt>
      <trkpt lat="43.57526" lon="6.10994">
        <ele>455.2</ele>
        <time>2022-11-02T16:17:17.000Z</time>
      </trkpt>
      <trkpt lat="43.57521" lon="6.10982">
        <ele>455.3</ele>
        <time>2022-11-02T16:17:25.000Z</time>
      </trkpt>
      <trkpt lat="43.57516" lon="6.10972">
        <ele>455.3</ele>
        <time>2022-11-02T16:17:34.000Z</time>
      </trkpt>
      <trkpt lat="43.5751" lon="6.10961">
        <ele>455.3</ele>
        <time>2022-11-02T16:17:43.000Z</time>
      </trkpt>
      <trkpt lat="43.57505" lon="6.10951">
        <ele>455.3</ele>
        <time>2022-11-02T16:17:53.000Z</time>
      </trkpt>
      <trkpt lat="43.57499" lon="6.1094">
        <ele>455.3</ele>
        <time>2022-11-02T16:18:03.000Z</time>
      </trkpt>
      <trkpt lat="43.57494" lon="6.10934">
        <ele>455.3</ele>
        <time>2022-11-02T16:18:12.000Z</time>
      </trkpt>
      <trkpt lat="43.57494" lon="6.10934">
        <ele>455.3</ele>
        <time>2022-11-02T16:18:13.000Z</time>
      </trkpt>
      <trkpt lat="43.57491" lon="6.10934">
        <ele>455.3</ele>
        <time>2022-11-02T16:18:20.000Z</time>
      </trkpt>
      <trkpt lat="43.57491" lon="6.10934">
        <ele>455.5</ele>
        <time>2022-11-02T16:18:27.000Z</time>
      </trkpt>
      <trkpt lat="43.57491" lon="6.10937">
        <ele>455.5</ele>
        <time>2022-11-02T16:18:32.000Z</time>
      </trkpt>
      <trkpt lat="43.57491" lon="6.10937">
        <ele>455.5</ele>
        <time>2022-11-02T16:18:44.000Z</time>
      </trkpt>
      <trkpt lat="43.57491" lon="6.10938">
        <ele>455.5</ele>
        <time>2022-11-02T16:18:46.000Z</time>
      </trkpt>
      <trkpt lat="43.57491" lon="6.10938">
        <ele>455.3</ele>
        <time>2022-11-02T16:18:55.000Z</time>
      </trkpt>
      <trkpt lat="43.57489" lon="6.10938">
        <ele>455.5</ele>
        <time>2022-11-02T16:19:00.000Z</time>
      </trkpt>
      <trkpt lat="43.57489" lon="6.10937">
        <ele>455.7</ele>
        <time>2022-11-02T16:19:02.000Z</time>
      </trkpt>
      <trkpt lat="43.57489" lon="6.10937">
        <ele>455.7</ele>
        <time>2022-11-02T16:19:03.000Z</time>
      </trkpt>
      <trkpt lat="43.57489" lon="6.10937">
        <ele>455.4</ele>
        <time>2022-11-02T16:19:15.000Z</time>
      </trkpt>
      <trkpt lat="43.57489" lon="6.10937">
        <ele>455.4</ele>
        <time>2022-11-02T16:19:16.000Z</time>
      </trkpt>
      <trkpt lat="43.57489" lon="6.10936">
        <ele>455.4</ele>
        <time>2022-11-02T16:19:32.000Z</time>
      </trkpt>
      <trkpt lat="43.57491" lon="6.10931">
        <ele>455.7</ele>
        <time>2022-11-02T16:19:40.000Z</time>
      </trkpt>
      <trkpt lat="43.57491" lon="6.10931">
        <ele>455.6</ele>
        <time>2022-11-02T16:20:08.000Z</time>
      </trkpt>
      <trkpt lat="43.57491" lon="6.10931">
        <ele>455.6</ele>
        <time>2022-11-02T16:20:09.000Z</time>
      </trkpt>
      <trkpt lat="43.5749" lon="6.10931">
        <ele>455.6</ele>
        <time>2022-11-02T16:20:27.000Z</time>
      </trkpt>
      <trkpt lat="43.5749" lon="6.10932">
        <ele>455.8</ele>
        <time>2022-11-02T16:20:30.000Z</time>
      </trkpt>
      <trkpt lat="43.5749" lon="6.10932">
        <ele>455.5</ele>
        <time>2022-11-02T16:20:34.000Z</time>
      </trkpt>
      <trkpt lat="43.5749" lon="6.10932">
        <ele>455.7</ele>
        <time>2022-11-02T16:20:37.000Z</time>
      </trkpt>
      <trkpt lat="43.5749" lon="6.10932">
        <ele>455.9</ele>
        <time>2022-11-02T16:21:21.000Z</time>
      </trkpt>
      <trkpt lat="43.57489" lon="6.1093">
        <ele>455.8</ele>
        <time>2022-11-02T16:21:27.000Z</time>
      </trkpt>
      <trkpt lat="43.57489" lon="6.1093">
        <ele>455.9</ele>
        <time>2022-11-02T16:21:35.000Z</time>
      </trkpt>
      <trkpt lat="43.57489" lon="6.1093">
        <ele>455.8</ele>
        <time>2022-11-02T16:21:36.000Z</time>
      </trkpt>
      <trkpt lat="43.5749" lon="6.1093">
        <ele>455.6</ele>
        <time>2022-11-02T16:21:37.000Z</time>
      </trkpt>
      <trkpt lat="43.5749" lon="6.1093">
        <ele>455.8</ele>
        <time>2022-11-02T16:21:39.000Z</time>
      </trkpt>
      <trkpt lat="43.5749" lon="6.1093">
        <ele>455.7</ele>
        <time>2022-11-02T16:21:41.000Z</time>
      </trkpt>
      <trkpt lat="43.5749" lon="6.1093">
        <ele>455.7</ele>
        <time>2022-11-02T16:21:42.000Z</time>
      </trkpt>
      <trkpt lat="43.57489" lon="6.10931">
        <ele>455.7</ele>
        <time>2022-11-02T16:21:43.000Z</time>
      </trkpt>
      <trkpt lat="43.57489" lon="6.10933">
        <ele>455.6</ele>
        <time>2022-11-02T16:21:45.000Z</time>
      </trkpt>
      <trkpt lat="43.5749" lon="6.10933">
        <ele>455.6</ele>
        <time>2022-11-02T16:21:46.000Z</time>
      </trkpt>
      <trkpt lat="43.5749" lon="6.10933">
        <ele>455.6</ele>
        <time>2022-11-02T16:21:47.000Z</time>
      </trkpt>
      <trkpt lat="43.5749" lon="6.10933">
        <ele>455.6</ele>
        <time>2022-11-02T16:21:51.000Z</time>
      </trkpt>
      <trkpt lat="43.5749" lon="6.10933">
        <ele>455.6</ele>
        <time>2022-11-02T16:21:52.000Z</time>
      </trkpt>
      <trkpt lat="43.5749" lon="6.10933">
        <ele>455.6</ele>
        <time>2022-11-02T16:21:55.000Z</time>
      </trkpt>
      <trkpt lat="43.5749" lon="6.10933">
        <ele>455.6</ele>
        <time>2022-11-02T16:21:56.000Z</time>
      </trkpt>
      <trkpt lat="43.5749" lon="6.10933">
        <ele>455.5</ele>
        <time>2022-11-02T16:21:57.000Z</time>
      </trkpt>
      <trkpt lat="43.57489" lon="6.10934">
        <ele>455.8</ele>
        <time>2022-11-02T16:22:01.000Z</time>
      </trkpt>
      <trkpt lat="43.57489" lon="6.10934">
        <ele>455.8</ele>
        <time>2022-11-02T16:22:02.000Z</time>
      </trkpt>
      <trkpt lat="43.57481" lon="6.10929">
        <ele>455.9</ele>
        <time>2022-11-02T16:22:18.000Z</time>
      </trkpt>
      <trkpt lat="43.57474" lon="6.10918">
        <ele>455.9</ele>
        <time>2022-11-02T16:22:28.000Z</time>
      </trkpt>
      <trkpt lat="43.57466" lon="6.10913">
        <ele>456</ele>
        <time>2022-11-02T16:22:35.000Z</time>
      </trkpt>
      <trkpt lat="43.57458" lon="6.10907">
        <ele>455.9</ele>
        <time>2022-11-02T16:22:58.000Z</time>
      </trkpt>
      <trkpt lat="43.57451" lon="6.10898">
        <ele>456</ele>
        <time>2022-11-02T16:23:08.000Z</time>
      </trkpt>
      <trkpt lat="43.57444" lon="6.10888">
        <ele>456</ele>
        <time>2022-11-02T16:23:17.000Z</time>
      </trkpt>
      <trkpt lat="43.57443" lon="6.10875">
        <ele>456</ele>
        <time>2022-11-02T16:23:28.000Z</time>
      </trkpt>
      <trkpt lat="43.57443" lon="6.10862">
        <ele>456.4</ele>
        <time>2022-11-02T16:23:39.000Z</time>
      </trkpt>
      <trkpt lat="43.57436" lon="6.10852">
        <ele>456.5</ele>
        <time>2022-11-02T16:23:45.000Z</time>
      </trkpt>
      <trkpt lat="43.57434" lon="6.1084">
        <ele>457.4</ele>
        <time>2022-11-02T16:23:59.000Z</time>
      </trkpt>
      <trkpt lat="43.57434" lon="6.1084">
        <ele>457.3</ele>
        <time>2022-11-02T16:24:00.000Z</time>
      </trkpt>
      <trkpt lat="43.57434" lon="6.1084">
        <ele>457.1</ele>
        <time>2022-11-02T16:24:02.000Z</time>
      </trkpt>
      <trkpt lat="43.57434" lon="6.1084">
        <ele>457.2</ele>
        <time>2022-11-02T16:24:03.000Z</time>
      </trkpt>
      <trkpt lat="43.57434" lon="6.10841">
        <ele>457.3</ele>
        <time>2022-11-02T16:24:09.000Z</time>
      </trkpt>
      <trkpt lat="43.57431" lon="6.10842">
        <ele>457.3</ele>
        <time>2022-11-02T16:24:18.000Z</time>
      </trkpt>
      <trkpt lat="43.57431" lon="6.10842">
        <ele>457</ele>
        <time>2022-11-02T16:24:24.000Z</time>
      </trkpt>
      <trkpt lat="43.57431" lon="6.10842">
        <ele>457.1</ele>
        <time>2022-11-02T16:24:26.000Z</time>
      </trkpt>
      <trkpt lat="43.57431" lon="6.10842">
        <ele>456.9</ele>
        <time>2022-11-02T16:24:30.000Z</time>
      </trkpt>
      <trkpt lat="43.57431" lon="6.10842">
        <ele>456.9</ele>
        <time>2022-11-02T16:24:31.000Z</time>
      </trkpt>
      <trkpt lat="43.5743" lon="6.10842">
        <ele>457</ele>
        <time>2022-11-02T16:24:32.000Z</time>
      </trkpt>
      <trkpt lat="43.57429" lon="6.10841">
        <ele>457</ele>
        <time>2022-11-02T16:24:35.000Z</time>
      </trkpt>
      <trkpt lat="43.57429" lon="6.10841">
        <ele>457.2</ele>
        <time>2022-11-02T16:24:42.000Z</time>
      </trkpt>
      <trkpt lat="43.57429" lon="6.10841">
        <ele>457.1</ele>
        <time>2022-11-02T16:24:43.000Z</time>
      </trkpt>
      <trkpt lat="43.57429" lon="6.10841">
        <ele>457.1</ele>
        <time>2022-11-02T16:25:04.000Z</time>
      </trkpt>
      <trkpt lat="43.57429" lon="6.1084">
        <ele>457</ele>
        <time>2022-11-02T16:25:06.000Z</time>
      </trkpt>
      <trkpt lat="43.57428" lon="6.1084">
        <ele>457.2</ele>
        <time>2022-11-02T16:25:21.000Z</time>
      </trkpt>
      <trkpt lat="43.57428" lon="6.1084">
        <ele>457.2</ele>
        <time>2022-11-02T16:25:22.000Z</time>
      </trkpt>
      <trkpt lat="43.57428" lon="6.10839">
        <ele>457.3</ele>
        <time>2022-11-02T16:25:36.000Z</time>
      </trkpt>
      <trkpt lat="43.5743" lon="6.10826">
        <ele>457.5</ele>
        <time>2022-11-02T16:25:47.000Z</time>
      </trkpt>
      <trkpt lat="43.5743" lon="6.10813">
        <ele>457.7</ele>
        <time>2022-11-02T16:25:57.000Z</time>
      </trkpt>
      <trkpt lat="43.57432" lon="6.10799">
        <ele>457.9</ele>
        <time>2022-11-02T16:26:08.000Z</time>
      </trkpt>
      <trkpt lat="43.57433" lon="6.10785">
        <ele>458.2</ele>
        <time>2022-11-02T16:26:18.000Z</time>
      </trkpt>
      <trkpt lat="43.57432" lon="6.10773">
        <ele>458.2</ele>
        <time>2022-11-02T16:26:25.000Z</time>
      </trkpt>
      <trkpt lat="43.57429" lon="6.10759">
        <ele>458.2</ele>
        <time>2022-11-02T16:26:33.000Z</time>
      </trkpt>
      <trkpt lat="43.57435" lon="6.1075">
        <ele>457.7</ele>
        <time>2022-11-02T16:26:49.000Z</time>
      </trkpt>
      <trkpt lat="43.57442" lon="6.10742">
        <ele>458.1</ele>
        <time>2022-11-02T16:26:57.000Z</time>
      </trkpt>
      <trkpt lat="43.57451" lon="6.10736">
        <ele>458.2</ele>
        <time>2022-11-02T16:27:05.000Z</time>
      </trkpt>
      <trkpt lat="43.5746" lon="6.10733">
        <ele>458</ele>
        <time>2022-11-02T16:27:15.000Z</time>
      </trkpt>
      <trkpt lat="43.57469" lon="6.10739">
        <ele>457.5</ele>
        <time>2022-11-02T16:27:31.000Z</time>
      </trkpt>
      <trkpt lat="43.57479" lon="6.10741">
        <ele>457.9</ele>
        <time>2022-11-02T16:27:41.000Z</time>
      </trkpt>
      <trkpt lat="43.57488" lon="6.10741">
        <ele>458.1</ele>
        <time>2022-11-02T16:27:48.000Z</time>
      </trkpt>
      <trkpt lat="43.57497" lon="6.10743">
        <ele>458.1</ele>
        <time>2022-11-02T16:27:58.000Z</time>
      </trkpt>
      <trkpt lat="43.57506" lon="6.1074">
        <ele>458.9</ele>
        <time>2022-11-02T16:28:06.000Z</time>
      </trkpt>
      <trkpt lat="43.57515" lon="6.10741">
        <ele>459.5</ele>
        <time>2022-11-02T16:28:12.000Z</time>
      </trkpt>
      <trkpt lat="43.57524" lon="6.10738">
        <ele>461</ele>
        <time>2022-11-02T16:28:22.000Z</time>
      </trkpt>
      <trkpt lat="43.57533" lon="6.10735">
        <ele>462.5</ele>
        <time>2022-11-02T16:28:38.000Z</time>
      </trkpt>
      <trkpt lat="43.57543" lon="6.10736">
        <ele>463.1</ele>
        <time>2022-11-02T16:28:48.000Z</time>
      </trkpt>
      <trkpt lat="43.57553" lon="6.10738">
        <ele>464</ele>
        <time>2022-11-02T16:28:56.000Z</time>
      </trkpt>
      <trkpt lat="43.57562" lon="6.1073">
        <ele>464.3</ele>
        <time>2022-11-02T16:29:07.000Z</time>
      </trkpt>
      <trkpt lat="43.5757" lon="6.10727">
        <ele>464.8</ele>
        <time>2022-11-02T16:29:17.000Z</time>
      </trkpt>
      <trkpt lat="43.57579" lon="6.10721">
        <ele>465.2</ele>
        <time>2022-11-02T16:29:24.000Z</time>
      </trkpt>
      <trkpt lat="43.57586" lon="6.10711">
        <ele>465.6</ele>
        <time>2022-11-02T16:29:34.000Z</time>
      </trkpt>
      <trkpt lat="43.57596" lon="6.10708">
        <ele>466</ele>
        <time>2022-11-02T16:29:43.000Z</time>
      </trkpt>
      <trkpt lat="43.57605" lon="6.10705">
        <ele>466.6</ele>
        <time>2022-11-02T16:29:53.000Z</time>
      </trkpt>
      <trkpt lat="43.57615" lon="6.10702">
        <ele>467.3</ele>
        <time>2022-11-02T16:30:05.000Z</time>
      </trkpt>
      <trkpt lat="43.57624" lon="6.107">
        <ele>468.1</ele>
        <time>2022-11-02T16:30:15.000Z</time>
      </trkpt>
      <trkpt lat="43.57633" lon="6.10699">
        <ele>468.2</ele>
        <time>2022-11-02T16:30:25.000Z</time>
      </trkpt>
      <trkpt lat="43.57643" lon="6.10695">
        <ele>468.9</ele>
        <time>2022-11-02T16:30:34.000Z</time>
      </trkpt>
      <trkpt lat="43.57653" lon="6.10692">
        <ele>469</ele>
        <time>2022-11-02T16:30:41.000Z</time>
      </trkpt>
      <trkpt lat="43.57662" lon="6.10688">
        <ele>469</ele>
        <time>2022-11-02T16:30:49.000Z</time>
      </trkpt>
      <trkpt lat="43.57672" lon="6.10685">
        <ele>469.3</ele>
        <time>2022-11-02T16:30:57.000Z</time>
      </trkpt>
      <trkpt lat="43.57681" lon="6.10684">
        <ele>469.7</ele>
        <time>2022-11-02T16:31:07.000Z</time>
      </trkpt>
      <trkpt lat="43.57692" lon="6.1068">
        <ele>470</ele>
        <time>2022-11-02T16:31:15.000Z</time>
      </trkpt>
      <trkpt lat="43.57701" lon="6.10677">
        <ele>470</ele>
        <time>2022-11-02T16:31:23.000Z</time>
      </trkpt>
      <trkpt lat="43.5771" lon="6.10672">
        <ele>470</ele>
        <time>2022-11-02T16:31:31.000Z</time>
      </trkpt>
      <trkpt lat="43.5772" lon="6.10668">
        <ele>470.5</ele>
        <time>2022-11-02T16:31:39.000Z</time>
      </trkpt>
      <trkpt lat="43.57729" lon="6.10664">
        <ele>471.1</ele>
        <time>2022-11-02T16:31:50.000Z</time>
      </trkpt>
      <trkpt lat="43.57738" lon="6.10662">
        <ele>471.4</ele>
        <time>2022-11-02T16:31:58.000Z</time>
      </trkpt>
      <trkpt lat="43.57748" lon="6.1066">
        <ele>471.4</ele>
        <time>2022-11-02T16:32:06.000Z</time>
      </trkpt>
      <trkpt lat="43.57758" lon="6.10657">
        <ele>471.8</ele>
        <time>2022-11-02T16:32:12.000Z</time>
      </trkpt>
      <trkpt lat="43.57766" lon="6.10652">
        <ele>471.9</ele>
        <time>2022-11-02T16:32:23.000Z</time>
      </trkpt>
      <trkpt lat="43.57776" lon="6.10649">
        <ele>472</ele>
        <time>2022-11-02T16:32:31.000Z</time>
      </trkpt>
      <trkpt lat="43.57777" lon="6.10647">
        <ele>472.3</ele>
        <time>2022-11-02T16:32:36.000Z</time>
      </trkpt>
      <trkpt lat="43.57777" lon="6.10647">
        <ele>472</ele>
        <time>2022-11-02T16:32:41.000Z</time>
      </trkpt>
      <trkpt lat="43.57778" lon="6.10647">
        <ele>472</ele>
        <time>2022-11-02T16:32:45.000Z</time>
      </trkpt>
      <trkpt lat="43.57779" lon="6.10647">
        <ele>472.1</ele>
        <time>2022-11-02T16:32:52.000Z</time>
      </trkpt>
      <trkpt lat="43.57779" lon="6.10647">
        <ele>472.2</ele>
        <time>2022-11-02T16:32:53.000Z</time>
      </trkpt>
      <trkpt lat="43.57779" lon="6.10647">
        <ele>472.1</ele>
        <time>2022-11-02T16:32:54.000Z</time>
      </trkpt>
      <trkpt lat="43.5778" lon="6.10646">
        <ele>472.2</ele>
        <time>2022-11-02T16:32:57.000Z</time>
      </trkpt>
      <trkpt lat="43.5778" lon="6.10646">
        <ele>472.1</ele>
        <time>2022-11-02T16:33:00.000Z</time>
      </trkpt>
      <trkpt lat="43.57782" lon="6.1065">
        <ele>472.2</ele>
        <time>2022-11-02T16:33:08.000Z</time>
      </trkpt>
      <trkpt lat="43.57782" lon="6.1065">
        <ele>472.3</ele>
        <time>2022-11-02T16:33:10.000Z</time>
      </trkpt>
      <trkpt lat="43.57783" lon="6.1065">
        <ele>471.5</ele>
        <time>2022-11-02T16:33:18.000Z</time>
      </trkpt>
      <trkpt lat="43.57783" lon="6.1065">
        <ele>471.9</ele>
        <time>2022-11-02T16:33:23.000Z</time>
      </trkpt>
      <trkpt lat="43.57784" lon="6.10648">
        <ele>469.2</ele>
        <time>2022-11-02T16:33:30.000Z</time>
      </trkpt>
      <trkpt lat="43.57784" lon="6.10648">
        <ele>469.4</ele>
        <time>2022-11-02T16:33:42.000Z</time>
      </trkpt>
      <trkpt lat="43.57784" lon="6.10645">
        <ele>472.2</ele>
        <time>2022-11-02T16:33:46.000Z</time>
      </trkpt>
      <trkpt lat="43.57785" lon="6.10646">
        <ele>471.9</ele>
        <time>2022-11-02T16:33:47.000Z</time>
      </trkpt>
      <trkpt lat="43.57785" lon="6.10647">
        <ele>471.8</ele>
        <time>2022-11-02T16:33:49.000Z</time>
      </trkpt>
      <trkpt lat="43.57785" lon="6.10647">
        <ele>471.9</ele>
        <time>2022-11-02T16:33:50.000Z</time>
      </trkpt>
      <trkpt lat="43.57785" lon="6.10647">
        <ele>472</ele>
        <time>2022-11-02T16:33:51.000Z</time>
      </trkpt>
      <trkpt lat="43.57785" lon="6.10647">
        <ele>471.9</ele>
        <time>2022-11-02T16:34:02.000Z</time>
      </trkpt>
      <trkpt lat="43.57794" lon="6.10646">
        <ele>471.9</ele>
        <time>2022-11-02T16:34:19.000Z</time>
      </trkpt>
      <trkpt lat="43.57803" lon="6.10647">
        <ele>472</ele>
        <time>2022-11-02T16:34:30.000Z</time>
      </trkpt>
      <trkpt lat="43.57813" lon="6.10647">
        <ele>472.1</ele>
        <time>2022-11-02T16:34:37.000Z</time>
      </trkpt>
      <trkpt lat="43.57822" lon="6.10643">
        <ele>472.3</ele>
        <time>2022-11-02T16:34:49.000Z</time>
      </trkpt>
      <trkpt lat="43.57832" lon="6.10641">
        <ele>472.2</ele>
        <time>2022-11-02T16:34:57.000Z</time>
      </trkpt>
      <trkpt lat="43.57842" lon="6.10638">
        <ele>472.2</ele>
        <time>2022-11-02T16:35:04.000Z</time>
      </trkpt>
      <trkpt lat="43.57851" lon="6.10635">
        <ele>472.6</ele>
        <time>2022-11-02T16:35:10.000Z</time>
      </trkpt>
      <trkpt lat="43.57861" lon="6.10633">
        <ele>472.3</ele>
        <time>2022-11-02T16:35:16.000Z</time>
      </trkpt>
      <trkpt lat="43.57871" lon="6.10631">
        <ele>472.6</ele>
        <time>2022-11-02T16:35:23.000Z</time>
      </trkpt>
      <trkpt lat="43.5788" lon="6.10626">
        <ele>472.5</ele>
        <time>2022-11-02T16:35:29.000Z</time>
      </trkpt>
      <trkpt lat="43.57889" lon="6.10621">
        <ele>472.6</ele>
        <time>2022-11-02T16:35:35.000Z</time>
      </trkpt>
      <trkpt lat="43.57898" lon="6.10619">
        <ele>473</ele>
        <time>2022-11-02T16:35:43.000Z</time>
      </trkpt>
      <trkpt lat="43.57908" lon="6.10617">
        <ele>472.7</ele>
        <time>2022-11-02T16:35:51.000Z</time>
      </trkpt>
      <trkpt lat="43.57917" lon="6.10613">
        <ele>472.6</ele>
        <time>2022-11-02T16:35:59.000Z</time>
      </trkpt>
      <trkpt lat="43.57926" lon="6.10609">
        <ele>472.8</ele>
        <time>2022-11-02T16:36:07.000Z</time>
      </trkpt>
      <trkpt lat="43.57936" lon="6.10606">
        <ele>472.9</ele>
        <time>2022-11-02T16:36:15.000Z</time>
      </trkpt>
      <trkpt lat="43.57945" lon="6.10602">
        <ele>473.2</ele>
        <time>2022-11-02T16:36:22.000Z</time>
      </trkpt>
      <trkpt lat="43.57954" lon="6.10599">
        <ele>473.3</ele>
        <time>2022-11-02T16:36:29.000Z</time>
      </trkpt>
      <trkpt lat="43.57963" lon="6.10595">
        <ele>473.5</ele>
        <time>2022-11-02T16:36:37.000Z</time>
      </trkpt>
      <trkpt lat="43.57972" lon="6.10592">
        <ele>473.4</ele>
        <time>2022-11-02T16:36:44.000Z</time>
      </trkpt>
      <trkpt lat="43.57981" lon="6.10587">
        <ele>474.1</ele>
        <time>2022-11-02T16:36:51.000Z</time>
      </trkpt>
      <trkpt lat="43.57991" lon="6.10584">
        <ele>474.1</ele>
        <time>2022-11-02T16:36:59.000Z</time>
      </trkpt>
      <trkpt lat="43.58" lon="6.10582">
        <ele>474</ele>
        <time>2022-11-02T16:37:06.000Z</time>
      </trkpt>
      <trkpt lat="43.5801" lon="6.10579">
        <ele>474.4</ele>
        <time>2022-11-02T16:37:15.000Z</time>
      </trkpt>
      <trkpt lat="43.58019" lon="6.10579">
        <ele>474.7</ele>
        <time>2022-11-02T16:37:24.000Z</time>
      </trkpt>
      <trkpt lat="43.58029" lon="6.10582">
        <ele>475.1</ele>
        <time>2022-11-02T16:37:32.000Z</time>
      </trkpt>
      <trkpt lat="43.58038" lon="6.10581">
        <ele>475.1</ele>
        <time>2022-11-02T16:37:40.000Z</time>
      </trkpt>
      <trkpt lat="43.58047" lon="6.10576">
        <ele>475.5</ele>
        <time>2022-11-02T16:37:52.000Z</time>
      </trkpt>
      <trkpt lat="43.58055" lon="6.1057">
        <ele>476.1</ele>
        <time>2022-11-02T16:38:02.000Z</time>
      </trkpt>
    </trkseg>
  </trk>
</gpx>